<?xml version="1.0" encoding="UTF-8" standalone="no" ?>
<gpx xmlns="http://www.topografix.com/GPX/1/1" xmlns:xsi="http://www.w3.org/2001/XMLSchema-instance" xsi:schemaLocation="http://www.topografix.com/GPX/1/1 http://www.topografix.com/GPX/1/1/gpx.xsd" version="1.1" creator="VisuGPX - https://www.visugpx.com">
  <metadata>
    <name>boucle dommartin</name>
    <desc><![CDATA[                                          ]]></desc>
  </metadata>
  <trk>
    <name><![CDATA[11-JAN-14 17:45:12]]></name>
    <trkseg>
      <trkpt lat="45.84728" lon="4.72604">
        <ele>231.33</ele>
        <time>2014-01-11T13:11:34Z</time>
      </trkpt>
      <trkpt lat="45.84728" lon="4.72604">
        <ele>231.33</ele>
        <time>2014-01-11T13:11:35Z</time>
      </trkpt>
      <trkpt lat="45.84727" lon="4.72604">
        <ele>235.66</ele>
        <time>2014-01-11T13:11:40Z</time>
      </trkpt>
      <trkpt lat="45.84726" lon="4.72604">
        <ele>239.51</ele>
        <time>2014-01-11T13:11:43Z</time>
      </trkpt>
      <trkpt lat="45.84726" lon="4.72605">
        <ele>243.35</ele>
        <time>2014-01-11T13:11:46Z</time>
      </trkpt>
      <trkpt lat="45.84726" lon="4.72603">
        <ele>246.72</ele>
        <time>2014-01-11T13:11:49Z</time>
      </trkpt>
      <trkpt lat="45.84726" lon="4.72604">
        <ele>252.96</ele>
        <time>2014-01-11T13:11:52Z</time>
      </trkpt>
      <trkpt lat="45.84726" lon="4.72604">
        <ele>250.56</ele>
        <time>2014-01-11T13:11:53Z</time>
      </trkpt>
      <trkpt lat="45.84727" lon="4.72603">
        <ele>255.37</ele>
        <time>2014-01-11T13:11:55Z</time>
      </trkpt>
      <trkpt lat="45.84727" lon="4.72602">
        <ele>248.64</ele>
        <time>2014-01-11T13:11:57Z</time>
      </trkpt>
      <trkpt lat="45.84727" lon="4.72602">
        <ele>254.41</ele>
        <time>2014-01-11T13:11:58Z</time>
      </trkpt>
      <trkpt lat="45.84727" lon="4.72602">
        <ele>251.04</ele>
        <time>2014-01-11T13:12:00Z</time>
      </trkpt>
      <trkpt lat="45.84726" lon="4.72602">
        <ele>256.81</ele>
        <time>2014-01-11T13:12:01Z</time>
      </trkpt>
      <trkpt lat="45.84726" lon="4.72603">
        <ele>256.81</ele>
        <time>2014-01-11T13:12:02Z</time>
      </trkpt>
      <trkpt lat="45.84726" lon="4.72603">
        <ele>249.6</ele>
        <time>2014-01-11T13:12:03Z</time>
      </trkpt>
      <trkpt lat="45.84726" lon="4.72603">
        <ele>258.25</ele>
        <time>2014-01-11T13:12:04Z</time>
      </trkpt>
      <trkpt lat="45.84726" lon="4.72603">
        <ele>260.65</ele>
        <time>2014-01-11T13:12:08Z</time>
      </trkpt>
      <trkpt lat="45.84726" lon="4.72603">
        <ele>261.14</ele>
        <time>2014-01-11T13:12:10Z</time>
      </trkpt>
      <trkpt lat="45.84725" lon="4.72602">
        <ele>264.5</ele>
        <time>2014-01-11T13:12:16Z</time>
      </trkpt>
      <trkpt lat="45.84724" lon="4.72602">
        <ele>264.98</ele>
        <time>2014-01-11T13:12:20Z</time>
      </trkpt>
      <trkpt lat="45.84725" lon="4.72601">
        <ele>268.35</ele>
        <time>2014-01-11T13:12:23Z</time>
      </trkpt>
      <trkpt lat="45.84726" lon="4.72601">
        <ele>265.94</ele>
        <time>2014-01-11T13:12:27Z</time>
      </trkpt>
      <trkpt lat="45.84726" lon="4.72602">
        <ele>269.31</ele>
        <time>2014-01-11T13:12:28Z</time>
      </trkpt>
      <trkpt lat="45.84726" lon="4.72602">
        <ele>268.35</ele>
        <time>2014-01-11T13:12:29Z</time>
      </trkpt>
      <trkpt lat="45.84726" lon="4.72602">
        <ele>274.59</ele>
        <time>2014-01-11T13:12:32Z</time>
      </trkpt>
      <trkpt lat="45.84726" lon="4.72602">
        <ele>264.02</ele>
        <time>2014-01-11T13:12:33Z</time>
      </trkpt>
      <trkpt lat="45.84726" lon="4.72602">
        <ele>273.63</ele>
        <time>2014-01-11T13:12:34Z</time>
      </trkpt>
      <trkpt lat="45.84726" lon="4.72602">
        <ele>268.83</ele>
        <time>2014-01-11T13:12:35Z</time>
      </trkpt>
      <trkpt lat="45.84725" lon="4.72602">
        <ele>270.27</ele>
        <time>2014-01-11T13:12:41Z</time>
      </trkpt>
      <trkpt lat="45.84726" lon="4.72603">
        <ele>272.67</ele>
        <time>2014-01-11T13:13:01Z</time>
      </trkpt>
      <trkpt lat="45.84726" lon="4.72603">
        <ele>272.67</ele>
        <time>2014-01-11T13:13:23Z</time>
      </trkpt>
      <trkpt lat="45.84726" lon="4.72603">
        <ele>272.67</ele>
        <time>2014-01-11T13:13:43Z</time>
      </trkpt>
      <trkpt lat="45.84726" lon="4.72603">
        <ele>272.67</ele>
        <time>2014-01-11T13:14:06Z</time>
      </trkpt>
      <trkpt lat="45.84726" lon="4.72603">
        <ele>272.67</ele>
        <time>2014-01-11T13:14:28Z</time>
      </trkpt>
      <trkpt lat="45.8473" lon="4.726">
        <ele>272.67</ele>
        <time>2014-01-11T13:14:38Z</time>
      </trkpt>
      <trkpt lat="45.84737" lon="4.726">
        <ele>273.15</ele>
        <time>2014-01-11T13:14:51Z</time>
      </trkpt>
      <trkpt lat="45.84736" lon="4.726">
        <ele>274.11</ele>
        <time>2014-01-11T13:15:05Z</time>
      </trkpt>
      <trkpt lat="45.8474" lon="4.72602">
        <ele>273.63</ele>
        <time>2014-01-11T13:15:20Z</time>
      </trkpt>
      <trkpt lat="45.84737" lon="4.72597">
        <ele>273.63</ele>
        <time>2014-01-11T13:15:37Z</time>
      </trkpt>
      <trkpt lat="45.84737" lon="4.72597">
        <ele>273.63</ele>
        <time>2014-01-11T13:15:57Z</time>
      </trkpt>
      <trkpt lat="45.84737" lon="4.72597">
        <ele>274.11</ele>
        <time>2014-01-11T13:16:11Z</time>
      </trkpt>
      <trkpt lat="45.84737" lon="4.72596">
        <ele>273.63</ele>
        <time>2014-01-11T13:16:29Z</time>
      </trkpt>
      <trkpt lat="45.84735" lon="4.72599">
        <ele>273.63</ele>
        <time>2014-01-11T13:16:38Z</time>
      </trkpt>
      <trkpt lat="45.84734" lon="4.72599">
        <ele>274.11</ele>
        <time>2014-01-11T13:16:44Z</time>
      </trkpt>
      <trkpt lat="45.84731" lon="4.72605">
        <ele>273.63</ele>
        <time>2014-01-11T13:16:54Z</time>
      </trkpt>
      <trkpt lat="45.8473" lon="4.72603">
        <ele>274.11</ele>
        <time>2014-01-11T13:17:06Z</time>
      </trkpt>
      <trkpt lat="45.84729" lon="4.726">
        <ele>274.11</ele>
        <time>2014-01-11T13:17:21Z</time>
      </trkpt>
      <trkpt lat="45.84732" lon="4.72598">
        <ele>274.11</ele>
        <time>2014-01-11T13:17:37Z</time>
      </trkpt>
      <trkpt lat="45.84731" lon="4.72598">
        <ele>274.59</ele>
        <time>2014-01-11T13:17:43Z</time>
      </trkpt>
      <trkpt lat="45.84728" lon="4.72596">
        <ele>273.15</ele>
        <time>2014-01-11T13:17:46Z</time>
      </trkpt>
      <trkpt lat="45.8472" lon="4.72583">
        <ele>269.79</ele>
        <time>2014-01-11T13:17:52Z</time>
      </trkpt>
      <trkpt lat="45.84706" lon="4.72555">
        <ele>266.42</ele>
        <time>2014-01-11T13:18:01Z</time>
      </trkpt>
      <trkpt lat="45.84704" lon="4.72552">
        <ele>265.94</ele>
        <time>2014-01-11T13:18:03Z</time>
      </trkpt>
      <trkpt lat="45.84691" lon="4.72544">
        <ele>264.02</ele>
        <time>2014-01-11T13:18:11Z</time>
      </trkpt>
      <trkpt lat="45.84688" lon="4.72544">
        <ele>263.54</ele>
        <time>2014-01-11T13:18:12Z</time>
      </trkpt>
      <trkpt lat="45.8468" lon="4.72543">
        <ele>263.06</ele>
        <time>2014-01-11T13:18:14Z</time>
      </trkpt>
      <trkpt lat="45.84659" lon="4.7254">
        <ele>260.17</ele>
        <time>2014-01-11T13:18:19Z</time>
      </trkpt>
      <trkpt lat="45.84642" lon="4.72538">
        <ele>258.25</ele>
        <time>2014-01-11T13:18:23Z</time>
      </trkpt>
      <trkpt lat="45.84623" lon="4.72536">
        <ele>257.29</ele>
        <time>2014-01-11T13:18:27Z</time>
      </trkpt>
      <trkpt lat="45.84619" lon="4.72533">
        <ele>256.33</ele>
        <time>2014-01-11T13:18:28Z</time>
      </trkpt>
      <trkpt lat="45.84616" lon="4.72528">
        <ele>256.33</ele>
        <time>2014-01-11T13:18:29Z</time>
      </trkpt>
      <trkpt lat="45.84614" lon="4.72523">
        <ele>257.29</ele>
        <time>2014-01-11T13:18:30Z</time>
      </trkpt>
      <trkpt lat="45.84613" lon="4.72517">
        <ele>257.29</ele>
        <time>2014-01-11T13:18:31Z</time>
      </trkpt>
      <trkpt lat="45.84613" lon="4.72513">
        <ele>257.29</ele>
        <time>2014-01-11T13:18:32Z</time>
      </trkpt>
      <trkpt lat="45.84612" lon="4.72509">
        <ele>257.77</ele>
        <time>2014-01-11T13:18:33Z</time>
      </trkpt>
      <trkpt lat="45.84612" lon="4.72505">
        <ele>258.25</ele>
        <time>2014-01-11T13:18:34Z</time>
      </trkpt>
      <trkpt lat="45.84604" lon="4.7248">
        <ele>259.21</ele>
        <time>2014-01-11T13:18:44Z</time>
      </trkpt>
      <trkpt lat="45.84581" lon="4.72455">
        <ele>257.77</ele>
        <time>2014-01-11T13:18:53Z</time>
      </trkpt>
      <trkpt lat="45.84575" lon="4.72449">
        <ele>256.81</ele>
        <time>2014-01-11T13:18:55Z</time>
      </trkpt>
      <trkpt lat="45.8456" lon="4.72435">
        <ele>254.89</ele>
        <time>2014-01-11T13:19:01Z</time>
      </trkpt>
      <trkpt lat="45.84558" lon="4.72434">
        <ele>254.41</ele>
        <time>2014-01-11T13:19:02Z</time>
      </trkpt>
      <trkpt lat="45.84557" lon="4.72434">
        <ele>254.89</ele>
        <time>2014-01-11T13:19:03Z</time>
      </trkpt>
      <trkpt lat="45.84555" lon="4.72434">
        <ele>254.41</ele>
        <time>2014-01-11T13:19:04Z</time>
      </trkpt>
      <trkpt lat="45.84554" lon="4.72434">
        <ele>254.41</ele>
        <time>2014-01-11T13:19:05Z</time>
      </trkpt>
      <trkpt lat="45.84553" lon="4.72435">
        <ele>254.41</ele>
        <time>2014-01-11T13:19:06Z</time>
      </trkpt>
      <trkpt lat="45.84553" lon="4.72435">
        <ele>253.93</ele>
        <time>2014-01-11T13:19:18Z</time>
      </trkpt>
      <trkpt lat="45.84552" lon="4.72434">
        <ele>252.96</ele>
        <time>2014-01-11T13:19:30Z</time>
      </trkpt>
      <trkpt lat="45.84552" lon="4.72434">
        <ele>253.93</ele>
        <time>2014-01-11T13:19:52Z</time>
      </trkpt>
      <trkpt lat="45.84551" lon="4.72434">
        <ele>254.41</ele>
        <time>2014-01-11T13:20:06Z</time>
      </trkpt>
      <trkpt lat="45.8455" lon="4.72434">
        <ele>254.41</ele>
        <time>2014-01-11T13:20:07Z</time>
      </trkpt>
      <trkpt lat="45.84549" lon="4.72433">
        <ele>253.44</ele>
        <time>2014-01-11T13:20:08Z</time>
      </trkpt>
      <trkpt lat="45.84548" lon="4.72432">
        <ele>253.93</ele>
        <time>2014-01-11T13:20:09Z</time>
      </trkpt>
      <trkpt lat="45.84546" lon="4.72431">
        <ele>253.44</ele>
        <time>2014-01-11T13:20:10Z</time>
      </trkpt>
      <trkpt lat="45.84545" lon="4.72429">
        <ele>252.96</ele>
        <time>2014-01-11T13:20:11Z</time>
      </trkpt>
      <trkpt lat="45.84534" lon="4.72417">
        <ele>252.48</ele>
        <time>2014-01-11T13:20:15Z</time>
      </trkpt>
      <trkpt lat="45.84523" lon="4.72409">
        <ele>251.04</ele>
        <time>2014-01-11T13:20:20Z</time>
      </trkpt>
      <trkpt lat="45.84523" lon="4.72407">
        <ele>250.56</ele>
        <time>2014-01-11T13:20:21Z</time>
      </trkpt>
      <trkpt lat="45.84523" lon="4.72405">
        <ele>250.56</ele>
        <time>2014-01-11T13:20:22Z</time>
      </trkpt>
      <trkpt lat="45.84524" lon="4.72404">
        <ele>250.56</ele>
        <time>2014-01-11T13:20:23Z</time>
      </trkpt>
      <trkpt lat="45.84525" lon="4.72402">
        <ele>251.04</ele>
        <time>2014-01-11T13:20:24Z</time>
      </trkpt>
      <trkpt lat="45.84525" lon="4.72401">
        <ele>251.04</ele>
        <time>2014-01-11T13:20:25Z</time>
      </trkpt>
      <trkpt lat="45.84527" lon="4.72399">
        <ele>251.04</ele>
        <time>2014-01-11T13:20:26Z</time>
      </trkpt>
      <trkpt lat="45.84542" lon="4.72381">
        <ele>253.44</ele>
        <time>2014-01-11T13:20:35Z</time>
      </trkpt>
      <trkpt lat="45.84561" lon="4.72357">
        <ele>256.81</ele>
        <time>2014-01-11T13:20:47Z</time>
      </trkpt>
      <trkpt lat="45.84579" lon="4.72334">
        <ele>259.21</ele>
        <time>2014-01-11T13:20:59Z</time>
      </trkpt>
      <trkpt lat="45.84603" lon="4.72324">
        <ele>261.62</ele>
        <time>2014-01-11T13:21:10Z</time>
      </trkpt>
      <trkpt lat="45.84632" lon="4.72318">
        <ele>264.02</ele>
        <time>2014-01-11T13:21:24Z</time>
      </trkpt>
      <trkpt lat="45.84665" lon="4.72314">
        <ele>266.42</ele>
        <time>2014-01-11T13:21:41Z</time>
      </trkpt>
      <trkpt lat="45.8469" lon="4.7231">
        <ele>268.83</ele>
        <time>2014-01-11T13:21:53Z</time>
      </trkpt>
      <trkpt lat="45.84721" lon="4.7231">
        <ele>269.79</ele>
        <time>2014-01-11T13:22:06Z</time>
      </trkpt>
      <trkpt lat="45.8475" lon="4.72314">
        <ele>270.75</ele>
        <time>2014-01-11T13:22:18Z</time>
      </trkpt>
      <trkpt lat="45.84775" lon="4.72303">
        <ele>271.71</ele>
        <time>2014-01-11T13:22:29Z</time>
      </trkpt>
      <trkpt lat="45.84795" lon="4.72276">
        <ele>273.15</ele>
        <time>2014-01-11T13:22:40Z</time>
      </trkpt>
      <trkpt lat="45.84819" lon="4.7225">
        <ele>274.11</ele>
        <time>2014-01-11T13:22:51Z</time>
      </trkpt>
      <trkpt lat="45.84852" lon="4.72231">
        <ele>275.07</ele>
        <time>2014-01-11T13:23:03Z</time>
      </trkpt>
      <trkpt lat="45.84883" lon="4.72207">
        <ele>274.11</ele>
        <time>2014-01-11T13:23:12Z</time>
      </trkpt>
      <trkpt lat="45.84888" lon="4.72205">
        <ele>274.11</ele>
        <time>2014-01-11T13:23:13Z</time>
      </trkpt>
      <trkpt lat="45.84897" lon="4.72202">
        <ele>274.11</ele>
        <time>2014-01-11T13:23:15Z</time>
      </trkpt>
      <trkpt lat="45.84901" lon="4.72201">
        <ele>273.63</ele>
        <time>2014-01-11T13:23:16Z</time>
      </trkpt>
      <trkpt lat="45.84925" lon="4.72203">
        <ele>273.15</ele>
        <time>2014-01-11T13:23:21Z</time>
      </trkpt>
      <trkpt lat="45.84989" lon="4.72215">
        <ele>272.67</ele>
        <time>2014-01-11T13:23:35Z</time>
      </trkpt>
      <trkpt lat="45.84993" lon="4.72216">
        <ele>272.67</ele>
        <time>2014-01-11T13:23:36Z</time>
      </trkpt>
      <trkpt lat="45.84998" lon="4.72216">
        <ele>272.67</ele>
        <time>2014-01-11T13:23:37Z</time>
      </trkpt>
      <trkpt lat="45.85058" lon="4.7222">
        <ele>272.19</ele>
        <time>2014-01-11T13:23:51Z</time>
      </trkpt>
      <trkpt lat="45.85109" lon="4.72226">
        <ele>271.71</ele>
        <time>2014-01-11T13:24:03Z</time>
      </trkpt>
      <trkpt lat="45.85153" lon="4.72241">
        <ele>272.67</ele>
        <time>2014-01-11T13:24:15Z</time>
      </trkpt>
      <trkpt lat="45.85184" lon="4.72274">
        <ele>275.07</ele>
        <time>2014-01-11T13:24:27Z</time>
      </trkpt>
      <trkpt lat="45.85215" lon="4.72291">
        <ele>275.07</ele>
        <time>2014-01-11T13:24:37Z</time>
      </trkpt>
      <trkpt lat="45.85255" lon="4.723">
        <ele>274.59</ele>
        <time>2014-01-11T13:24:46Z</time>
      </trkpt>
      <trkpt lat="45.8526" lon="4.72299">
        <ele>274.11</ele>
        <time>2014-01-11T13:24:47Z</time>
      </trkpt>
      <trkpt lat="45.85264" lon="4.72298">
        <ele>273.63</ele>
        <time>2014-01-11T13:24:48Z</time>
      </trkpt>
      <trkpt lat="45.85268" lon="4.72297">
        <ele>274.11</ele>
        <time>2014-01-11T13:24:49Z</time>
      </trkpt>
      <trkpt lat="45.85272" lon="4.72295">
        <ele>273.15</ele>
        <time>2014-01-11T13:24:50Z</time>
      </trkpt>
      <trkpt lat="45.85275" lon="4.72292">
        <ele>274.11</ele>
        <time>2014-01-11T13:24:51Z</time>
      </trkpt>
      <trkpt lat="45.85278" lon="4.72289">
        <ele>272.67</ele>
        <time>2014-01-11T13:24:52Z</time>
      </trkpt>
      <trkpt lat="45.85281" lon="4.72285">
        <ele>272.67</ele>
        <time>2014-01-11T13:24:53Z</time>
      </trkpt>
      <trkpt lat="45.85284" lon="4.72279">
        <ele>273.15</ele>
        <time>2014-01-11T13:24:54Z</time>
      </trkpt>
      <trkpt lat="45.85286" lon="4.72274">
        <ele>272.19</ele>
        <time>2014-01-11T13:24:55Z</time>
      </trkpt>
      <trkpt lat="45.85288" lon="4.72268">
        <ele>272.19</ele>
        <time>2014-01-11T13:24:56Z</time>
      </trkpt>
      <trkpt lat="45.85291" lon="4.72262">
        <ele>271.23</ele>
        <time>2014-01-11T13:24:57Z</time>
      </trkpt>
      <trkpt lat="45.85294" lon="4.72255">
        <ele>271.71</ele>
        <time>2014-01-11T13:24:58Z</time>
      </trkpt>
      <trkpt lat="45.85297" lon="4.72249">
        <ele>270.75</ele>
        <time>2014-01-11T13:24:59Z</time>
      </trkpt>
      <trkpt lat="45.85302" lon="4.72244">
        <ele>271.23</ele>
        <time>2014-01-11T13:25:00Z</time>
      </trkpt>
      <trkpt lat="45.85307" lon="4.72242">
        <ele>270.75</ele>
        <time>2014-01-11T13:25:01Z</time>
      </trkpt>
      <trkpt lat="45.85313" lon="4.7224">
        <ele>270.75</ele>
        <time>2014-01-11T13:25:02Z</time>
      </trkpt>
      <trkpt lat="45.85319" lon="4.72239">
        <ele>269.79</ele>
        <time>2014-01-11T13:25:03Z</time>
      </trkpt>
      <trkpt lat="45.85326" lon="4.72239">
        <ele>269.79</ele>
        <time>2014-01-11T13:25:04Z</time>
      </trkpt>
      <trkpt lat="45.85332" lon="4.72239">
        <ele>269.79</ele>
        <time>2014-01-11T13:25:05Z</time>
      </trkpt>
      <trkpt lat="45.85352" lon="4.72242">
        <ele>268.35</ele>
        <time>2014-01-11T13:25:08Z</time>
      </trkpt>
      <trkpt lat="45.85432" lon="4.72259">
        <ele>264.98</ele>
        <time>2014-01-11T13:25:20Z</time>
      </trkpt>
      <trkpt lat="45.85443" lon="4.72258">
        <ele>265.46</ele>
        <time>2014-01-11T13:25:22Z</time>
      </trkpt>
      <trkpt lat="45.85501" lon="4.72253">
        <ele>268.35</ele>
        <time>2014-01-11T13:25:35Z</time>
      </trkpt>
      <trkpt lat="45.85551" lon="4.72245">
        <ele>269.31</ele>
        <time>2014-01-11T13:25:48Z</time>
      </trkpt>
      <trkpt lat="45.85596" lon="4.72228">
        <ele>269.31</ele>
        <time>2014-01-11T13:26:00Z</time>
      </trkpt>
      <trkpt lat="45.8564" lon="4.72203">
        <ele>270.27</ele>
        <time>2014-01-11T13:26:13Z</time>
      </trkpt>
      <trkpt lat="45.85676" lon="4.72179">
        <ele>271.23</ele>
        <time>2014-01-11T13:26:24Z</time>
      </trkpt>
      <trkpt lat="45.8574" lon="4.72158">
        <ele>271.71</ele>
        <time>2014-01-11T13:26:38Z</time>
      </trkpt>
      <trkpt lat="45.85781" lon="4.72159">
        <ele>272.67</ele>
        <time>2014-01-11T13:26:48Z</time>
      </trkpt>
      <trkpt lat="45.85797" lon="4.72155">
        <ele>272.67</ele>
        <time>2014-01-11T13:26:54Z</time>
      </trkpt>
      <trkpt lat="45.85799" lon="4.72151">
        <ele>272.67</ele>
        <time>2014-01-11T13:26:55Z</time>
      </trkpt>
      <trkpt lat="45.858" lon="4.72145">
        <ele>272.19</ele>
        <time>2014-01-11T13:26:56Z</time>
      </trkpt>
      <trkpt lat="45.85802" lon="4.72138">
        <ele>270.75</ele>
        <time>2014-01-11T13:26:57Z</time>
      </trkpt>
      <trkpt lat="45.85804" lon="4.7213">
        <ele>271.23</ele>
        <time>2014-01-11T13:26:58Z</time>
      </trkpt>
      <trkpt lat="45.85805" lon="4.72121">
        <ele>271.23</ele>
        <time>2014-01-11T13:26:59Z</time>
      </trkpt>
      <trkpt lat="45.85811" lon="4.72092">
        <ele>269.31</ele>
        <time>2014-01-11T13:27:02Z</time>
      </trkpt>
      <trkpt lat="45.85819" lon="4.72054">
        <ele>265.94</ele>
        <time>2014-01-11T13:27:06Z</time>
      </trkpt>
      <trkpt lat="45.85829" lon="4.72012">
        <ele>263.06</ele>
        <time>2014-01-11T13:27:10Z</time>
      </trkpt>
      <trkpt lat="45.85837" lon="4.71974">
        <ele>258.73</ele>
        <time>2014-01-11T13:27:13Z</time>
      </trkpt>
      <trkpt lat="45.85842" lon="4.7195">
        <ele>256.33</ele>
        <time>2014-01-11T13:27:15Z</time>
      </trkpt>
      <trkpt lat="45.85843" lon="4.71938">
        <ele>255.37</ele>
        <time>2014-01-11T13:27:16Z</time>
      </trkpt>
      <trkpt lat="45.85842" lon="4.71912">
        <ele>249.6</ele>
        <time>2014-01-11T13:27:18Z</time>
      </trkpt>
      <trkpt lat="45.85841" lon="4.71889">
        <ele>245.75</ele>
        <time>2014-01-11T13:27:20Z</time>
      </trkpt>
      <trkpt lat="45.85842" lon="4.71879">
        <ele>244.79</ele>
        <time>2014-01-11T13:27:21Z</time>
      </trkpt>
      <trkpt lat="45.85844" lon="4.7187">
        <ele>243.35</ele>
        <time>2014-01-11T13:27:22Z</time>
      </trkpt>
      <trkpt lat="45.85847" lon="4.71863">
        <ele>242.87</ele>
        <time>2014-01-11T13:27:23Z</time>
      </trkpt>
      <trkpt lat="45.85853" lon="4.71858">
        <ele>242.39</ele>
        <time>2014-01-11T13:27:24Z</time>
      </trkpt>
      <trkpt lat="45.8586" lon="4.71856">
        <ele>241.43</ele>
        <time>2014-01-11T13:27:25Z</time>
      </trkpt>
      <trkpt lat="45.85867" lon="4.71858">
        <ele>240.95</ele>
        <time>2014-01-11T13:27:26Z</time>
      </trkpt>
      <trkpt lat="45.85874" lon="4.71859">
        <ele>239.99</ele>
        <time>2014-01-11T13:27:27Z</time>
      </trkpt>
      <trkpt lat="45.8588" lon="4.71858">
        <ele>239.51</ele>
        <time>2014-01-11T13:27:28Z</time>
      </trkpt>
      <trkpt lat="45.85887" lon="4.71854">
        <ele>238.06</ele>
        <time>2014-01-11T13:27:29Z</time>
      </trkpt>
      <trkpt lat="45.85892" lon="4.71849">
        <ele>238.06</ele>
        <time>2014-01-11T13:27:30Z</time>
      </trkpt>
      <trkpt lat="45.85902" lon="4.71838">
        <ele>237.1</ele>
        <time>2014-01-11T13:27:32Z</time>
      </trkpt>
      <trkpt lat="45.85905" lon="4.71834">
        <ele>237.1</ele>
        <time>2014-01-11T13:27:33Z</time>
      </trkpt>
      <trkpt lat="45.85906" lon="4.71823">
        <ele>237.1</ele>
        <time>2014-01-11T13:27:34Z</time>
      </trkpt>
      <trkpt lat="45.85903" lon="4.71812">
        <ele>236.62</ele>
        <time>2014-01-11T13:27:35Z</time>
      </trkpt>
      <trkpt lat="45.85897" lon="4.71804">
        <ele>235.66</ele>
        <time>2014-01-11T13:27:36Z</time>
      </trkpt>
      <trkpt lat="45.85891" lon="4.71795">
        <ele>235.18</ele>
        <time>2014-01-11T13:27:37Z</time>
      </trkpt>
      <trkpt lat="45.85886" lon="4.71787">
        <ele>234.7</ele>
        <time>2014-01-11T13:27:38Z</time>
      </trkpt>
      <trkpt lat="45.85882" lon="4.71778">
        <ele>232.78</ele>
        <time>2014-01-11T13:27:39Z</time>
      </trkpt>
      <trkpt lat="45.85878" lon="4.71768">
        <ele>233.26</ele>
        <time>2014-01-11T13:27:40Z</time>
      </trkpt>
      <trkpt lat="45.85876" lon="4.71757">
        <ele>231.81</ele>
        <time>2014-01-11T13:27:41Z</time>
      </trkpt>
      <trkpt lat="45.85877" lon="4.71747">
        <ele>231.33</ele>
        <time>2014-01-11T13:27:42Z</time>
      </trkpt>
      <trkpt lat="45.85881" lon="4.71737">
        <ele>230.85</ele>
        <time>2014-01-11T13:27:43Z</time>
      </trkpt>
      <trkpt lat="45.85884" lon="4.71728">
        <ele>229.89</ele>
        <time>2014-01-11T13:27:44Z</time>
      </trkpt>
      <trkpt lat="45.85886" lon="4.71718">
        <ele>228.93</ele>
        <time>2014-01-11T13:27:45Z</time>
      </trkpt>
      <trkpt lat="45.85887" lon="4.71708">
        <ele>227.97</ele>
        <time>2014-01-11T13:27:46Z</time>
      </trkpt>
      <trkpt lat="45.85886" lon="4.71697">
        <ele>227.97</ele>
        <time>2014-01-11T13:27:47Z</time>
      </trkpt>
      <trkpt lat="45.85884" lon="4.71687">
        <ele>227.01</ele>
        <time>2014-01-11T13:27:48Z</time>
      </trkpt>
      <trkpt lat="45.85882" lon="4.71677">
        <ele>225.57</ele>
        <time>2014-01-11T13:27:49Z</time>
      </trkpt>
      <trkpt lat="45.85879" lon="4.71667">
        <ele>225.09</ele>
        <time>2014-01-11T13:27:50Z</time>
      </trkpt>
      <trkpt lat="45.8587" lon="4.71635">
        <ele>223.16</ele>
        <time>2014-01-11T13:27:53Z</time>
      </trkpt>
      <trkpt lat="45.85861" lon="4.71607">
        <ele>219.32</ele>
        <time>2014-01-11T13:27:56Z</time>
      </trkpt>
      <trkpt lat="45.85857" lon="4.71591">
        <ele>216.91</ele>
        <time>2014-01-11T13:27:59Z</time>
      </trkpt>
      <trkpt lat="45.85858" lon="4.71589">
        <ele>216.43</ele>
        <time>2014-01-11T13:28:00Z</time>
      </trkpt>
      <trkpt lat="45.85862" lon="4.71589">
        <ele>215.95</ele>
        <time>2014-01-11T13:28:01Z</time>
      </trkpt>
      <trkpt lat="45.85866" lon="4.71592">
        <ele>214.99</ele>
        <time>2014-01-11T13:28:02Z</time>
      </trkpt>
      <trkpt lat="45.8587" lon="4.71596">
        <ele>215.47</ele>
        <time>2014-01-11T13:28:03Z</time>
      </trkpt>
      <trkpt lat="45.85875" lon="4.716">
        <ele>214.51</ele>
        <time>2014-01-11T13:28:04Z</time>
      </trkpt>
      <trkpt lat="45.85881" lon="4.71604">
        <ele>214.03</ele>
        <time>2014-01-11T13:28:05Z</time>
      </trkpt>
      <trkpt lat="45.85894" lon="4.71611">
        <ele>210.67</ele>
        <time>2014-01-11T13:28:07Z</time>
      </trkpt>
      <trkpt lat="45.85925" lon="4.7163">
        <ele>207.3</ele>
        <time>2014-01-11T13:28:11Z</time>
      </trkpt>
      <trkpt lat="45.85948" lon="4.71645">
        <ele>203.46</ele>
        <time>2014-01-11T13:28:14Z</time>
      </trkpt>
      <trkpt lat="45.85955" lon="4.71649">
        <ele>202.01</ele>
        <time>2014-01-11T13:28:15Z</time>
      </trkpt>
      <trkpt lat="45.85961" lon="4.71651">
        <ele>201.05</ele>
        <time>2014-01-11T13:28:16Z</time>
      </trkpt>
      <trkpt lat="45.85967" lon="4.71649">
        <ele>201.05</ele>
        <time>2014-01-11T13:28:17Z</time>
      </trkpt>
      <trkpt lat="45.85972" lon="4.71643">
        <ele>200.09</ele>
        <time>2014-01-11T13:28:18Z</time>
      </trkpt>
      <trkpt lat="45.85977" lon="4.71635">
        <ele>198.65</ele>
        <time>2014-01-11T13:28:19Z</time>
      </trkpt>
      <trkpt lat="45.85982" lon="4.71626">
        <ele>198.65</ele>
        <time>2014-01-11T13:28:20Z</time>
      </trkpt>
      <trkpt lat="45.85987" lon="4.71618">
        <ele>197.21</ele>
        <time>2014-01-11T13:28:21Z</time>
      </trkpt>
      <trkpt lat="45.85992" lon="4.71612">
        <ele>196.25</ele>
        <time>2014-01-11T13:28:22Z</time>
      </trkpt>
      <trkpt lat="45.85997" lon="4.71609">
        <ele>196.25</ele>
        <time>2014-01-11T13:28:23Z</time>
      </trkpt>
      <trkpt lat="45.86003" lon="4.7161">
        <ele>195.77</ele>
        <time>2014-01-11T13:28:24Z</time>
      </trkpt>
      <trkpt lat="45.86009" lon="4.71614">
        <ele>195.77</ele>
        <time>2014-01-11T13:28:25Z</time>
      </trkpt>
      <trkpt lat="45.86015" lon="4.7162">
        <ele>195.28</ele>
        <time>2014-01-11T13:28:26Z</time>
      </trkpt>
      <trkpt lat="45.86034" lon="4.71636">
        <ele>193.36</ele>
        <time>2014-01-11T13:28:30Z</time>
      </trkpt>
      <trkpt lat="45.86038" lon="4.71635">
        <ele>194.32</ele>
        <time>2014-01-11T13:28:31Z</time>
      </trkpt>
      <trkpt lat="45.86042" lon="4.71631">
        <ele>192.88</ele>
        <time>2014-01-11T13:28:32Z</time>
      </trkpt>
      <trkpt lat="45.86045" lon="4.71625">
        <ele>193.84</ele>
        <time>2014-01-11T13:28:33Z</time>
      </trkpt>
      <trkpt lat="45.86047" lon="4.71618">
        <ele>193.36</ele>
        <time>2014-01-11T13:28:34Z</time>
      </trkpt>
      <trkpt lat="45.86076" lon="4.71547">
        <ele>192.88</ele>
        <time>2014-01-11T13:28:47Z</time>
      </trkpt>
      <trkpt lat="45.86078" lon="4.71543">
        <ele>191.92</ele>
        <time>2014-01-11T13:28:54Z</time>
      </trkpt>
      <trkpt lat="45.86078" lon="4.71542">
        <ele>192.4</ele>
        <time>2014-01-11T13:28:55Z</time>
      </trkpt>
      <trkpt lat="45.86078" lon="4.7154">
        <ele>191.92</ele>
        <time>2014-01-11T13:28:56Z</time>
      </trkpt>
      <trkpt lat="45.86078" lon="4.71538">
        <ele>192.4</ele>
        <time>2014-01-11T13:28:57Z</time>
      </trkpt>
      <trkpt lat="45.86079" lon="4.71536">
        <ele>193.36</ele>
        <time>2014-01-11T13:28:58Z</time>
      </trkpt>
      <trkpt lat="45.8608" lon="4.71533">
        <ele>192.4</ele>
        <time>2014-01-11T13:28:59Z</time>
      </trkpt>
      <trkpt lat="45.86081" lon="4.71529">
        <ele>192.88</ele>
        <time>2014-01-11T13:29:00Z</time>
      </trkpt>
      <trkpt lat="45.86083" lon="4.71525">
        <ele>193.36</ele>
        <time>2014-01-11T13:29:01Z</time>
      </trkpt>
      <trkpt lat="45.86085" lon="4.7152">
        <ele>193.36</ele>
        <time>2014-01-11T13:29:02Z</time>
      </trkpt>
      <trkpt lat="45.86108" lon="4.71463">
        <ele>193.84</ele>
        <time>2014-01-11T13:29:14Z</time>
      </trkpt>
      <trkpt lat="45.86118" lon="4.71435">
        <ele>192.88</ele>
        <time>2014-01-11T13:29:22Z</time>
      </trkpt>
      <trkpt lat="45.86113" lon="4.71379">
        <ele>193.84</ele>
        <time>2014-01-11T13:29:32Z</time>
      </trkpt>
      <trkpt lat="45.86104" lon="4.71326">
        <ele>193.84</ele>
        <time>2014-01-11T13:29:42Z</time>
      </trkpt>
      <trkpt lat="45.86089" lon="4.71262">
        <ele>193.36</ele>
        <time>2014-01-11T13:29:54Z</time>
      </trkpt>
      <trkpt lat="45.86082" lon="4.71247">
        <ele>193.84</ele>
        <time>2014-01-11T13:29:57Z</time>
      </trkpt>
      <trkpt lat="45.86081" lon="4.7124">
        <ele>193.84</ele>
        <time>2014-01-11T13:29:58Z</time>
      </trkpt>
      <trkpt lat="45.8608" lon="4.71233">
        <ele>193.36</ele>
        <time>2014-01-11T13:29:59Z</time>
      </trkpt>
      <trkpt lat="45.86081" lon="4.71226">
        <ele>193.36</ele>
        <time>2014-01-11T13:30:00Z</time>
      </trkpt>
      <trkpt lat="45.86081" lon="4.71219">
        <ele>192.88</ele>
        <time>2014-01-11T13:30:01Z</time>
      </trkpt>
      <trkpt lat="45.86082" lon="4.71213">
        <ele>193.36</ele>
        <time>2014-01-11T13:30:02Z</time>
      </trkpt>
      <trkpt lat="45.86083" lon="4.71207">
        <ele>193.84</ele>
        <time>2014-01-11T13:30:03Z</time>
      </trkpt>
      <trkpt lat="45.86089" lon="4.71153">
        <ele>192.88</ele>
        <time>2014-01-11T13:30:13Z</time>
      </trkpt>
      <trkpt lat="45.86097" lon="4.71134">
        <ele>193.36</ele>
        <time>2014-01-11T13:30:17Z</time>
      </trkpt>
      <trkpt lat="45.86106" lon="4.71119">
        <ele>193.36</ele>
        <time>2014-01-11T13:30:20Z</time>
      </trkpt>
      <trkpt lat="45.86109" lon="4.71113">
        <ele>192.88</ele>
        <time>2014-01-11T13:30:21Z</time>
      </trkpt>
      <trkpt lat="45.86111" lon="4.71108">
        <ele>192.88</ele>
        <time>2014-01-11T13:30:22Z</time>
      </trkpt>
      <trkpt lat="45.86123" lon="4.7108">
        <ele>192.88</ele>
        <time>2014-01-11T13:30:27Z</time>
      </trkpt>
      <trkpt lat="45.86125" lon="4.71075">
        <ele>192.88</ele>
        <time>2014-01-11T13:30:28Z</time>
      </trkpt>
      <trkpt lat="45.86128" lon="4.7107">
        <ele>192.88</ele>
        <time>2014-01-11T13:30:29Z</time>
      </trkpt>
      <trkpt lat="45.86131" lon="4.71065">
        <ele>192.88</ele>
        <time>2014-01-11T13:30:30Z</time>
      </trkpt>
      <trkpt lat="45.86135" lon="4.71062">
        <ele>192.88</ele>
        <time>2014-01-11T13:30:31Z</time>
      </trkpt>
      <trkpt lat="45.86139" lon="4.71058">
        <ele>193.36</ele>
        <time>2014-01-11T13:30:32Z</time>
      </trkpt>
      <trkpt lat="45.86143" lon="4.71055">
        <ele>192.4</ele>
        <time>2014-01-11T13:30:33Z</time>
      </trkpt>
      <trkpt lat="45.86147" lon="4.71053">
        <ele>192.88</ele>
        <time>2014-01-11T13:30:34Z</time>
      </trkpt>
      <trkpt lat="45.86185" lon="4.71037">
        <ele>192.4</ele>
        <time>2014-01-11T13:30:44Z</time>
      </trkpt>
      <trkpt lat="45.86214" lon="4.71003">
        <ele>192.88</ele>
        <time>2014-01-11T13:30:55Z</time>
      </trkpt>
      <trkpt lat="45.86218" lon="4.71001">
        <ele>192.88</ele>
        <time>2014-01-11T13:30:56Z</time>
      </trkpt>
      <trkpt lat="45.86222" lon="4.71">
        <ele>192.88</ele>
        <time>2014-01-11T13:30:57Z</time>
      </trkpt>
      <trkpt lat="45.86227" lon="4.71001">
        <ele>192.88</ele>
        <time>2014-01-11T13:30:58Z</time>
      </trkpt>
      <trkpt lat="45.86231" lon="4.71002">
        <ele>192.4</ele>
        <time>2014-01-11T13:30:59Z</time>
      </trkpt>
      <trkpt lat="45.86235" lon="4.71004">
        <ele>192.88</ele>
        <time>2014-01-11T13:31:00Z</time>
      </trkpt>
      <trkpt lat="45.86239" lon="4.71007">
        <ele>192.88</ele>
        <time>2014-01-11T13:31:01Z</time>
      </trkpt>
      <trkpt lat="45.86243" lon="4.71011">
        <ele>193.36</ele>
        <time>2014-01-11T13:31:02Z</time>
      </trkpt>
      <trkpt lat="45.86257" lon="4.71025">
        <ele>192.88</ele>
        <time>2014-01-11T13:31:06Z</time>
      </trkpt>
      <trkpt lat="45.86261" lon="4.71027">
        <ele>192.88</ele>
        <time>2014-01-11T13:31:07Z</time>
      </trkpt>
      <trkpt lat="45.86266" lon="4.71028">
        <ele>192.88</ele>
        <time>2014-01-11T13:31:08Z</time>
      </trkpt>
      <trkpt lat="45.8627" lon="4.71027">
        <ele>192.4</ele>
        <time>2014-01-11T13:31:09Z</time>
      </trkpt>
      <trkpt lat="45.86275" lon="4.71027">
        <ele>192.88</ele>
        <time>2014-01-11T13:31:10Z</time>
      </trkpt>
      <trkpt lat="45.86351" lon="4.71024">
        <ele>191.92</ele>
        <time>2014-01-11T13:31:25Z</time>
      </trkpt>
      <trkpt lat="45.86356" lon="4.71023">
        <ele>191.92</ele>
        <time>2014-01-11T13:31:26Z</time>
      </trkpt>
      <trkpt lat="45.86361" lon="4.71021">
        <ele>191.92</ele>
        <time>2014-01-11T13:31:27Z</time>
      </trkpt>
      <trkpt lat="45.86365" lon="4.71018">
        <ele>191.44</ele>
        <time>2014-01-11T13:31:28Z</time>
      </trkpt>
      <trkpt lat="45.86369" lon="4.71015">
        <ele>191.92</ele>
        <time>2014-01-11T13:31:29Z</time>
      </trkpt>
      <trkpt lat="45.86374" lon="4.71012">
        <ele>191.92</ele>
        <time>2014-01-11T13:31:30Z</time>
      </trkpt>
      <trkpt lat="45.86426" lon="4.70984">
        <ele>191.92</ele>
        <time>2014-01-11T13:31:41Z</time>
      </trkpt>
      <trkpt lat="45.86455" lon="4.7098">
        <ele>191.92</ele>
        <time>2014-01-11T13:31:47Z</time>
      </trkpt>
      <trkpt lat="45.86459" lon="4.70981">
        <ele>190.96</ele>
        <time>2014-01-11T13:31:48Z</time>
      </trkpt>
      <trkpt lat="45.86479" lon="4.70983">
        <ele>191.44</ele>
        <time>2014-01-11T13:31:53Z</time>
      </trkpt>
      <trkpt lat="45.86483" lon="4.70981">
        <ele>190.96</ele>
        <time>2014-01-11T13:31:54Z</time>
      </trkpt>
      <trkpt lat="45.86498" lon="4.70972">
        <ele>191.92</ele>
        <time>2014-01-11T13:31:58Z</time>
      </trkpt>
      <trkpt lat="45.86502" lon="4.70971">
        <ele>191.44</ele>
        <time>2014-01-11T13:31:59Z</time>
      </trkpt>
      <trkpt lat="45.86507" lon="4.7097">
        <ele>191.44</ele>
        <time>2014-01-11T13:32:00Z</time>
      </trkpt>
      <trkpt lat="45.86536" lon="4.70961">
        <ele>190.96</ele>
        <time>2014-01-11T13:32:09Z</time>
      </trkpt>
      <trkpt lat="45.8656" lon="4.70954">
        <ele>191.44</ele>
        <time>2014-01-11T13:32:17Z</time>
      </trkpt>
      <trkpt lat="45.86565" lon="4.70954">
        <ele>191.44</ele>
        <time>2014-01-11T13:32:19Z</time>
      </trkpt>
      <trkpt lat="45.86566" lon="4.70952">
        <ele>190.96</ele>
        <time>2014-01-11T13:32:20Z</time>
      </trkpt>
      <trkpt lat="45.86568" lon="4.70949">
        <ele>190.48</ele>
        <time>2014-01-11T13:32:21Z</time>
      </trkpt>
      <trkpt lat="45.86569" lon="4.70946">
        <ele>190.96</ele>
        <time>2014-01-11T13:32:22Z</time>
      </trkpt>
      <trkpt lat="45.86569" lon="4.70944">
        <ele>190.96</ele>
        <time>2014-01-11T13:32:23Z</time>
      </trkpt>
      <trkpt lat="45.8657" lon="4.70924">
        <ele>190.48</ele>
        <time>2014-01-11T13:32:33Z</time>
      </trkpt>
      <trkpt lat="45.86562" lon="4.70891">
        <ele>190.96</ele>
        <time>2014-01-11T13:32:45Z</time>
      </trkpt>
      <trkpt lat="45.86561" lon="4.70885">
        <ele>190.96</ele>
        <time>2014-01-11T13:32:47Z</time>
      </trkpt>
      <trkpt lat="45.86571" lon="4.70873">
        <ele>190.48</ele>
        <time>2014-01-11T13:32:55Z</time>
      </trkpt>
      <trkpt lat="45.86612" lon="4.70877">
        <ele>191.92</ele>
        <time>2014-01-11T13:33:09Z</time>
      </trkpt>
      <trkpt lat="45.86656" lon="4.70883">
        <ele>191.44</ele>
        <time>2014-01-11T13:33:22Z</time>
      </trkpt>
      <trkpt lat="45.86703" lon="4.70887">
        <ele>191.44</ele>
        <time>2014-01-11T13:33:34Z</time>
      </trkpt>
      <trkpt lat="45.86733" lon="4.70903">
        <ele>192.4</ele>
        <time>2014-01-11T13:33:42Z</time>
      </trkpt>
      <trkpt lat="45.86736" lon="4.70906">
        <ele>192.4</ele>
        <time>2014-01-11T13:33:43Z</time>
      </trkpt>
      <trkpt lat="45.86785" lon="4.70966">
        <ele>192.4</ele>
        <time>2014-01-11T13:33:58Z</time>
      </trkpt>
      <trkpt lat="45.86794" lon="4.70978">
        <ele>192.88</ele>
        <time>2014-01-11T13:34:01Z</time>
      </trkpt>
      <trkpt lat="45.8682" lon="4.71034">
        <ele>191.44</ele>
        <time>2014-01-11T13:34:13Z</time>
      </trkpt>
      <trkpt lat="45.86833" lon="4.71088">
        <ele>192.4</ele>
        <time>2014-01-11T13:34:23Z</time>
      </trkpt>
      <trkpt lat="45.86834" lon="4.71094">
        <ele>191.44</ele>
        <time>2014-01-11T13:34:24Z</time>
      </trkpt>
      <trkpt lat="45.86832" lon="4.7116">
        <ele>191.44</ele>
        <time>2014-01-11T13:34:36Z</time>
      </trkpt>
      <trkpt lat="45.86831" lon="4.71189">
        <ele>191.92</ele>
        <time>2014-01-11T13:34:41Z</time>
      </trkpt>
      <trkpt lat="45.86828" lon="4.71236">
        <ele>191.92</ele>
        <time>2014-01-11T13:34:49Z</time>
      </trkpt>
      <trkpt lat="45.86828" lon="4.71297">
        <ele>191.44</ele>
        <time>2014-01-11T13:35:01Z</time>
      </trkpt>
      <trkpt lat="45.86826" lon="4.71346">
        <ele>189.04</ele>
        <time>2014-01-11T13:35:12Z</time>
      </trkpt>
      <trkpt lat="45.86826" lon="4.71347">
        <ele>189.52</ele>
        <time>2014-01-11T13:35:22Z</time>
      </trkpt>
      <trkpt lat="45.86825" lon="4.71348">
        <ele>189.52</ele>
        <time>2014-01-11T13:35:27Z</time>
      </trkpt>
      <trkpt lat="45.86823" lon="4.71355">
        <ele>190.96</ele>
        <time>2014-01-11T13:35:36Z</time>
      </trkpt>
      <trkpt lat="45.86823" lon="4.71358">
        <ele>193.84</ele>
        <time>2014-01-11T13:35:48Z</time>
      </trkpt>
      <trkpt lat="45.86821" lon="4.71362">
        <ele>195.28</ele>
        <time>2014-01-11T13:36:00Z</time>
      </trkpt>
      <trkpt lat="45.86821" lon="4.71363">
        <ele>195.28</ele>
        <time>2014-01-11T13:36:04Z</time>
      </trkpt>
      <trkpt lat="45.86822" lon="4.71365">
        <ele>195.28</ele>
        <time>2014-01-11T13:36:05Z</time>
      </trkpt>
      <trkpt lat="45.86822" lon="4.71367">
        <ele>195.77</ele>
        <time>2014-01-11T13:36:06Z</time>
      </trkpt>
      <trkpt lat="45.86823" lon="4.71369">
        <ele>195.28</ele>
        <time>2014-01-11T13:36:07Z</time>
      </trkpt>
      <trkpt lat="45.86824" lon="4.71371">
        <ele>195.77</ele>
        <time>2014-01-11T13:36:08Z</time>
      </trkpt>
      <trkpt lat="45.86825" lon="4.71372">
        <ele>195.28</ele>
        <time>2014-01-11T13:36:09Z</time>
      </trkpt>
      <trkpt lat="45.86826" lon="4.71373">
        <ele>194.8</ele>
        <time>2014-01-11T13:36:10Z</time>
      </trkpt>
      <trkpt lat="45.86828" lon="4.71372">
        <ele>195.28</ele>
        <time>2014-01-11T13:36:11Z</time>
      </trkpt>
      <trkpt lat="45.8683" lon="4.71371">
        <ele>195.28</ele>
        <time>2014-01-11T13:36:12Z</time>
      </trkpt>
      <trkpt lat="45.8684" lon="4.71366">
        <ele>194.8</ele>
        <time>2014-01-11T13:36:21Z</time>
      </trkpt>
      <trkpt lat="45.86843" lon="4.71365">
        <ele>195.28</ele>
        <time>2014-01-11T13:36:23Z</time>
      </trkpt>
      <trkpt lat="45.86845" lon="4.71364">
        <ele>195.28</ele>
        <time>2014-01-11T13:36:24Z</time>
      </trkpt>
      <trkpt lat="45.86886" lon="4.7135">
        <ele>195.77</ele>
        <time>2014-01-11T13:36:38Z</time>
      </trkpt>
      <trkpt lat="45.86939" lon="4.71332">
        <ele>195.77</ele>
        <time>2014-01-11T13:36:52Z</time>
      </trkpt>
      <trkpt lat="45.87001" lon="4.71308">
        <ele>196.25</ele>
        <time>2014-01-11T13:37:06Z</time>
      </trkpt>
      <trkpt lat="45.87079" lon="4.71279">
        <ele>197.21</ele>
        <time>2014-01-11T13:37:22Z</time>
      </trkpt>
      <trkpt lat="45.87153" lon="4.71252">
        <ele>200.09</ele>
        <time>2014-01-11T13:37:38Z</time>
      </trkpt>
      <trkpt lat="45.87204" lon="4.71233">
        <ele>202.49</ele>
        <time>2014-01-11T13:37:51Z</time>
      </trkpt>
      <trkpt lat="45.87269" lon="4.7121">
        <ele>204.9</ele>
        <time>2014-01-11T13:38:08Z</time>
      </trkpt>
      <trkpt lat="45.87312" lon="4.71194">
        <ele>207.3</ele>
        <time>2014-01-11T13:38:20Z</time>
      </trkpt>
      <trkpt lat="45.87341" lon="4.71184">
        <ele>208.74</ele>
        <time>2014-01-11T13:38:29Z</time>
      </trkpt>
      <trkpt lat="45.87353" lon="4.71185">
        <ele>209.22</ele>
        <time>2014-01-11T13:38:34Z</time>
      </trkpt>
      <trkpt lat="45.87355" lon="4.71185">
        <ele>208.74</ele>
        <time>2014-01-11T13:38:40Z</time>
      </trkpt>
      <trkpt lat="45.87356" lon="4.71185">
        <ele>208.74</ele>
        <time>2014-01-11T13:38:41Z</time>
      </trkpt>
      <trkpt lat="45.87358" lon="4.71184">
        <ele>208.26</ele>
        <time>2014-01-11T13:38:42Z</time>
      </trkpt>
      <trkpt lat="45.87358" lon="4.71182">
        <ele>208.26</ele>
        <time>2014-01-11T13:38:43Z</time>
      </trkpt>
      <trkpt lat="45.87358" lon="4.71181">
        <ele>209.22</ele>
        <time>2014-01-11T13:38:44Z</time>
      </trkpt>
      <trkpt lat="45.87358" lon="4.71179">
        <ele>208.74</ele>
        <time>2014-01-11T13:38:45Z</time>
      </trkpt>
      <trkpt lat="45.87359" lon="4.71176">
        <ele>208.74</ele>
        <time>2014-01-11T13:38:46Z</time>
      </trkpt>
      <trkpt lat="45.87359" lon="4.71174">
        <ele>209.7</ele>
        <time>2014-01-11T13:38:47Z</time>
      </trkpt>
      <trkpt lat="45.87361" lon="4.71169">
        <ele>209.7</ele>
        <time>2014-01-11T13:38:49Z</time>
      </trkpt>
      <trkpt lat="45.87363" lon="4.71166">
        <ele>210.19</ele>
        <time>2014-01-11T13:38:50Z</time>
      </trkpt>
      <trkpt lat="45.87365" lon="4.71165">
        <ele>210.19</ele>
        <time>2014-01-11T13:38:51Z</time>
      </trkpt>
      <trkpt lat="45.87368" lon="4.71163">
        <ele>210.19</ele>
        <time>2014-01-11T13:38:52Z</time>
      </trkpt>
      <trkpt lat="45.87371" lon="4.71162">
        <ele>210.19</ele>
        <time>2014-01-11T13:38:53Z</time>
      </trkpt>
      <trkpt lat="45.87374" lon="4.71161">
        <ele>210.67</ele>
        <time>2014-01-11T13:38:54Z</time>
      </trkpt>
      <trkpt lat="45.87376" lon="4.7116">
        <ele>210.19</ele>
        <time>2014-01-11T13:38:55Z</time>
      </trkpt>
      <trkpt lat="45.8741" lon="4.71146">
        <ele>212.59</ele>
        <time>2014-01-11T13:39:08Z</time>
      </trkpt>
      <trkpt lat="45.87428" lon="4.71113">
        <ele>214.03</ele>
        <time>2014-01-11T13:39:18Z</time>
      </trkpt>
      <trkpt lat="45.87445" lon="4.71073">
        <ele>213.55</ele>
        <time>2014-01-11T13:39:28Z</time>
      </trkpt>
      <trkpt lat="45.8748" lon="4.71008">
        <ele>213.07</ele>
        <time>2014-01-11T13:39:41Z</time>
      </trkpt>
      <trkpt lat="45.87494" lon="4.70971">
        <ele>212.59</ele>
        <time>2014-01-11T13:39:50Z</time>
      </trkpt>
      <trkpt lat="45.87513" lon="4.7095">
        <ele>214.51</ele>
        <time>2014-01-11T13:39:57Z</time>
      </trkpt>
      <trkpt lat="45.87547" lon="4.70914">
        <ele>215.47</ele>
        <time>2014-01-11T13:40:09Z</time>
      </trkpt>
      <trkpt lat="45.87595" lon="4.70855">
        <ele>215.95</ele>
        <time>2014-01-11T13:40:24Z</time>
      </trkpt>
      <trkpt lat="45.87632" lon="4.70784">
        <ele>215.95</ele>
        <time>2014-01-11T13:40:38Z</time>
      </trkpt>
      <trkpt lat="45.8766" lon="4.70699">
        <ele>216.43</ele>
        <time>2014-01-11T13:40:53Z</time>
      </trkpt>
      <trkpt lat="45.87687" lon="4.7065">
        <ele>216.43</ele>
        <time>2014-01-11T13:41:03Z</time>
      </trkpt>
      <trkpt lat="45.87719" lon="4.70595">
        <ele>218.36</ele>
        <time>2014-01-11T13:41:15Z</time>
      </trkpt>
      <trkpt lat="45.87721" lon="4.7059">
        <ele>217.4</ele>
        <time>2014-01-11T13:41:16Z</time>
      </trkpt>
      <trkpt lat="45.87724" lon="4.70585">
        <ele>217.88</ele>
        <time>2014-01-11T13:41:17Z</time>
      </trkpt>
      <trkpt lat="45.87759" lon="4.70527">
        <ele>217.88</ele>
        <time>2014-01-11T13:41:29Z</time>
      </trkpt>
      <trkpt lat="45.87795" lon="4.70458">
        <ele>219.8</ele>
        <time>2014-01-11T13:41:43Z</time>
      </trkpt>
      <trkpt lat="45.87814" lon="4.70398">
        <ele>220.76</ele>
        <time>2014-01-11T13:41:55Z</time>
      </trkpt>
      <trkpt lat="45.87835" lon="4.70379">
        <ele>221.72</ele>
        <time>2014-01-11T13:42:02Z</time>
      </trkpt>
      <trkpt lat="45.87873" lon="4.70373">
        <ele>223.64</ele>
        <time>2014-01-11T13:42:14Z</time>
      </trkpt>
      <trkpt lat="45.87911" lon="4.7037">
        <ele>227.01</ele>
        <time>2014-01-11T13:42:28Z</time>
      </trkpt>
      <trkpt lat="45.87939" lon="4.7037">
        <ele>229.89</ele>
        <time>2014-01-11T13:42:41Z</time>
      </trkpt>
      <trkpt lat="45.87946" lon="4.7037">
        <ele>229.89</ele>
        <time>2014-01-11T13:42:45Z</time>
      </trkpt>
      <trkpt lat="45.87948" lon="4.70368">
        <ele>230.37</ele>
        <time>2014-01-11T13:42:46Z</time>
      </trkpt>
      <trkpt lat="45.87949" lon="4.70366">
        <ele>230.37</ele>
        <time>2014-01-11T13:42:47Z</time>
      </trkpt>
      <trkpt lat="45.8795" lon="4.70363">
        <ele>229.89</ele>
        <time>2014-01-11T13:42:48Z</time>
      </trkpt>
      <trkpt lat="45.8795" lon="4.7036">
        <ele>230.37</ele>
        <time>2014-01-11T13:42:49Z</time>
      </trkpt>
      <trkpt lat="45.8795" lon="4.70357">
        <ele>230.37</ele>
        <time>2014-01-11T13:42:50Z</time>
      </trkpt>
      <trkpt lat="45.87957" lon="4.70313">
        <ele>231.81</ele>
        <time>2014-01-11T13:43:04Z</time>
      </trkpt>
      <trkpt lat="45.87964" lon="4.70263">
        <ele>231.81</ele>
        <time>2014-01-11T13:43:17Z</time>
      </trkpt>
      <trkpt lat="45.87971" lon="4.70239">
        <ele>232.3</ele>
        <time>2014-01-11T13:43:22Z</time>
      </trkpt>
      <trkpt lat="45.87974" lon="4.70234">
        <ele>232.3</ele>
        <time>2014-01-11T13:43:23Z</time>
      </trkpt>
      <trkpt lat="45.87983" lon="4.7022">
        <ele>232.3</ele>
        <time>2014-01-11T13:43:26Z</time>
      </trkpt>
      <trkpt lat="45.88004" lon="4.70201">
        <ele>231.81</ele>
        <time>2014-01-11T13:43:31Z</time>
      </trkpt>
      <trkpt lat="45.88009" lon="4.70197">
        <ele>231.33</ele>
        <time>2014-01-11T13:43:32Z</time>
      </trkpt>
      <trkpt lat="45.88014" lon="4.70194">
        <ele>231.33</ele>
        <time>2014-01-11T13:43:33Z</time>
      </trkpt>
      <trkpt lat="45.88018" lon="4.7019">
        <ele>231.33</ele>
        <time>2014-01-11T13:43:34Z</time>
      </trkpt>
      <trkpt lat="45.88022" lon="4.70185">
        <ele>230.85</ele>
        <time>2014-01-11T13:43:35Z</time>
      </trkpt>
      <trkpt lat="45.88025" lon="4.7018">
        <ele>230.85</ele>
        <time>2014-01-11T13:43:36Z</time>
      </trkpt>
      <trkpt lat="45.88028" lon="4.70174">
        <ele>230.37</ele>
        <time>2014-01-11T13:43:37Z</time>
      </trkpt>
      <trkpt lat="45.88031" lon="4.70169">
        <ele>230.85</ele>
        <time>2014-01-11T13:43:38Z</time>
      </trkpt>
      <trkpt lat="45.88033" lon="4.70163">
        <ele>230.85</ele>
        <time>2014-01-11T13:43:39Z</time>
      </trkpt>
      <trkpt lat="45.88042" lon="4.7014">
        <ele>230.37</ele>
        <time>2014-01-11T13:43:43Z</time>
      </trkpt>
      <trkpt lat="45.88045" lon="4.70135">
        <ele>230.85</ele>
        <time>2014-01-11T13:43:44Z</time>
      </trkpt>
      <trkpt lat="45.88069" lon="4.70098">
        <ele>232.3</ele>
        <time>2014-01-11T13:43:54Z</time>
      </trkpt>
      <trkpt lat="45.88082" lon="4.70061">
        <ele>235.66</ele>
        <time>2014-01-11T13:44:05Z</time>
      </trkpt>
      <trkpt lat="45.88084" lon="4.70052">
        <ele>236.14</ele>
        <time>2014-01-11T13:44:08Z</time>
      </trkpt>
      <trkpt lat="45.88084" lon="4.70049">
        <ele>236.14</ele>
        <time>2014-01-11T13:44:09Z</time>
      </trkpt>
      <trkpt lat="45.88085" lon="4.70046">
        <ele>236.14</ele>
        <time>2014-01-11T13:44:10Z</time>
      </trkpt>
      <trkpt lat="45.88086" lon="4.70043">
        <ele>236.62</ele>
        <time>2014-01-11T13:44:11Z</time>
      </trkpt>
      <trkpt lat="45.88087" lon="4.7004">
        <ele>236.62</ele>
        <time>2014-01-11T13:44:12Z</time>
      </trkpt>
      <trkpt lat="45.88087" lon="4.70038">
        <ele>236.62</ele>
        <time>2014-01-11T13:44:13Z</time>
      </trkpt>
      <trkpt lat="45.88088" lon="4.70035">
        <ele>236.62</ele>
        <time>2014-01-11T13:44:14Z</time>
      </trkpt>
      <trkpt lat="45.8809" lon="4.70032">
        <ele>237.58</ele>
        <time>2014-01-11T13:44:15Z</time>
      </trkpt>
      <trkpt lat="45.8809" lon="4.7003">
        <ele>237.58</ele>
        <time>2014-01-11T13:44:16Z</time>
      </trkpt>
      <trkpt lat="45.88091" lon="4.70027">
        <ele>237.1</ele>
        <time>2014-01-11T13:44:17Z</time>
      </trkpt>
      <trkpt lat="45.88097" lon="4.70001">
        <ele>239.51</ele>
        <time>2014-01-11T13:44:27Z</time>
      </trkpt>
      <trkpt lat="45.88097" lon="4.69999">
        <ele>239.02</ele>
        <time>2014-01-11T13:44:28Z</time>
      </trkpt>
      <trkpt lat="45.88097" lon="4.69996">
        <ele>239.51</ele>
        <time>2014-01-11T13:44:29Z</time>
      </trkpt>
      <trkpt lat="45.88097" lon="4.69994">
        <ele>239.99</ele>
        <time>2014-01-11T13:44:30Z</time>
      </trkpt>
      <trkpt lat="45.88097" lon="4.69991">
        <ele>239.51</ele>
        <time>2014-01-11T13:44:31Z</time>
      </trkpt>
      <trkpt lat="45.88099" lon="4.69957">
        <ele>241.43</ele>
        <time>2014-01-11T13:44:42Z</time>
      </trkpt>
      <trkpt lat="45.88101" lon="4.69917">
        <ele>243.35</ele>
        <time>2014-01-11T13:44:55Z</time>
      </trkpt>
      <trkpt lat="45.88105" lon="4.6987">
        <ele>246.23</ele>
        <time>2014-01-11T13:45:11Z</time>
      </trkpt>
      <trkpt lat="45.8811" lon="4.69842">
        <ele>247.68</ele>
        <time>2014-01-11T13:45:23Z</time>
      </trkpt>
      <trkpt lat="45.88118" lon="4.69804">
        <ele>250.08</ele>
        <time>2014-01-11T13:45:38Z</time>
      </trkpt>
      <trkpt lat="45.88124" lon="4.69763">
        <ele>251.04</ele>
        <time>2014-01-11T13:45:51Z</time>
      </trkpt>
      <trkpt lat="45.88138" lon="4.69703">
        <ele>252</ele>
        <time>2014-01-11T13:46:07Z</time>
      </trkpt>
      <trkpt lat="45.88148" lon="4.69654">
        <ele>252.96</ele>
        <time>2014-01-11T13:46:19Z</time>
      </trkpt>
      <trkpt lat="45.88157" lon="4.69599">
        <ele>254.41</ele>
        <time>2014-01-11T13:46:33Z</time>
      </trkpt>
      <trkpt lat="45.88163" lon="4.69546">
        <ele>257.29</ele>
        <time>2014-01-11T13:46:48Z</time>
      </trkpt>
      <trkpt lat="45.88168" lon="4.69502">
        <ele>258.25</ele>
        <time>2014-01-11T13:47:02Z</time>
      </trkpt>
      <trkpt lat="45.88172" lon="4.69462">
        <ele>261.14</ele>
        <time>2014-01-11T13:47:16Z</time>
      </trkpt>
      <trkpt lat="45.88177" lon="4.69424">
        <ele>263.06</ele>
        <time>2014-01-11T13:47:30Z</time>
      </trkpt>
      <trkpt lat="45.88184" lon="4.69385">
        <ele>264.98</ele>
        <time>2014-01-11T13:47:45Z</time>
      </trkpt>
      <trkpt lat="45.88192" lon="4.69352">
        <ele>267.38</ele>
        <time>2014-01-11T13:47:58Z</time>
      </trkpt>
      <trkpt lat="45.88198" lon="4.69319">
        <ele>268.83</ele>
        <time>2014-01-11T13:48:11Z</time>
      </trkpt>
      <trkpt lat="45.88206" lon="4.69285">
        <ele>270.75</ele>
        <time>2014-01-11T13:48:25Z</time>
      </trkpt>
      <trkpt lat="45.88209" lon="4.69282">
        <ele>271.71</ele>
        <time>2014-01-11T13:48:33Z</time>
      </trkpt>
      <trkpt lat="45.8821" lon="4.69281">
        <ele>269.79</ele>
        <time>2014-01-11T13:48:43Z</time>
      </trkpt>
      <trkpt lat="45.8821" lon="4.6928">
        <ele>270.27</ele>
        <time>2014-01-11T13:48:59Z</time>
      </trkpt>
      <trkpt lat="45.8821" lon="4.6928">
        <ele>270.75</ele>
        <time>2014-01-11T13:49:16Z</time>
      </trkpt>
      <trkpt lat="45.8821" lon="4.6928">
        <ele>270.27</ele>
        <time>2014-01-11T13:49:33Z</time>
      </trkpt>
      <trkpt lat="45.88211" lon="4.69279">
        <ele>270.27</ele>
        <time>2014-01-11T13:50:01Z</time>
      </trkpt>
      <trkpt lat="45.88211" lon="4.69278">
        <ele>269.79</ele>
        <time>2014-01-11T13:50:32Z</time>
      </trkpt>
      <trkpt lat="45.88211" lon="4.69278">
        <ele>270.75</ele>
        <time>2014-01-11T13:50:56Z</time>
      </trkpt>
      <trkpt lat="45.88211" lon="4.69279">
        <ele>271.71</ele>
        <time>2014-01-11T13:51:15Z</time>
      </trkpt>
      <trkpt lat="45.8821" lon="4.69279">
        <ele>271.71</ele>
        <time>2014-01-11T13:51:27Z</time>
      </trkpt>
      <trkpt lat="45.88211" lon="4.69275">
        <ele>272.19</ele>
        <time>2014-01-11T13:51:32Z</time>
      </trkpt>
      <trkpt lat="45.88211" lon="4.69273">
        <ele>272.19</ele>
        <time>2014-01-11T13:51:33Z</time>
      </trkpt>
      <trkpt lat="45.88212" lon="4.69271">
        <ele>272.67</ele>
        <time>2014-01-11T13:51:34Z</time>
      </trkpt>
      <trkpt lat="45.88213" lon="4.6927">
        <ele>272.67</ele>
        <time>2014-01-11T13:51:35Z</time>
      </trkpt>
      <trkpt lat="45.88215" lon="4.69268">
        <ele>272.67</ele>
        <time>2014-01-11T13:51:36Z</time>
      </trkpt>
      <trkpt lat="45.88235" lon="4.69239">
        <ele>274.59</ele>
        <time>2014-01-11T13:51:50Z</time>
      </trkpt>
      <trkpt lat="45.88257" lon="4.69197">
        <ele>277</ele>
        <time>2014-01-11T13:52:05Z</time>
      </trkpt>
      <trkpt lat="45.88274" lon="4.69164">
        <ele>279.4</ele>
        <time>2014-01-11T13:52:18Z</time>
      </trkpt>
      <trkpt lat="45.88281" lon="4.69149">
        <ele>280.84</ele>
        <time>2014-01-11T13:52:24Z</time>
      </trkpt>
      <trkpt lat="45.88296" lon="4.69106">
        <ele>282.28</ele>
        <time>2014-01-11T13:52:40Z</time>
      </trkpt>
      <trkpt lat="45.88308" lon="4.69066">
        <ele>283.73</ele>
        <time>2014-01-11T13:52:54Z</time>
      </trkpt>
      <trkpt lat="45.8832" lon="4.69031">
        <ele>286.61</ele>
        <time>2014-01-11T13:53:07Z</time>
      </trkpt>
      <trkpt lat="45.88324" lon="4.69021">
        <ele>286.13</ele>
        <time>2014-01-11T13:53:11Z</time>
      </trkpt>
      <trkpt lat="45.88332" lon="4.68989">
        <ele>288.53</ele>
        <time>2014-01-11T13:53:23Z</time>
      </trkpt>
      <trkpt lat="45.88337" lon="4.68954">
        <ele>290.46</ele>
        <time>2014-01-11T13:53:36Z</time>
      </trkpt>
      <trkpt lat="45.88341" lon="4.68918">
        <ele>292.86</ele>
        <time>2014-01-11T13:53:52Z</time>
      </trkpt>
      <trkpt lat="45.88344" lon="4.68888">
        <ele>294.78</ele>
        <time>2014-01-11T13:54:05Z</time>
      </trkpt>
      <trkpt lat="45.88346" lon="4.6886">
        <ele>297.18</ele>
        <time>2014-01-11T13:54:17Z</time>
      </trkpt>
      <trkpt lat="45.88349" lon="4.68838">
        <ele>299.11</ele>
        <time>2014-01-11T13:54:27Z</time>
      </trkpt>
      <trkpt lat="45.8835" lon="4.68837">
        <ele>297.67</ele>
        <time>2014-01-11T13:54:28Z</time>
      </trkpt>
      <trkpt lat="45.88351" lon="4.68836">
        <ele>298.63</ele>
        <time>2014-01-11T13:54:29Z</time>
      </trkpt>
      <trkpt lat="45.88352" lon="4.68835">
        <ele>298.63</ele>
        <time>2014-01-11T13:54:30Z</time>
      </trkpt>
      <trkpt lat="45.88354" lon="4.68835">
        <ele>298.63</ele>
        <time>2014-01-11T13:54:31Z</time>
      </trkpt>
      <trkpt lat="45.88356" lon="4.68834">
        <ele>298.63</ele>
        <time>2014-01-11T13:54:32Z</time>
      </trkpt>
      <trkpt lat="45.88383" lon="4.68821">
        <ele>298.63</ele>
        <time>2014-01-11T13:54:46Z</time>
      </trkpt>
      <trkpt lat="45.88397" lon="4.68793">
        <ele>300.07</ele>
        <time>2014-01-11T13:54:58Z</time>
      </trkpt>
      <trkpt lat="45.88397" lon="4.68791">
        <ele>299.11</ele>
        <time>2014-01-11T13:54:59Z</time>
      </trkpt>
      <trkpt lat="45.88396" lon="4.68788">
        <ele>300.07</ele>
        <time>2014-01-11T13:55:00Z</time>
      </trkpt>
      <trkpt lat="45.88395" lon="4.68786">
        <ele>299.11</ele>
        <time>2014-01-11T13:55:01Z</time>
      </trkpt>
      <trkpt lat="45.88394" lon="4.68784">
        <ele>300.55</ele>
        <time>2014-01-11T13:55:02Z</time>
      </trkpt>
      <trkpt lat="45.88395" lon="4.68757">
        <ele>301.99</ele>
        <time>2014-01-11T13:55:13Z</time>
      </trkpt>
      <trkpt lat="45.88387" lon="4.68732">
        <ele>303.91</ele>
        <time>2014-01-11T13:55:26Z</time>
      </trkpt>
      <trkpt lat="45.88372" lon="4.68716">
        <ele>306.8</ele>
        <time>2014-01-11T13:55:37Z</time>
      </trkpt>
      <trkpt lat="45.88353" lon="4.68696">
        <ele>306.8</ele>
        <time>2014-01-11T13:55:51Z</time>
      </trkpt>
      <trkpt lat="45.88333" lon="4.68676">
        <ele>309.2</ele>
        <time>2014-01-11T13:56:05Z</time>
      </trkpt>
      <trkpt lat="45.88316" lon="4.68659">
        <ele>312.57</ele>
        <time>2014-01-11T13:56:18Z</time>
      </trkpt>
      <trkpt lat="45.88296" lon="4.68641">
        <ele>314.49</ele>
        <time>2014-01-11T13:56:33Z</time>
      </trkpt>
      <trkpt lat="45.88277" lon="4.68625">
        <ele>317.37</ele>
        <time>2014-01-11T13:56:47Z</time>
      </trkpt>
      <trkpt lat="45.88255" lon="4.68612">
        <ele>320.26</ele>
        <time>2014-01-11T13:57:02Z</time>
      </trkpt>
      <trkpt lat="45.88237" lon="4.68604">
        <ele>322.66</ele>
        <time>2014-01-11T13:57:15Z</time>
      </trkpt>
      <trkpt lat="45.88217" lon="4.68595">
        <ele>324.1</ele>
        <time>2014-01-11T13:57:28Z</time>
      </trkpt>
      <trkpt lat="45.88195" lon="4.68588">
        <ele>325.06</ele>
        <time>2014-01-11T13:57:41Z</time>
      </trkpt>
      <trkpt lat="45.88172" lon="4.6858">
        <ele>327.95</ele>
        <time>2014-01-11T13:57:56Z</time>
      </trkpt>
      <trkpt lat="45.88148" lon="4.68572">
        <ele>329.39</ele>
        <time>2014-01-11T13:58:11Z</time>
      </trkpt>
      <trkpt lat="45.88126" lon="4.68565">
        <ele>330.83</ele>
        <time>2014-01-11T13:58:24Z</time>
      </trkpt>
      <trkpt lat="45.88108" lon="4.68559">
        <ele>332.75</ele>
        <time>2014-01-11T13:58:35Z</time>
      </trkpt>
      <trkpt lat="45.88089" lon="4.6855">
        <ele>335.16</ele>
        <time>2014-01-11T13:58:48Z</time>
      </trkpt>
      <trkpt lat="45.88072" lon="4.68545">
        <ele>336.6</ele>
        <time>2014-01-11T13:58:59Z</time>
      </trkpt>
      <trkpt lat="45.88054" lon="4.68541">
        <ele>338.04</ele>
        <time>2014-01-11T13:59:11Z</time>
      </trkpt>
      <trkpt lat="45.88035" lon="4.68537">
        <ele>339.48</ele>
        <time>2014-01-11T13:59:24Z</time>
      </trkpt>
      <trkpt lat="45.88014" lon="4.68533">
        <ele>340.92</ele>
        <time>2014-01-11T13:59:36Z</time>
      </trkpt>
      <trkpt lat="45.87988" lon="4.6853">
        <ele>342.85</ele>
        <time>2014-01-11T13:59:50Z</time>
      </trkpt>
      <trkpt lat="45.87964" lon="4.6853">
        <ele>343.81</ele>
        <time>2014-01-11T14:00:01Z</time>
      </trkpt>
      <trkpt lat="45.87931" lon="4.68536">
        <ele>342.85</ele>
        <time>2014-01-11T14:00:13Z</time>
      </trkpt>
      <trkpt lat="45.87901" lon="4.68534">
        <ele>344.77</ele>
        <time>2014-01-11T14:00:24Z</time>
      </trkpt>
      <trkpt lat="45.87877" lon="4.68525">
        <ele>345.25</ele>
        <time>2014-01-11T14:00:36Z</time>
      </trkpt>
      <trkpt lat="45.87856" lon="4.68516">
        <ele>348.13</ele>
        <time>2014-01-11T14:00:47Z</time>
      </trkpt>
      <trkpt lat="45.8783" lon="4.68506">
        <ele>349.58</ele>
        <time>2014-01-11T14:01:01Z</time>
      </trkpt>
      <trkpt lat="45.87807" lon="4.68494">
        <ele>350.54</ele>
        <time>2014-01-11T14:01:14Z</time>
      </trkpt>
      <trkpt lat="45.8778" lon="4.6848">
        <ele>351.5</ele>
        <time>2014-01-11T14:01:28Z</time>
      </trkpt>
      <trkpt lat="45.8776" lon="4.68468">
        <ele>352.94</ele>
        <time>2014-01-11T14:01:40Z</time>
      </trkpt>
      <trkpt lat="45.87741" lon="4.68457">
        <ele>354.38</ele>
        <time>2014-01-11T14:01:53Z</time>
      </trkpt>
      <trkpt lat="45.87724" lon="4.68447">
        <ele>355.83</ele>
        <time>2014-01-11T14:02:04Z</time>
      </trkpt>
      <trkpt lat="45.877" lon="4.68434">
        <ele>357.75</ele>
        <time>2014-01-11T14:02:19Z</time>
      </trkpt>
      <trkpt lat="45.87678" lon="4.68423">
        <ele>360.15</ele>
        <time>2014-01-11T14:02:32Z</time>
      </trkpt>
      <trkpt lat="45.87657" lon="4.68413">
        <ele>362.07</ele>
        <time>2014-01-11T14:02:45Z</time>
      </trkpt>
      <trkpt lat="45.87637" lon="4.68402">
        <ele>364.96</ele>
        <time>2014-01-11T14:02:59Z</time>
      </trkpt>
      <trkpt lat="45.87622" lon="4.68393">
        <ele>365.92</ele>
        <time>2014-01-11T14:03:11Z</time>
      </trkpt>
      <trkpt lat="45.87621" lon="4.68392">
        <ele>367.36</ele>
        <time>2014-01-11T14:03:12Z</time>
      </trkpt>
      <trkpt lat="45.87621" lon="4.68391">
        <ele>366.4</ele>
        <time>2014-01-11T14:03:13Z</time>
      </trkpt>
      <trkpt lat="45.87621" lon="4.68389">
        <ele>365.92</ele>
        <time>2014-01-11T14:03:14Z</time>
      </trkpt>
      <trkpt lat="45.87621" lon="4.68387">
        <ele>365.92</ele>
        <time>2014-01-11T14:03:15Z</time>
      </trkpt>
      <trkpt lat="45.87622" lon="4.68386">
        <ele>365.92</ele>
        <time>2014-01-11T14:03:16Z</time>
      </trkpt>
      <trkpt lat="45.87623" lon="4.68386">
        <ele>366.88</ele>
        <time>2014-01-11T14:03:17Z</time>
      </trkpt>
      <trkpt lat="45.87624" lon="4.68386">
        <ele>366.4</ele>
        <time>2014-01-11T14:03:18Z</time>
      </trkpt>
      <trkpt lat="45.87628" lon="4.68389">
        <ele>367.36</ele>
        <time>2014-01-11T14:03:28Z</time>
      </trkpt>
      <trkpt lat="45.87629" lon="4.6839">
        <ele>366.88</ele>
        <time>2014-01-11T14:03:39Z</time>
      </trkpt>
      <trkpt lat="45.87629" lon="4.68388">
        <ele>366.4</ele>
        <time>2014-01-11T14:03:53Z</time>
      </trkpt>
      <trkpt lat="45.8763" lon="4.68388">
        <ele>366.88</ele>
        <time>2014-01-11T14:04:06Z</time>
      </trkpt>
      <trkpt lat="45.8763" lon="4.68387">
        <ele>366.88</ele>
        <time>2014-01-11T14:04:20Z</time>
      </trkpt>
      <trkpt lat="45.8763" lon="4.68387">
        <ele>366.4</ele>
        <time>2014-01-11T14:04:43Z</time>
      </trkpt>
      <trkpt lat="45.87631" lon="4.68386">
        <ele>366.88</ele>
        <time>2014-01-11T14:05:00Z</time>
      </trkpt>
      <trkpt lat="45.87631" lon="4.68386">
        <ele>366.88</ele>
        <time>2014-01-11T14:05:22Z</time>
      </trkpt>
      <trkpt lat="45.87631" lon="4.68386">
        <ele>366.88</ele>
        <time>2014-01-11T14:05:34Z</time>
      </trkpt>
      <trkpt lat="45.87631" lon="4.68386">
        <ele>366.88</ele>
        <time>2014-01-11T14:05:50Z</time>
      </trkpt>
      <trkpt lat="45.8763" lon="4.68385">
        <ele>367.36</ele>
        <time>2014-01-11T14:06:04Z</time>
      </trkpt>
      <trkpt lat="45.8763" lon="4.68385">
        <ele>366.88</ele>
        <time>2014-01-11T14:06:26Z</time>
      </trkpt>
      <trkpt lat="45.8763" lon="4.68385">
        <ele>367.36</ele>
        <time>2014-01-11T14:06:43Z</time>
      </trkpt>
      <trkpt lat="45.8763" lon="4.68385">
        <ele>367.36</ele>
        <time>2014-01-11T14:07:08Z</time>
      </trkpt>
      <trkpt lat="45.8763" lon="4.68385">
        <ele>367.36</ele>
        <time>2014-01-11T14:07:34Z</time>
      </trkpt>
      <trkpt lat="45.8763" lon="4.68385">
        <ele>367.36</ele>
        <time>2014-01-11T14:07:58Z</time>
      </trkpt>
      <trkpt lat="45.8763" lon="4.68384">
        <ele>367.36</ele>
        <time>2014-01-11T14:08:19Z</time>
      </trkpt>
      <trkpt lat="45.8763" lon="4.68384">
        <ele>367.36</ele>
        <time>2014-01-11T14:08:42Z</time>
      </trkpt>
      <trkpt lat="45.8763" lon="4.68385">
        <ele>367.36</ele>
        <time>2014-01-11T14:08:55Z</time>
      </trkpt>
      <trkpt lat="45.87628" lon="4.68386">
        <ele>366.88</ele>
        <time>2014-01-11T14:09:09Z</time>
      </trkpt>
      <trkpt lat="45.87628" lon="4.68386">
        <ele>366.88</ele>
        <time>2014-01-11T14:09:25Z</time>
      </trkpt>
      <trkpt lat="45.87629" lon="4.68386">
        <ele>367.36</ele>
        <time>2014-01-11T14:09:38Z</time>
      </trkpt>
      <trkpt lat="45.87629" lon="4.68386">
        <ele>366.88</ele>
        <time>2014-01-11T14:10:08Z</time>
      </trkpt>
      <trkpt lat="45.87629" lon="4.68387">
        <ele>366.88</ele>
        <time>2014-01-11T14:10:37Z</time>
      </trkpt>
      <trkpt lat="45.87629" lon="4.68387">
        <ele>366.88</ele>
        <time>2014-01-11T14:11:03Z</time>
      </trkpt>
      <trkpt lat="45.87629" lon="4.68387">
        <ele>366.88</ele>
        <time>2014-01-11T14:11:22Z</time>
      </trkpt>
      <trkpt lat="45.87629" lon="4.68389">
        <ele>367.84</ele>
        <time>2014-01-11T14:11:41Z</time>
      </trkpt>
      <trkpt lat="45.87629" lon="4.68389">
        <ele>367.84</ele>
        <time>2014-01-11T14:11:54Z</time>
      </trkpt>
      <trkpt lat="45.87629" lon="4.68389">
        <ele>366.88</ele>
        <time>2014-01-11T14:12:08Z</time>
      </trkpt>
      <trkpt lat="45.87629" lon="4.68387">
        <ele>366.88</ele>
        <time>2014-01-11T14:12:18Z</time>
      </trkpt>
      <trkpt lat="45.8763" lon="4.68388">
        <ele>367.36</ele>
        <time>2014-01-11T14:12:35Z</time>
      </trkpt>
      <trkpt lat="45.8763" lon="4.68388">
        <ele>367.36</ele>
        <time>2014-01-11T14:12:57Z</time>
      </trkpt>
      <trkpt lat="45.8763" lon="4.68388">
        <ele>366.88</ele>
        <time>2014-01-11T14:13:17Z</time>
      </trkpt>
      <trkpt lat="45.8763" lon="4.68388">
        <ele>366.88</ele>
        <time>2014-01-11T14:13:28Z</time>
      </trkpt>
      <trkpt lat="45.8763" lon="4.68388">
        <ele>367.36</ele>
        <time>2014-01-11T14:13:52Z</time>
      </trkpt>
      <trkpt lat="45.8763" lon="4.68388">
        <ele>367.36</ele>
        <time>2014-01-11T14:14:16Z</time>
      </trkpt>
      <trkpt lat="45.8763" lon="4.68388">
        <ele>366.88</ele>
        <time>2014-01-11T14:14:40Z</time>
      </trkpt>
      <trkpt lat="45.8763" lon="4.68388">
        <ele>366.88</ele>
        <time>2014-01-11T14:15:01Z</time>
      </trkpt>
      <trkpt lat="45.8763" lon="4.68388">
        <ele>365.92</ele>
        <time>2014-01-11T14:15:13Z</time>
      </trkpt>
      <trkpt lat="45.87629" lon="4.68388">
        <ele>365.92</ele>
        <time>2014-01-11T14:15:25Z</time>
      </trkpt>
      <trkpt lat="45.87629" lon="4.68388">
        <ele>366.4</ele>
        <time>2014-01-11T14:15:50Z</time>
      </trkpt>
      <trkpt lat="45.87629" lon="4.68388">
        <ele>365.92</ele>
        <time>2014-01-11T14:16:14Z</time>
      </trkpt>
      <trkpt lat="45.87629" lon="4.68388">
        <ele>366.4</ele>
        <time>2014-01-11T14:16:41Z</time>
      </trkpt>
      <trkpt lat="45.87629" lon="4.68388">
        <ele>366.4</ele>
        <time>2014-01-11T14:17:10Z</time>
      </trkpt>
      <trkpt lat="45.87629" lon="4.68388">
        <ele>365.92</ele>
        <time>2014-01-11T14:17:33Z</time>
      </trkpt>
      <trkpt lat="45.87629" lon="4.68387">
        <ele>365.92</ele>
        <time>2014-01-11T14:18:04Z</time>
      </trkpt>
      <trkpt lat="45.87629" lon="4.68387">
        <ele>365.92</ele>
        <time>2014-01-11T14:18:29Z</time>
      </trkpt>
      <trkpt lat="45.87629" lon="4.68387">
        <ele>366.4</ele>
        <time>2014-01-11T14:18:51Z</time>
      </trkpt>
      <trkpt lat="45.87629" lon="4.68387">
        <ele>366.4</ele>
        <time>2014-01-11T14:19:16Z</time>
      </trkpt>
      <trkpt lat="45.87629" lon="4.68387">
        <ele>365.92</ele>
        <time>2014-01-11T14:19:41Z</time>
      </trkpt>
      <trkpt lat="45.87629" lon="4.68387">
        <ele>365.92</ele>
        <time>2014-01-11T14:20:04Z</time>
      </trkpt>
      <trkpt lat="45.87629" lon="4.68387">
        <ele>365.92</ele>
        <time>2014-01-11T14:20:30Z</time>
      </trkpt>
      <trkpt lat="45.87629" lon="4.68386">
        <ele>366.4</ele>
        <time>2014-01-11T14:20:55Z</time>
      </trkpt>
      <trkpt lat="45.87629" lon="4.68386">
        <ele>365.44</ele>
        <time>2014-01-11T14:21:14Z</time>
      </trkpt>
      <trkpt lat="45.8763" lon="4.68386">
        <ele>365.92</ele>
        <time>2014-01-11T14:21:43Z</time>
      </trkpt>
      <trkpt lat="45.8763" lon="4.68386">
        <ele>365.92</ele>
        <time>2014-01-11T14:22:08Z</time>
      </trkpt>
      <trkpt lat="45.8763" lon="4.68386">
        <ele>365.44</ele>
        <time>2014-01-11T14:22:38Z</time>
      </trkpt>
      <trkpt lat="45.8763" lon="4.68386">
        <ele>365.92</ele>
        <time>2014-01-11T14:23:11Z</time>
      </trkpt>
      <trkpt lat="45.87629" lon="4.68386">
        <ele>365.92</ele>
        <time>2014-01-11T14:23:48Z</time>
      </trkpt>
      <trkpt lat="45.87629" lon="4.68386">
        <ele>365.92</ele>
        <time>2014-01-11T14:24:19Z</time>
      </trkpt>
      <trkpt lat="45.87629" lon="4.68386">
        <ele>366.4</ele>
        <time>2014-01-11T14:24:46Z</time>
      </trkpt>
      <trkpt lat="45.8763" lon="4.68386">
        <ele>366.88</ele>
        <time>2014-01-11T14:25:07Z</time>
      </trkpt>
      <trkpt lat="45.8763" lon="4.68386">
        <ele>367.36</ele>
        <time>2014-01-11T14:25:19Z</time>
      </trkpt>
      <trkpt lat="45.87629" lon="4.68386">
        <ele>366.88</ele>
        <time>2014-01-11T14:25:41Z</time>
      </trkpt>
      <trkpt lat="45.87629" lon="4.68384">
        <ele>367.36</ele>
        <time>2014-01-11T14:26:04Z</time>
      </trkpt>
      <trkpt lat="45.87629" lon="4.68384">
        <ele>367.36</ele>
        <time>2014-01-11T14:26:18Z</time>
      </trkpt>
      <trkpt lat="45.87629" lon="4.68386">
        <ele>367.36</ele>
        <time>2014-01-11T14:26:30Z</time>
      </trkpt>
      <trkpt lat="45.87629" lon="4.68386">
        <ele>366.4</ele>
        <time>2014-01-11T14:26:47Z</time>
      </trkpt>
      <trkpt lat="45.87628" lon="4.68385">
        <ele>366.4</ele>
        <time>2014-01-11T14:26:56Z</time>
      </trkpt>
      <trkpt lat="45.87629" lon="4.68385">
        <ele>366.4</ele>
        <time>2014-01-11T14:27:08Z</time>
      </trkpt>
      <trkpt lat="45.87631" lon="4.68386">
        <ele>367.36</ele>
        <time>2014-01-11T14:27:26Z</time>
      </trkpt>
      <trkpt lat="45.87631" lon="4.68386">
        <ele>366.88</ele>
        <time>2014-01-11T14:27:45Z</time>
      </trkpt>
      <trkpt lat="45.87631" lon="4.68386">
        <ele>367.36</ele>
        <time>2014-01-11T14:28:01Z</time>
      </trkpt>
      <trkpt lat="45.87631" lon="4.68387">
        <ele>366.88</ele>
        <time>2014-01-11T14:28:19Z</time>
      </trkpt>
      <trkpt lat="45.87632" lon="4.68385">
        <ele>366.88</ele>
        <time>2014-01-11T14:28:35Z</time>
      </trkpt>
      <trkpt lat="45.87643" lon="4.68383">
        <ele>367.84</ele>
        <time>2014-01-11T14:28:45Z</time>
      </trkpt>
      <trkpt lat="45.87667" lon="4.6838">
        <ele>368.8</ele>
        <time>2014-01-11T14:28:58Z</time>
      </trkpt>
      <trkpt lat="45.87697" lon="4.68377">
        <ele>369.28</ele>
        <time>2014-01-11T14:29:10Z</time>
      </trkpt>
      <trkpt lat="45.8774" lon="4.68364">
        <ele>370.24</ele>
        <time>2014-01-11T14:29:24Z</time>
      </trkpt>
      <trkpt lat="45.87771" lon="4.68346">
        <ele>372.17</ele>
        <time>2014-01-11T14:29:36Z</time>
      </trkpt>
      <trkpt lat="45.87799" lon="4.68334">
        <ele>375.05</ele>
        <time>2014-01-11T14:29:49Z</time>
      </trkpt>
      <trkpt lat="45.87824" lon="4.6832">
        <ele>376.49</ele>
        <time>2014-01-11T14:30:02Z</time>
      </trkpt>
      <trkpt lat="45.87846" lon="4.68307">
        <ele>376.97</ele>
        <time>2014-01-11T14:30:12Z</time>
      </trkpt>
      <trkpt lat="45.87874" lon="4.68294">
        <ele>378.9</ele>
        <time>2014-01-11T14:30:24Z</time>
      </trkpt>
      <trkpt lat="45.87907" lon="4.6828">
        <ele>379.38</ele>
        <time>2014-01-11T14:30:36Z</time>
      </trkpt>
      <trkpt lat="45.87928" lon="4.68253">
        <ele>380.34</ele>
        <time>2014-01-11T14:30:45Z</time>
      </trkpt>
      <trkpt lat="45.87932" lon="4.68249">
        <ele>379.86</ele>
        <time>2014-01-11T14:30:47Z</time>
      </trkpt>
      <trkpt lat="45.87934" lon="4.68249">
        <ele>379.38</ele>
        <time>2014-01-11T14:30:48Z</time>
      </trkpt>
      <trkpt lat="45.87937" lon="4.68249">
        <ele>379.38</ele>
        <time>2014-01-11T14:30:49Z</time>
      </trkpt>
      <trkpt lat="45.87939" lon="4.68247">
        <ele>379.38</ele>
        <time>2014-01-11T14:30:50Z</time>
      </trkpt>
      <trkpt lat="45.87941" lon="4.68244">
        <ele>379.86</ele>
        <time>2014-01-11T14:30:51Z</time>
      </trkpt>
      <trkpt lat="45.87943" lon="4.6824">
        <ele>379.86</ele>
        <time>2014-01-11T14:30:52Z</time>
      </trkpt>
      <trkpt lat="45.87943" lon="4.68234">
        <ele>379.38</ele>
        <time>2014-01-11T14:30:54Z</time>
      </trkpt>
      <trkpt lat="45.87944" lon="4.68205">
        <ele>379.38</ele>
        <time>2014-01-11T14:31:06Z</time>
      </trkpt>
      <trkpt lat="45.87943" lon="4.68202">
        <ele>378.9</ele>
        <time>2014-01-11T14:31:14Z</time>
      </trkpt>
      <trkpt lat="45.87943" lon="4.68202">
        <ele>378.9</ele>
        <time>2014-01-11T14:31:20Z</time>
      </trkpt>
      <trkpt lat="45.87944" lon="4.68191">
        <ele>378.9</ele>
        <time>2014-01-11T14:31:25Z</time>
      </trkpt>
      <trkpt lat="45.87949" lon="4.68137">
        <ele>376.01</ele>
        <time>2014-01-11T14:31:35Z</time>
      </trkpt>
      <trkpt lat="45.87953" lon="4.68091">
        <ele>372.65</ele>
        <time>2014-01-11T14:31:40Z</time>
      </trkpt>
      <trkpt lat="45.87955" lon="4.6807">
        <ele>371.69</ele>
        <time>2014-01-11T14:31:42Z</time>
      </trkpt>
      <trkpt lat="45.87959" lon="4.68033">
        <ele>367.84</ele>
        <time>2014-01-11T14:31:46Z</time>
      </trkpt>
      <trkpt lat="45.87964" lon="4.67993">
        <ele>364.48</ele>
        <time>2014-01-11T14:31:51Z</time>
      </trkpt>
      <trkpt lat="45.87965" lon="4.67967">
        <ele>363.52</ele>
        <time>2014-01-11T14:31:55Z</time>
      </trkpt>
      <trkpt lat="45.87973" lon="4.6789">
        <ele>363.52</ele>
        <time>2014-01-11T14:32:08Z</time>
      </trkpt>
      <trkpt lat="45.87977" lon="4.67836">
        <ele>365.92</ele>
        <time>2014-01-11T14:32:19Z</time>
      </trkpt>
      <trkpt lat="45.87959" lon="4.67824">
        <ele>366.4</ele>
        <time>2014-01-11T14:32:27Z</time>
      </trkpt>
      <trkpt lat="45.87937" lon="4.67801">
        <ele>367.36</ele>
        <time>2014-01-11T14:32:36Z</time>
      </trkpt>
      <trkpt lat="45.87939" lon="4.67772">
        <ele>369.76</ele>
        <time>2014-01-11T14:32:46Z</time>
      </trkpt>
      <trkpt lat="45.87943" lon="4.67756">
        <ele>371.21</ele>
        <time>2014-01-11T14:32:52Z</time>
      </trkpt>
      <trkpt lat="45.87936" lon="4.67746">
        <ele>370.73</ele>
        <time>2014-01-11T14:32:57Z</time>
      </trkpt>
      <trkpt lat="45.87911" lon="4.67738">
        <ele>373.13</ele>
        <time>2014-01-11T14:33:10Z</time>
      </trkpt>
      <trkpt lat="45.87891" lon="4.67731">
        <ele>373.13</ele>
        <time>2014-01-11T14:33:19Z</time>
      </trkpt>
      <trkpt lat="45.87893" lon="4.67711">
        <ele>373.61</ele>
        <time>2014-01-11T14:33:26Z</time>
      </trkpt>
      <trkpt lat="45.87896" lon="4.67683">
        <ele>372.65</ele>
        <time>2014-01-11T14:33:31Z</time>
      </trkpt>
      <trkpt lat="45.87896" lon="4.67677">
        <ele>372.17</ele>
        <time>2014-01-11T14:33:32Z</time>
      </trkpt>
      <trkpt lat="45.87895" lon="4.67671">
        <ele>371.69</ele>
        <time>2014-01-11T14:33:33Z</time>
      </trkpt>
      <trkpt lat="45.87896" lon="4.67665">
        <ele>371.21</ele>
        <time>2014-01-11T14:33:34Z</time>
      </trkpt>
      <trkpt lat="45.87898" lon="4.6766">
        <ele>371.21</ele>
        <time>2014-01-11T14:33:35Z</time>
      </trkpt>
      <trkpt lat="45.879" lon="4.67654">
        <ele>370.73</ele>
        <time>2014-01-11T14:33:36Z</time>
      </trkpt>
      <trkpt lat="45.87903" lon="4.67649">
        <ele>371.21</ele>
        <time>2014-01-11T14:33:37Z</time>
      </trkpt>
      <trkpt lat="45.87907" lon="4.67645">
        <ele>371.21</ele>
        <time>2014-01-11T14:33:38Z</time>
      </trkpt>
      <trkpt lat="45.87911" lon="4.67641">
        <ele>370.73</ele>
        <time>2014-01-11T14:33:39Z</time>
      </trkpt>
      <trkpt lat="45.87918" lon="4.67632">
        <ele>370.24</ele>
        <time>2014-01-11T14:33:41Z</time>
      </trkpt>
      <trkpt lat="45.87921" lon="4.67625">
        <ele>369.76</ele>
        <time>2014-01-11T14:33:42Z</time>
      </trkpt>
      <trkpt lat="45.87924" lon="4.67618">
        <ele>369.28</ele>
        <time>2014-01-11T14:33:43Z</time>
      </trkpt>
      <trkpt lat="45.87925" lon="4.6761">
        <ele>369.76</ele>
        <time>2014-01-11T14:33:44Z</time>
      </trkpt>
      <trkpt lat="45.87927" lon="4.67602">
        <ele>369.28</ele>
        <time>2014-01-11T14:33:45Z</time>
      </trkpt>
      <trkpt lat="45.8793" lon="4.67583">
        <ele>369.76</ele>
        <time>2014-01-11T14:33:48Z</time>
      </trkpt>
      <trkpt lat="45.87959" lon="4.67518">
        <ele>369.28</ele>
        <time>2014-01-11T14:34:01Z</time>
      </trkpt>
      <trkpt lat="45.87971" lon="4.67495">
        <ele>367.84</ele>
        <time>2014-01-11T14:34:05Z</time>
      </trkpt>
      <trkpt lat="45.87987" lon="4.67462">
        <ele>364.48</ele>
        <time>2014-01-11T14:34:10Z</time>
      </trkpt>
      <trkpt lat="45.87991" lon="4.67455">
        <ele>364.48</ele>
        <time>2014-01-11T14:34:11Z</time>
      </trkpt>
      <trkpt lat="45.88002" lon="4.67431">
        <ele>360.15</ele>
        <time>2014-01-11T14:34:14Z</time>
      </trkpt>
      <trkpt lat="45.88021" lon="4.67392">
        <ele>356.31</ele>
        <time>2014-01-11T14:34:18Z</time>
      </trkpt>
      <trkpt lat="45.88035" lon="4.67358">
        <ele>354.86</ele>
        <time>2014-01-11T14:34:21Z</time>
      </trkpt>
      <trkpt lat="45.88072" lon="4.67274">
        <ele>355.34</ele>
        <time>2014-01-11T14:34:30Z</time>
      </trkpt>
      <trkpt lat="45.88079" lon="4.67249">
        <ele>356.79</ele>
        <time>2014-01-11T14:34:36Z</time>
      </trkpt>
      <trkpt lat="45.88085" lon="4.67226">
        <ele>360.63</ele>
        <time>2014-01-11T14:34:48Z</time>
      </trkpt>
      <trkpt lat="45.88091" lon="4.67206">
        <ele>362.07</ele>
        <time>2014-01-11T14:34:59Z</time>
      </trkpt>
      <trkpt lat="45.88095" lon="4.67186">
        <ele>365.44</ele>
        <time>2014-01-11T14:35:11Z</time>
      </trkpt>
      <trkpt lat="45.88095" lon="4.67184">
        <ele>365.44</ele>
        <time>2014-01-11T14:35:12Z</time>
      </trkpt>
      <trkpt lat="45.88096" lon="4.67179">
        <ele>365.92</ele>
        <time>2014-01-11T14:35:15Z</time>
      </trkpt>
      <trkpt lat="45.88101" lon="4.67165">
        <ele>368.8</ele>
        <time>2014-01-11T14:35:26Z</time>
      </trkpt>
      <trkpt lat="45.88103" lon="4.67162">
        <ele>369.28</ele>
        <time>2014-01-11T14:35:30Z</time>
      </trkpt>
      <trkpt lat="45.88105" lon="4.67161">
        <ele>369.76</ele>
        <time>2014-01-11T14:35:31Z</time>
      </trkpt>
      <trkpt lat="45.88106" lon="4.67161">
        <ele>370.24</ele>
        <time>2014-01-11T14:35:32Z</time>
      </trkpt>
      <trkpt lat="45.88109" lon="4.67157">
        <ele>370.73</ele>
        <time>2014-01-11T14:35:36Z</time>
      </trkpt>
      <trkpt lat="45.88109" lon="4.67155">
        <ele>371.21</ele>
        <time>2014-01-11T14:35:37Z</time>
      </trkpt>
      <trkpt lat="45.88111" lon="4.67153">
        <ele>372.17</ele>
        <time>2014-01-11T14:35:39Z</time>
      </trkpt>
      <trkpt lat="45.88112" lon="4.67153">
        <ele>371.21</ele>
        <time>2014-01-11T14:35:40Z</time>
      </trkpt>
      <trkpt lat="45.88113" lon="4.67153">
        <ele>371.69</ele>
        <time>2014-01-11T14:35:41Z</time>
      </trkpt>
      <trkpt lat="45.88114" lon="4.67153">
        <ele>371.69</ele>
        <time>2014-01-11T14:35:43Z</time>
      </trkpt>
      <trkpt lat="45.88119" lon="4.67149">
        <ele>372.17</ele>
        <time>2014-01-11T14:35:47Z</time>
      </trkpt>
      <trkpt lat="45.8812" lon="4.67149">
        <ele>372.65</ele>
        <time>2014-01-11T14:35:48Z</time>
      </trkpt>
      <trkpt lat="45.88122" lon="4.67149">
        <ele>372.17</ele>
        <time>2014-01-11T14:35:49Z</time>
      </trkpt>
      <trkpt lat="45.88149" lon="4.67152">
        <ele>373.13</ele>
        <time>2014-01-11T14:36:02Z</time>
      </trkpt>
      <trkpt lat="45.88179" lon="4.67154">
        <ele>372.65</ele>
        <time>2014-01-11T14:36:14Z</time>
      </trkpt>
      <trkpt lat="45.88223" lon="4.67158">
        <ele>372.17</ele>
        <time>2014-01-11T14:36:28Z</time>
      </trkpt>
      <trkpt lat="45.88276" lon="4.67163">
        <ele>370.73</ele>
        <time>2014-01-11T14:36:40Z</time>
      </trkpt>
      <trkpt lat="45.88355" lon="4.67168">
        <ele>369.76</ele>
        <time>2014-01-11T14:36:54Z</time>
      </trkpt>
      <trkpt lat="45.88398" lon="4.6715">
        <ele>370.73</ele>
        <time>2014-01-11T14:37:04Z</time>
      </trkpt>
      <trkpt lat="45.8842" lon="4.6713">
        <ele>372.65</ele>
        <time>2014-01-11T14:37:15Z</time>
      </trkpt>
      <trkpt lat="45.88436" lon="4.67114">
        <ele>376.01</ele>
        <time>2014-01-11T14:37:25Z</time>
      </trkpt>
      <trkpt lat="45.88453" lon="4.67097">
        <ele>378.9</ele>
        <time>2014-01-11T14:37:38Z</time>
      </trkpt>
      <trkpt lat="45.88469" lon="4.67079">
        <ele>381.78</ele>
        <time>2014-01-11T14:37:52Z</time>
      </trkpt>
      <trkpt lat="45.88471" lon="4.67076">
        <ele>381.78</ele>
        <time>2014-01-11T14:37:54Z</time>
      </trkpt>
      <trkpt lat="45.88472" lon="4.67075">
        <ele>381.78</ele>
        <time>2014-01-11T14:37:55Z</time>
      </trkpt>
      <trkpt lat="45.88474" lon="4.67074">
        <ele>382.26</ele>
        <time>2014-01-11T14:37:56Z</time>
      </trkpt>
      <trkpt lat="45.88489" lon="4.67058">
        <ele>384.66</ele>
        <time>2014-01-11T14:38:09Z</time>
      </trkpt>
      <trkpt lat="45.88506" lon="4.67042">
        <ele>386.59</ele>
        <time>2014-01-11T14:38:23Z</time>
      </trkpt>
      <trkpt lat="45.88521" lon="4.67024">
        <ele>388.99</ele>
        <time>2014-01-11T14:38:36Z</time>
      </trkpt>
      <trkpt lat="45.88536" lon="4.67009">
        <ele>391.39</ele>
        <time>2014-01-11T14:38:49Z</time>
      </trkpt>
      <trkpt lat="45.88551" lon="4.66992">
        <ele>393.32</ele>
        <time>2014-01-11T14:39:02Z</time>
      </trkpt>
      <trkpt lat="45.88567" lon="4.66976">
        <ele>396.2</ele>
        <time>2014-01-11T14:39:16Z</time>
      </trkpt>
      <trkpt lat="45.88585" lon="4.66968">
        <ele>397.64</ele>
        <time>2014-01-11T14:39:29Z</time>
      </trkpt>
      <trkpt lat="45.8861" lon="4.66966">
        <ele>398.12</ele>
        <time>2014-01-11T14:39:42Z</time>
      </trkpt>
      <trkpt lat="45.88638" lon="4.66964">
        <ele>399.57</ele>
        <time>2014-01-11T14:39:53Z</time>
      </trkpt>
      <trkpt lat="45.88673" lon="4.66962">
        <ele>400.05</ele>
        <time>2014-01-11T14:40:07Z</time>
      </trkpt>
      <trkpt lat="45.88705" lon="4.66963">
        <ele>401.97</ele>
        <time>2014-01-11T14:40:21Z</time>
      </trkpt>
      <trkpt lat="45.88732" lon="4.66958">
        <ele>404.37</ele>
        <time>2014-01-11T14:40:34Z</time>
      </trkpt>
      <trkpt lat="45.88757" lon="4.66952">
        <ele>407.26</ele>
        <time>2014-01-11T14:40:47Z</time>
      </trkpt>
      <trkpt lat="45.88779" lon="4.6695">
        <ele>408.7</ele>
        <time>2014-01-11T14:40:59Z</time>
      </trkpt>
      <trkpt lat="45.88801" lon="4.66948">
        <ele>409.66</ele>
        <time>2014-01-11T14:41:11Z</time>
      </trkpt>
      <trkpt lat="45.88824" lon="4.66945">
        <ele>411.58</ele>
        <time>2014-01-11T14:41:23Z</time>
      </trkpt>
      <trkpt lat="45.88845" lon="4.66934">
        <ele>413.98</ele>
        <time>2014-01-11T14:41:35Z</time>
      </trkpt>
      <trkpt lat="45.88866" lon="4.6692">
        <ele>414.95</ele>
        <time>2014-01-11T14:41:47Z</time>
      </trkpt>
      <trkpt lat="45.88892" lon="4.66903">
        <ele>415.91</ele>
        <time>2014-01-11T14:42:01Z</time>
      </trkpt>
      <trkpt lat="45.88921" lon="4.66888">
        <ele>417.35</ele>
        <time>2014-01-11T14:42:14Z</time>
      </trkpt>
      <trkpt lat="45.88948" lon="4.66873">
        <ele>418.31</ele>
        <time>2014-01-11T14:42:27Z</time>
      </trkpt>
      <trkpt lat="45.88977" lon="4.66856">
        <ele>418.79</ele>
        <time>2014-01-11T14:42:40Z</time>
      </trkpt>
      <trkpt lat="45.88993" lon="4.66823">
        <ele>418.79</ele>
        <time>2014-01-11T14:42:51Z</time>
      </trkpt>
      <trkpt lat="45.89007" lon="4.668">
        <ele>417.35</ele>
        <time>2014-01-11T14:42:58Z</time>
      </trkpt>
      <trkpt lat="45.89011" lon="4.668">
        <ele>417.83</ele>
        <time>2014-01-11T14:42:59Z</time>
      </trkpt>
      <trkpt lat="45.89014" lon="4.668">
        <ele>417.35</ele>
        <time>2014-01-11T14:43:00Z</time>
      </trkpt>
      <trkpt lat="45.89045" lon="4.668">
        <ele>416.87</ele>
        <time>2014-01-11T14:43:09Z</time>
      </trkpt>
      <trkpt lat="45.89052" lon="4.66794">
        <ele>415.43</ele>
        <time>2014-01-11T14:43:11Z</time>
      </trkpt>
      <trkpt lat="45.89056" lon="4.6679">
        <ele>415.43</ele>
        <time>2014-01-11T14:43:12Z</time>
      </trkpt>
      <trkpt lat="45.89088" lon="4.66777">
        <ele>412.54</ele>
        <time>2014-01-11T14:43:21Z</time>
      </trkpt>
      <trkpt lat="45.89127" lon="4.66808">
        <ele>413.5</ele>
        <time>2014-01-11T14:43:34Z</time>
      </trkpt>
      <trkpt lat="45.89144" lon="4.66816">
        <ele>413.98</ele>
        <time>2014-01-11T14:43:38Z</time>
      </trkpt>
      <trkpt lat="45.89148" lon="4.66818">
        <ele>413.02</ele>
        <time>2014-01-11T14:43:39Z</time>
      </trkpt>
      <trkpt lat="45.89152" lon="4.66822">
        <ele>413.02</ele>
        <time>2014-01-11T14:43:40Z</time>
      </trkpt>
      <trkpt lat="45.89156" lon="4.66833">
        <ele>413.02</ele>
        <time>2014-01-11T14:43:42Z</time>
      </trkpt>
      <trkpt lat="45.89158" lon="4.66838">
        <ele>413.5</ele>
        <time>2014-01-11T14:43:43Z</time>
      </trkpt>
      <trkpt lat="45.89165" lon="4.66854">
        <ele>413.02</ele>
        <time>2014-01-11T14:43:48Z</time>
      </trkpt>
      <trkpt lat="45.89186" lon="4.66868">
        <ele>414.47</ele>
        <time>2014-01-11T14:43:58Z</time>
      </trkpt>
      <trkpt lat="45.89206" lon="4.66876">
        <ele>415.91</ele>
        <time>2014-01-11T14:44:09Z</time>
      </trkpt>
      <trkpt lat="45.89226" lon="4.66887">
        <ele>418.79</ele>
        <time>2014-01-11T14:44:22Z</time>
      </trkpt>
      <trkpt lat="45.89245" lon="4.66896">
        <ele>421.19</ele>
        <time>2014-01-11T14:44:35Z</time>
      </trkpt>
      <trkpt lat="45.89263" lon="4.66907">
        <ele>423.12</ele>
        <time>2014-01-11T14:44:48Z</time>
      </trkpt>
      <trkpt lat="45.89278" lon="4.66913">
        <ele>425.52</ele>
        <time>2014-01-11T14:45:00Z</time>
      </trkpt>
      <trkpt lat="45.89292" lon="4.66919">
        <ele>427.44</ele>
        <time>2014-01-11T14:45:10Z</time>
      </trkpt>
      <trkpt lat="45.8931" lon="4.66926">
        <ele>430.81</ele>
        <time>2014-01-11T14:45:23Z</time>
      </trkpt>
      <trkpt lat="45.89327" lon="4.66934">
        <ele>432.73</ele>
        <time>2014-01-11T14:45:36Z</time>
      </trkpt>
      <trkpt lat="45.89342" lon="4.66942">
        <ele>435.61</ele>
        <time>2014-01-11T14:45:49Z</time>
      </trkpt>
      <trkpt lat="45.89343" lon="4.66942">
        <ele>435.61</ele>
        <time>2014-01-11T14:45:50Z</time>
      </trkpt>
      <trkpt lat="45.89344" lon="4.66943">
        <ele>435.61</ele>
        <time>2014-01-11T14:45:51Z</time>
      </trkpt>
      <trkpt lat="45.89346" lon="4.66944">
        <ele>436.1</ele>
        <time>2014-01-11T14:45:52Z</time>
      </trkpt>
      <trkpt lat="45.89361" lon="4.66957">
        <ele>437.54</ele>
        <time>2014-01-11T14:46:05Z</time>
      </trkpt>
      <trkpt lat="45.89366" lon="4.66961">
        <ele>437.54</ele>
        <time>2014-01-11T14:46:09Z</time>
      </trkpt>
      <trkpt lat="45.89379" lon="4.66974">
        <ele>438.5</ele>
        <time>2014-01-11T14:46:21Z</time>
      </trkpt>
      <trkpt lat="45.89381" lon="4.66975">
        <ele>438.02</ele>
        <time>2014-01-11T14:46:22Z</time>
      </trkpt>
      <trkpt lat="45.89395" lon="4.66991">
        <ele>438.98</ele>
        <time>2014-01-11T14:46:34Z</time>
      </trkpt>
      <trkpt lat="45.89409" lon="4.6701">
        <ele>439.46</ele>
        <time>2014-01-11T14:46:45Z</time>
      </trkpt>
      <trkpt lat="45.8943" lon="4.67031">
        <ele>438.98</ele>
        <time>2014-01-11T14:46:56Z</time>
      </trkpt>
      <trkpt lat="45.89446" lon="4.67044">
        <ele>439.46</ele>
        <time>2014-01-11T14:47:04Z</time>
      </trkpt>
      <trkpt lat="45.89472" lon="4.67072">
        <ele>438.98</ele>
        <time>2014-01-11T14:47:14Z</time>
      </trkpt>
      <trkpt lat="45.89486" lon="4.67094">
        <ele>438.02</ele>
        <time>2014-01-11T14:47:19Z</time>
      </trkpt>
      <trkpt lat="45.895" lon="4.67126">
        <ele>437.06</ele>
        <time>2014-01-11T14:47:25Z</time>
      </trkpt>
      <trkpt lat="45.89519" lon="4.67196">
        <ele>436.1</ele>
        <time>2014-01-11T14:47:36Z</time>
      </trkpt>
      <trkpt lat="45.89527" lon="4.67221">
        <ele>435.61</ele>
        <time>2014-01-11T14:47:40Z</time>
      </trkpt>
      <trkpt lat="45.8953" lon="4.67227">
        <ele>435.61</ele>
        <time>2014-01-11T14:47:41Z</time>
      </trkpt>
      <trkpt lat="45.89534" lon="4.67233">
        <ele>435.61</ele>
        <time>2014-01-11T14:47:42Z</time>
      </trkpt>
      <trkpt lat="45.89538" lon="4.67237">
        <ele>435.13</ele>
        <time>2014-01-11T14:47:43Z</time>
      </trkpt>
      <trkpt lat="45.89543" lon="4.67241">
        <ele>434.65</ele>
        <time>2014-01-11T14:47:44Z</time>
      </trkpt>
      <trkpt lat="45.89547" lon="4.67244">
        <ele>434.65</ele>
        <time>2014-01-11T14:47:45Z</time>
      </trkpt>
      <trkpt lat="45.89551" lon="4.67248">
        <ele>434.17</ele>
        <time>2014-01-11T14:47:46Z</time>
      </trkpt>
      <trkpt lat="45.8956" lon="4.67255">
        <ele>433.69</ele>
        <time>2014-01-11T14:47:48Z</time>
      </trkpt>
      <trkpt lat="45.89598" lon="4.67271">
        <ele>432.25</ele>
        <time>2014-01-11T14:47:56Z</time>
      </trkpt>
      <trkpt lat="45.89645" lon="4.67267">
        <ele>429.85</ele>
        <time>2014-01-11T14:48:05Z</time>
      </trkpt>
      <trkpt lat="45.89669" lon="4.67263">
        <ele>428.4</ele>
        <time>2014-01-11T14:48:10Z</time>
      </trkpt>
      <trkpt lat="45.89674" lon="4.67261">
        <ele>428.4</ele>
        <time>2014-01-11T14:48:11Z</time>
      </trkpt>
      <trkpt lat="45.89685" lon="4.67259">
        <ele>427.92</ele>
        <time>2014-01-11T14:48:13Z</time>
      </trkpt>
      <trkpt lat="45.89691" lon="4.67258">
        <ele>427.44</ele>
        <time>2014-01-11T14:48:14Z</time>
      </trkpt>
      <trkpt lat="45.89707" lon="4.67254">
        <ele>427.44</ele>
        <time>2014-01-11T14:48:17Z</time>
      </trkpt>
      <trkpt lat="45.89736" lon="4.67249">
        <ele>426.96</ele>
        <time>2014-01-11T14:48:22Z</time>
      </trkpt>
      <trkpt lat="45.89764" lon="4.6724">
        <ele>425.52</ele>
        <time>2014-01-11T14:48:27Z</time>
      </trkpt>
      <trkpt lat="45.89821" lon="4.67223">
        <ele>423.12</ele>
        <time>2014-01-11T14:48:37Z</time>
      </trkpt>
      <trkpt lat="45.89845" lon="4.67215">
        <ele>421.68</ele>
        <time>2014-01-11T14:48:41Z</time>
      </trkpt>
      <trkpt lat="45.8986" lon="4.67213">
        <ele>421.68</ele>
        <time>2014-01-11T14:48:44Z</time>
      </trkpt>
      <trkpt lat="45.89908" lon="4.67223">
        <ele>419.75</ele>
        <time>2014-01-11T14:48:53Z</time>
      </trkpt>
      <trkpt lat="45.89913" lon="4.67224">
        <ele>419.75</ele>
        <time>2014-01-11T14:48:54Z</time>
      </trkpt>
      <trkpt lat="45.89929" lon="4.67225">
        <ele>418.79</ele>
        <time>2014-01-11T14:48:57Z</time>
      </trkpt>
      <trkpt lat="45.89934" lon="4.67227">
        <ele>418.79</ele>
        <time>2014-01-11T14:48:58Z</time>
      </trkpt>
      <trkpt lat="45.89949" lon="4.67232">
        <ele>416.87</ele>
        <time>2014-01-11T14:49:01Z</time>
      </trkpt>
      <trkpt lat="45.89959" lon="4.67235">
        <ele>415.91</ele>
        <time>2014-01-11T14:49:03Z</time>
      </trkpt>
      <trkpt lat="45.89992" lon="4.6725">
        <ele>412.54</ele>
        <time>2014-01-11T14:49:09Z</time>
      </trkpt>
      <trkpt lat="45.89996" lon="4.67253">
        <ele>412.54</ele>
        <time>2014-01-11T14:49:10Z</time>
      </trkpt>
      <trkpt lat="45.89998" lon="4.67256">
        <ele>411.58</ele>
        <time>2014-01-11T14:49:16Z</time>
      </trkpt>
      <trkpt lat="45.89998" lon="4.67256">
        <ele>411.58</ele>
        <time>2014-01-11T14:49:20Z</time>
      </trkpt>
      <trkpt lat="45.90001" lon="4.67256">
        <ele>411.58</ele>
        <time>2014-01-11T14:49:22Z</time>
      </trkpt>
      <trkpt lat="45.90037" lon="4.67274">
        <ele>411.1</ele>
        <time>2014-01-11T14:49:31Z</time>
      </trkpt>
      <trkpt lat="45.90093" lon="4.67292">
        <ele>410.14</ele>
        <time>2014-01-11T14:49:41Z</time>
      </trkpt>
      <trkpt lat="45.90135" lon="4.67308">
        <ele>410.14</ele>
        <time>2014-01-11T14:49:51Z</time>
      </trkpt>
      <trkpt lat="45.90158" lon="4.67323">
        <ele>410.14</ele>
        <time>2014-01-11T14:49:57Z</time>
      </trkpt>
      <trkpt lat="45.90212" lon="4.67358">
        <ele>410.14</ele>
        <time>2014-01-11T14:50:08Z</time>
      </trkpt>
      <trkpt lat="45.90273" lon="4.67398">
        <ele>409.18</ele>
        <time>2014-01-11T14:50:20Z</time>
      </trkpt>
      <trkpt lat="45.90279" lon="4.67402">
        <ele>408.7</ele>
        <time>2014-01-11T14:50:21Z</time>
      </trkpt>
      <trkpt lat="45.90284" lon="4.67406">
        <ele>408.7</ele>
        <time>2014-01-11T14:50:22Z</time>
      </trkpt>
      <trkpt lat="45.90289" lon="4.6741">
        <ele>408.22</ele>
        <time>2014-01-11T14:50:23Z</time>
      </trkpt>
      <trkpt lat="45.90294" lon="4.67415">
        <ele>408.22</ele>
        <time>2014-01-11T14:50:24Z</time>
      </trkpt>
      <trkpt lat="45.90335" lon="4.67456">
        <ele>404.85</ele>
        <time>2014-01-11T14:50:32Z</time>
      </trkpt>
      <trkpt lat="45.90349" lon="4.67464">
        <ele>404.37</ele>
        <time>2014-01-11T14:50:34Z</time>
      </trkpt>
      <trkpt lat="45.90355" lon="4.67466">
        <ele>403.89</ele>
        <time>2014-01-11T14:50:35Z</time>
      </trkpt>
      <trkpt lat="45.90362" lon="4.67468">
        <ele>403.41</ele>
        <time>2014-01-11T14:50:36Z</time>
      </trkpt>
      <trkpt lat="45.90369" lon="4.67467">
        <ele>402.93</ele>
        <time>2014-01-11T14:50:37Z</time>
      </trkpt>
      <trkpt lat="45.90376" lon="4.67466">
        <ele>402.93</ele>
        <time>2014-01-11T14:50:38Z</time>
      </trkpt>
      <trkpt lat="45.90401" lon="4.67459">
        <ele>402.45</ele>
        <time>2014-01-11T14:50:42Z</time>
      </trkpt>
      <trkpt lat="45.9043" lon="4.67438">
        <ele>401.97</ele>
        <time>2014-01-11T14:50:50Z</time>
      </trkpt>
      <trkpt lat="45.90442" lon="4.67397">
        <ele>402.93</ele>
        <time>2014-01-11T14:51:00Z</time>
      </trkpt>
      <trkpt lat="45.90447" lon="4.67345">
        <ele>402.93</ele>
        <time>2014-01-11T14:51:12Z</time>
      </trkpt>
      <trkpt lat="45.90461" lon="4.67295">
        <ele>403.89</ele>
        <time>2014-01-11T14:51:23Z</time>
      </trkpt>
      <trkpt lat="45.9048" lon="4.67231">
        <ele>405.33</ele>
        <time>2014-01-11T14:51:37Z</time>
      </trkpt>
      <trkpt lat="45.90494" lon="4.67182">
        <ele>407.74</ele>
        <time>2014-01-11T14:51:48Z</time>
      </trkpt>
      <trkpt lat="45.90513" lon="4.67125">
        <ele>408.22</ele>
        <time>2014-01-11T14:52:01Z</time>
      </trkpt>
      <trkpt lat="45.90536" lon="4.67054">
        <ele>409.66</ele>
        <time>2014-01-11T14:52:16Z</time>
      </trkpt>
      <trkpt lat="45.90551" lon="4.67013">
        <ele>409.66</ele>
        <time>2014-01-11T14:52:26Z</time>
      </trkpt>
      <trkpt lat="45.90561" lon="4.6696">
        <ele>408.7</ele>
        <time>2014-01-11T14:52:36Z</time>
      </trkpt>
      <trkpt lat="45.90579" lon="4.66936">
        <ele>406.77</ele>
        <time>2014-01-11T14:52:44Z</time>
      </trkpt>
      <trkpt lat="45.90588" lon="4.66909">
        <ele>405.81</ele>
        <time>2014-01-11T14:52:51Z</time>
      </trkpt>
      <trkpt lat="45.90595" lon="4.66874">
        <ele>403.41</ele>
        <time>2014-01-11T14:52:56Z</time>
      </trkpt>
      <trkpt lat="45.90599" lon="4.66851">
        <ele>401.01</ele>
        <time>2014-01-11T14:52:59Z</time>
      </trkpt>
      <trkpt lat="45.906" lon="4.66837">
        <ele>399.57</ele>
        <time>2014-01-11T14:53:01Z</time>
      </trkpt>
      <trkpt lat="45.906" lon="4.66831">
        <ele>398.6</ele>
        <time>2014-01-11T14:53:02Z</time>
      </trkpt>
      <trkpt lat="45.906" lon="4.66825">
        <ele>398.12</ele>
        <time>2014-01-11T14:53:03Z</time>
      </trkpt>
      <trkpt lat="45.90601" lon="4.66819">
        <ele>397.64</ele>
        <time>2014-01-11T14:53:04Z</time>
      </trkpt>
      <trkpt lat="45.90601" lon="4.66815">
        <ele>396.2</ele>
        <time>2014-01-11T14:53:05Z</time>
      </trkpt>
      <trkpt lat="45.90602" lon="4.66811">
        <ele>396.2</ele>
        <time>2014-01-11T14:53:06Z</time>
      </trkpt>
      <trkpt lat="45.90604" lon="4.66803">
        <ele>394.76</ele>
        <time>2014-01-11T14:53:13Z</time>
      </trkpt>
      <trkpt lat="45.90604" lon="4.66801">
        <ele>394.28</ele>
        <time>2014-01-11T14:53:23Z</time>
      </trkpt>
      <trkpt lat="45.90604" lon="4.66801">
        <ele>394.28</ele>
        <time>2014-01-11T14:53:37Z</time>
      </trkpt>
      <trkpt lat="45.90604" lon="4.66801">
        <ele>394.76</ele>
        <time>2014-01-11T14:53:54Z</time>
      </trkpt>
      <trkpt lat="45.90604" lon="4.66801">
        <ele>394.76</ele>
        <time>2014-01-11T14:54:07Z</time>
      </trkpt>
      <trkpt lat="45.90605" lon="4.66801">
        <ele>394.76</ele>
        <time>2014-01-11T14:54:22Z</time>
      </trkpt>
      <trkpt lat="45.90605" lon="4.66801">
        <ele>394.76</ele>
        <time>2014-01-11T14:54:34Z</time>
      </trkpt>
      <trkpt lat="45.90605" lon="4.66802">
        <ele>394.76</ele>
        <time>2014-01-11T14:54:44Z</time>
      </trkpt>
      <trkpt lat="45.90605" lon="4.66802">
        <ele>395.24</ele>
        <time>2014-01-11T14:54:59Z</time>
      </trkpt>
      <trkpt lat="45.90606" lon="4.66802">
        <ele>394.76</ele>
        <time>2014-01-11T14:55:13Z</time>
      </trkpt>
      <trkpt lat="45.90605" lon="4.66804">
        <ele>395.24</ele>
        <time>2014-01-11T14:55:25Z</time>
      </trkpt>
      <trkpt lat="45.90605" lon="4.66805">
        <ele>395.24</ele>
        <time>2014-01-11T14:55:37Z</time>
      </trkpt>
      <trkpt lat="45.90605" lon="4.66805">
        <ele>394.76</ele>
        <time>2014-01-11T14:55:54Z</time>
      </trkpt>
      <trkpt lat="45.90606" lon="4.66805">
        <ele>394.76</ele>
        <time>2014-01-11T14:56:14Z</time>
      </trkpt>
      <trkpt lat="45.90606" lon="4.66805">
        <ele>395.24</ele>
        <time>2014-01-11T14:56:34Z</time>
      </trkpt>
      <trkpt lat="45.90606" lon="4.66804">
        <ele>395.24</ele>
        <time>2014-01-11T14:56:43Z</time>
      </trkpt>
      <trkpt lat="45.90606" lon="4.66804">
        <ele>395.24</ele>
        <time>2014-01-11T14:57:01Z</time>
      </trkpt>
      <trkpt lat="45.90606" lon="4.66804">
        <ele>394.76</ele>
        <time>2014-01-11T14:57:13Z</time>
      </trkpt>
      <trkpt lat="45.90606" lon="4.66803">
        <ele>394.76</ele>
        <time>2014-01-11T14:57:35Z</time>
      </trkpt>
      <trkpt lat="45.90606" lon="4.66804">
        <ele>394.76</ele>
        <time>2014-01-11T14:57:47Z</time>
      </trkpt>
      <trkpt lat="45.90606" lon="4.66804">
        <ele>394.76</ele>
        <time>2014-01-11T14:58:09Z</time>
      </trkpt>
      <trkpt lat="45.90606" lon="4.66804">
        <ele>394.76</ele>
        <time>2014-01-11T14:58:24Z</time>
      </trkpt>
      <trkpt lat="45.90606" lon="4.66804">
        <ele>394.76</ele>
        <time>2014-01-11T14:58:39Z</time>
      </trkpt>
      <trkpt lat="45.90606" lon="4.66804">
        <ele>395.24</ele>
        <time>2014-01-11T14:58:55Z</time>
      </trkpt>
      <trkpt lat="45.90606" lon="4.66804">
        <ele>395.72</ele>
        <time>2014-01-11T14:59:06Z</time>
      </trkpt>
      <trkpt lat="45.90606" lon="4.66804">
        <ele>395.24</ele>
        <time>2014-01-11T14:59:29Z</time>
      </trkpt>
      <trkpt lat="45.90606" lon="4.66804">
        <ele>394.76</ele>
        <time>2014-01-11T14:59:50Z</time>
      </trkpt>
      <trkpt lat="45.90607" lon="4.66804">
        <ele>395.24</ele>
        <time>2014-01-11T15:00:00Z</time>
      </trkpt>
      <trkpt lat="45.90606" lon="4.66801">
        <ele>395.24</ele>
        <time>2014-01-11T15:00:09Z</time>
      </trkpt>
      <trkpt lat="45.90606" lon="4.66801">
        <ele>394.76</ele>
        <time>2014-01-11T15:00:19Z</time>
      </trkpt>
      <trkpt lat="45.90606" lon="4.66801">
        <ele>395.24</ele>
        <time>2014-01-11T15:00:29Z</time>
      </trkpt>
      <trkpt lat="45.90606" lon="4.66801">
        <ele>394.76</ele>
        <time>2014-01-11T15:00:49Z</time>
      </trkpt>
      <trkpt lat="45.90606" lon="4.668">
        <ele>395.24</ele>
        <time>2014-01-11T15:01:05Z</time>
      </trkpt>
      <trkpt lat="45.90607" lon="4.66795">
        <ele>394.76</ele>
        <time>2014-01-11T15:01:07Z</time>
      </trkpt>
      <trkpt lat="45.90612" lon="4.66779">
        <ele>393.8</ele>
        <time>2014-01-11T15:01:11Z</time>
      </trkpt>
      <trkpt lat="45.90617" lon="4.66756">
        <ele>391.87</ele>
        <time>2014-01-11T15:01:15Z</time>
      </trkpt>
      <trkpt lat="45.90626" lon="4.66729">
        <ele>388.99</ele>
        <time>2014-01-11T15:01:20Z</time>
      </trkpt>
      <trkpt lat="45.90629" lon="4.66719">
        <ele>387.07</ele>
        <time>2014-01-11T15:01:22Z</time>
      </trkpt>
      <trkpt lat="45.9063" lon="4.66698">
        <ele>383.7</ele>
        <time>2014-01-11T15:01:26Z</time>
      </trkpt>
      <trkpt lat="45.9063" lon="4.66693">
        <ele>383.7</ele>
        <time>2014-01-11T15:01:27Z</time>
      </trkpt>
      <trkpt lat="45.90628" lon="4.66689">
        <ele>382.74</ele>
        <time>2014-01-11T15:01:28Z</time>
      </trkpt>
      <trkpt lat="45.90625" lon="4.66686">
        <ele>382.26</ele>
        <time>2014-01-11T15:01:29Z</time>
      </trkpt>
      <trkpt lat="45.90611" lon="4.6667">
        <ele>379.38</ele>
        <time>2014-01-11T15:01:33Z</time>
      </trkpt>
      <trkpt lat="45.90603" lon="4.6666">
        <ele>377.45</ele>
        <time>2014-01-11T15:01:35Z</time>
      </trkpt>
      <trkpt lat="45.90598" lon="4.66656">
        <ele>376.97</ele>
        <time>2014-01-11T15:01:36Z</time>
      </trkpt>
      <trkpt lat="45.90594" lon="4.66651">
        <ele>375.53</ele>
        <time>2014-01-11T15:01:37Z</time>
      </trkpt>
      <trkpt lat="45.90591" lon="4.66645">
        <ele>375.05</ele>
        <time>2014-01-11T15:01:38Z</time>
      </trkpt>
      <trkpt lat="45.9059" lon="4.66637">
        <ele>375.05</ele>
        <time>2014-01-11T15:01:39Z</time>
      </trkpt>
      <trkpt lat="45.90589" lon="4.66628">
        <ele>374.09</ele>
        <time>2014-01-11T15:01:40Z</time>
      </trkpt>
      <trkpt lat="45.9059" lon="4.66571">
        <ele>371.21</ele>
        <time>2014-01-11T15:01:46Z</time>
      </trkpt>
      <trkpt lat="45.9059" lon="4.66533">
        <ele>369.76</ele>
        <time>2014-01-11T15:01:50Z</time>
      </trkpt>
      <trkpt lat="45.9059" lon="4.66442">
        <ele>366.88</ele>
        <time>2014-01-11T15:01:59Z</time>
      </trkpt>
      <trkpt lat="45.90583" lon="4.66364">
        <ele>364</ele>
        <time>2014-01-11T15:02:07Z</time>
      </trkpt>
      <trkpt lat="45.90582" lon="4.66356">
        <ele>363.52</ele>
        <time>2014-01-11T15:02:08Z</time>
      </trkpt>
      <trkpt lat="45.9058" lon="4.66341">
        <ele>361.59</ele>
        <time>2014-01-11T15:02:11Z</time>
      </trkpt>
      <trkpt lat="45.90582" lon="4.66337">
        <ele>361.59</ele>
        <time>2014-01-11T15:02:18Z</time>
      </trkpt>
      <trkpt lat="45.90582" lon="4.66334">
        <ele>361.59</ele>
        <time>2014-01-11T15:02:39Z</time>
      </trkpt>
      <trkpt lat="45.90581" lon="4.66332">
        <ele>361.11</ele>
        <time>2014-01-11T15:02:40Z</time>
      </trkpt>
      <trkpt lat="45.9058" lon="4.66328">
        <ele>360.63</ele>
        <time>2014-01-11T15:02:41Z</time>
      </trkpt>
      <trkpt lat="45.90577" lon="4.66282">
        <ele>357.27</ele>
        <time>2014-01-11T15:02:49Z</time>
      </trkpt>
      <trkpt lat="45.90575" lon="4.66264">
        <ele>356.31</ele>
        <time>2014-01-11T15:02:51Z</time>
      </trkpt>
      <trkpt lat="45.90574" lon="4.66231">
        <ele>353.42</ele>
        <time>2014-01-11T15:02:54Z</time>
      </trkpt>
      <trkpt lat="45.90574" lon="4.6618">
        <ele>350.06</ele>
        <time>2014-01-11T15:02:58Z</time>
      </trkpt>
      <trkpt lat="45.90574" lon="4.66146">
        <ele>345.73</ele>
        <time>2014-01-11T15:03:01Z</time>
      </trkpt>
      <trkpt lat="45.90574" lon="4.66112">
        <ele>342.37</ele>
        <time>2014-01-11T15:03:04Z</time>
      </trkpt>
      <trkpt lat="45.90574" lon="4.66089">
        <ele>339</ele>
        <time>2014-01-11T15:03:07Z</time>
      </trkpt>
      <trkpt lat="45.90572" lon="4.66078">
        <ele>338.52</ele>
        <time>2014-01-11T15:03:09Z</time>
      </trkpt>
      <trkpt lat="45.90571" lon="4.66072">
        <ele>338.04</ele>
        <time>2014-01-11T15:03:10Z</time>
      </trkpt>
      <trkpt lat="45.90568" lon="4.66065">
        <ele>337.08</ele>
        <time>2014-01-11T15:03:11Z</time>
      </trkpt>
      <trkpt lat="45.90564" lon="4.66057">
        <ele>337.08</ele>
        <time>2014-01-11T15:03:12Z</time>
      </trkpt>
      <trkpt lat="45.90547" lon="4.66022">
        <ele>334.68</ele>
        <time>2014-01-11T15:03:16Z</time>
      </trkpt>
      <trkpt lat="45.9054" lon="4.66005">
        <ele>333.71</ele>
        <time>2014-01-11T15:03:18Z</time>
      </trkpt>
      <trkpt lat="45.90539" lon="4.65994">
        <ele>333.23</ele>
        <time>2014-01-11T15:03:19Z</time>
      </trkpt>
      <trkpt lat="45.9054" lon="4.65983">
        <ele>332.75</ele>
        <time>2014-01-11T15:03:20Z</time>
      </trkpt>
      <trkpt lat="45.90546" lon="4.65933">
        <ele>329.87</ele>
        <time>2014-01-11T15:03:24Z</time>
      </trkpt>
      <trkpt lat="45.90548" lon="4.65891">
        <ele>326.02</ele>
        <time>2014-01-11T15:03:27Z</time>
      </trkpt>
      <trkpt lat="45.90547" lon="4.65876">
        <ele>324.58</ele>
        <time>2014-01-11T15:03:28Z</time>
      </trkpt>
      <trkpt lat="45.90544" lon="4.65861">
        <ele>323.62</ele>
        <time>2014-01-11T15:03:29Z</time>
      </trkpt>
      <trkpt lat="45.9054" lon="4.65847">
        <ele>321.7</ele>
        <time>2014-01-11T15:03:30Z</time>
      </trkpt>
      <trkpt lat="45.90534" lon="4.65834">
        <ele>320.74</ele>
        <time>2014-01-11T15:03:31Z</time>
      </trkpt>
      <trkpt lat="45.90527" lon="4.65823">
        <ele>320.74</ele>
        <time>2014-01-11T15:03:32Z</time>
      </trkpt>
      <trkpt lat="45.905" lon="4.65775">
        <ele>317.37</ele>
        <time>2014-01-11T15:03:36Z</time>
      </trkpt>
      <trkpt lat="45.90493" lon="4.65763">
        <ele>317.85</ele>
        <time>2014-01-11T15:03:37Z</time>
      </trkpt>
      <trkpt lat="45.90467" lon="4.65714">
        <ele>314.49</ele>
        <time>2014-01-11T15:03:41Z</time>
      </trkpt>
      <trkpt lat="45.90443" lon="4.65672">
        <ele>314.01</ele>
        <time>2014-01-11T15:03:45Z</time>
      </trkpt>
      <trkpt lat="45.90437" lon="4.65665">
        <ele>313.53</ele>
        <time>2014-01-11T15:03:46Z</time>
      </trkpt>
      <trkpt lat="45.9043" lon="4.65659">
        <ele>312.57</ele>
        <time>2014-01-11T15:03:47Z</time>
      </trkpt>
      <trkpt lat="45.90423" lon="4.65655">
        <ele>312.57</ele>
        <time>2014-01-11T15:03:48Z</time>
      </trkpt>
      <trkpt lat="45.90415" lon="4.65651">
        <ele>312.57</ele>
        <time>2014-01-11T15:03:49Z</time>
      </trkpt>
      <trkpt lat="45.90407" lon="4.65647">
        <ele>312.09</ele>
        <time>2014-01-11T15:03:50Z</time>
      </trkpt>
      <trkpt lat="45.904" lon="4.65641">
        <ele>312.09</ele>
        <time>2014-01-11T15:03:51Z</time>
      </trkpt>
      <trkpt lat="45.90374" lon="4.65619">
        <ele>310.16</ele>
        <time>2014-01-11T15:03:55Z</time>
      </trkpt>
      <trkpt lat="45.90372" lon="4.65612">
        <ele>310.16</ele>
        <time>2014-01-11T15:03:56Z</time>
      </trkpt>
      <trkpt lat="45.90372" lon="4.65605">
        <ele>309.68</ele>
        <time>2014-01-11T15:03:57Z</time>
      </trkpt>
      <trkpt lat="45.90374" lon="4.65597">
        <ele>309.68</ele>
        <time>2014-01-11T15:03:58Z</time>
      </trkpt>
      <trkpt lat="45.90377" lon="4.65589">
        <ele>309.2</ele>
        <time>2014-01-11T15:03:59Z</time>
      </trkpt>
      <trkpt lat="45.9038" lon="4.65579">
        <ele>309.2</ele>
        <time>2014-01-11T15:04:00Z</time>
      </trkpt>
      <trkpt lat="45.9038" lon="4.6557">
        <ele>308.24</ele>
        <time>2014-01-11T15:04:01Z</time>
      </trkpt>
      <trkpt lat="45.90379" lon="4.6556">
        <ele>308.24</ele>
        <time>2014-01-11T15:04:02Z</time>
      </trkpt>
      <trkpt lat="45.90376" lon="4.65551">
        <ele>307.76</ele>
        <time>2014-01-11T15:04:03Z</time>
      </trkpt>
      <trkpt lat="45.90372" lon="4.65542">
        <ele>307.28</ele>
        <time>2014-01-11T15:04:04Z</time>
      </trkpt>
      <trkpt lat="45.90368" lon="4.65534">
        <ele>306.8</ele>
        <time>2014-01-11T15:04:05Z</time>
      </trkpt>
      <trkpt lat="45.90336" lon="4.65465">
        <ele>303.43</ele>
        <time>2014-01-11T15:04:13Z</time>
      </trkpt>
      <trkpt lat="45.90331" lon="4.65452">
        <ele>301.51</ele>
        <time>2014-01-11T15:04:18Z</time>
      </trkpt>
      <trkpt lat="45.90331" lon="4.65452">
        <ele>301.51</ele>
        <time>2014-01-11T15:04:22Z</time>
      </trkpt>
      <trkpt lat="45.9033" lon="4.6545">
        <ele>301.51</ele>
        <time>2014-01-11T15:04:23Z</time>
      </trkpt>
      <trkpt lat="45.9033" lon="4.65448">
        <ele>301.51</ele>
        <time>2014-01-11T15:04:24Z</time>
      </trkpt>
      <trkpt lat="45.90329" lon="4.65444">
        <ele>301.51</ele>
        <time>2014-01-11T15:04:25Z</time>
      </trkpt>
      <trkpt lat="45.90328" lon="4.6544">
        <ele>301.51</ele>
        <time>2014-01-11T15:04:26Z</time>
      </trkpt>
      <trkpt lat="45.90326" lon="4.65437">
        <ele>301.51</ele>
        <time>2014-01-11T15:04:27Z</time>
      </trkpt>
      <trkpt lat="45.90324" lon="4.65432">
        <ele>301.03</ele>
        <time>2014-01-11T15:04:28Z</time>
      </trkpt>
      <trkpt lat="45.90301" lon="4.65385">
        <ele>298.15</ele>
        <time>2014-01-11T15:04:36Z</time>
      </trkpt>
      <trkpt lat="45.90298" lon="4.65377">
        <ele>297.67</ele>
        <time>2014-01-11T15:04:37Z</time>
      </trkpt>
      <trkpt lat="45.90295" lon="4.65368">
        <ele>296.7</ele>
        <time>2014-01-11T15:04:38Z</time>
      </trkpt>
      <trkpt lat="45.90294" lon="4.65359">
        <ele>296.22</ele>
        <time>2014-01-11T15:04:39Z</time>
      </trkpt>
      <trkpt lat="45.90293" lon="4.65348">
        <ele>295.74</ele>
        <time>2014-01-11T15:04:40Z</time>
      </trkpt>
      <trkpt lat="45.90292" lon="4.65302">
        <ele>292.38</ele>
        <time>2014-01-11T15:04:44Z</time>
      </trkpt>
      <trkpt lat="45.90292" lon="4.65291">
        <ele>292.38</ele>
        <time>2014-01-11T15:04:45Z</time>
      </trkpt>
      <trkpt lat="45.90292" lon="4.65224">
        <ele>289.01</ele>
        <time>2014-01-11T15:04:51Z</time>
      </trkpt>
      <trkpt lat="45.90292" lon="4.65212">
        <ele>289.01</ele>
        <time>2014-01-11T15:04:52Z</time>
      </trkpt>
      <trkpt lat="45.90292" lon="4.6519">
        <ele>287.57</ele>
        <time>2014-01-11T15:04:54Z</time>
      </trkpt>
      <trkpt lat="45.90291" lon="4.65155">
        <ele>286.13</ele>
        <time>2014-01-11T15:04:57Z</time>
      </trkpt>
      <trkpt lat="45.90279" lon="4.65058">
        <ele>282.28</ele>
        <time>2014-01-11T15:05:06Z</time>
      </trkpt>
      <trkpt lat="45.90276" lon="4.65043">
        <ele>280.84</ele>
        <time>2014-01-11T15:05:08Z</time>
      </trkpt>
      <trkpt lat="45.90274" lon="4.65037">
        <ele>279.4</ele>
        <time>2014-01-11T15:05:09Z</time>
      </trkpt>
      <trkpt lat="45.90274" lon="4.65032">
        <ele>278.92</ele>
        <time>2014-01-11T15:05:10Z</time>
      </trkpt>
      <trkpt lat="45.90275" lon="4.65029">
        <ele>278.92</ele>
        <time>2014-01-11T15:05:11Z</time>
      </trkpt>
      <trkpt lat="45.90277" lon="4.65027">
        <ele>277.96</ele>
        <time>2014-01-11T15:05:12Z</time>
      </trkpt>
      <trkpt lat="45.90279" lon="4.65025">
        <ele>277.96</ele>
        <time>2014-01-11T15:05:13Z</time>
      </trkpt>
      <trkpt lat="45.90282" lon="4.65024">
        <ele>277.48</ele>
        <time>2014-01-11T15:05:14Z</time>
      </trkpt>
      <trkpt lat="45.90285" lon="4.65023">
        <ele>276.52</ele>
        <time>2014-01-11T15:05:15Z</time>
      </trkpt>
      <trkpt lat="45.90289" lon="4.65022">
        <ele>276.52</ele>
        <time>2014-01-11T15:05:16Z</time>
      </trkpt>
      <trkpt lat="45.90293" lon="4.6502">
        <ele>276.04</ele>
        <time>2014-01-11T15:05:17Z</time>
      </trkpt>
      <trkpt lat="45.90297" lon="4.65019">
        <ele>276.04</ele>
        <time>2014-01-11T15:05:18Z</time>
      </trkpt>
      <trkpt lat="45.90301" lon="4.65019">
        <ele>275.56</ele>
        <time>2014-01-11T15:05:19Z</time>
      </trkpt>
      <trkpt lat="45.90305" lon="4.65018">
        <ele>275.07</ele>
        <time>2014-01-11T15:05:20Z</time>
      </trkpt>
      <trkpt lat="45.9031" lon="4.65018">
        <ele>274.11</ele>
        <time>2014-01-11T15:05:21Z</time>
      </trkpt>
      <trkpt lat="45.90326" lon="4.65012">
        <ele>271.23</ele>
        <time>2014-01-11T15:05:26Z</time>
      </trkpt>
      <trkpt lat="45.90339" lon="4.64992">
        <ele>267.38</ele>
        <time>2014-01-11T15:05:30Z</time>
      </trkpt>
      <trkpt lat="45.90353" lon="4.64969">
        <ele>264.02</ele>
        <time>2014-01-11T15:05:34Z</time>
      </trkpt>
      <trkpt lat="45.90366" lon="4.64947">
        <ele>261.14</ele>
        <time>2014-01-11T15:05:38Z</time>
      </trkpt>
      <trkpt lat="45.90368" lon="4.6494">
        <ele>260.65</ele>
        <time>2014-01-11T15:05:39Z</time>
      </trkpt>
      <trkpt lat="45.90369" lon="4.64934">
        <ele>260.17</ele>
        <time>2014-01-11T15:05:40Z</time>
      </trkpt>
      <trkpt lat="45.9037" lon="4.64927">
        <ele>259.21</ele>
        <time>2014-01-11T15:05:41Z</time>
      </trkpt>
      <trkpt lat="45.90371" lon="4.64922">
        <ele>258.25</ele>
        <time>2014-01-11T15:05:42Z</time>
      </trkpt>
      <trkpt lat="45.90372" lon="4.64917">
        <ele>257.29</ele>
        <time>2014-01-11T15:05:43Z</time>
      </trkpt>
      <trkpt lat="45.90373" lon="4.64913">
        <ele>257.29</ele>
        <time>2014-01-11T15:05:44Z</time>
      </trkpt>
      <trkpt lat="45.90373" lon="4.6491">
        <ele>256.33</ele>
        <time>2014-01-11T15:05:45Z</time>
      </trkpt>
      <trkpt lat="45.90374" lon="4.64893">
        <ele>255.37</ele>
        <time>2014-01-11T15:05:50Z</time>
      </trkpt>
      <trkpt lat="45.90371" lon="4.64889">
        <ele>255.37</ele>
        <time>2014-01-11T15:05:51Z</time>
      </trkpt>
      <trkpt lat="45.90366" lon="4.64887">
        <ele>254.89</ele>
        <time>2014-01-11T15:05:52Z</time>
      </trkpt>
      <trkpt lat="45.90361" lon="4.64885">
        <ele>254.89</ele>
        <time>2014-01-11T15:05:53Z</time>
      </trkpt>
      <trkpt lat="45.90355" lon="4.64884">
        <ele>254.89</ele>
        <time>2014-01-11T15:05:54Z</time>
      </trkpt>
      <trkpt lat="45.9029" lon="4.64873">
        <ele>253.93</ele>
        <time>2014-01-11T15:06:04Z</time>
      </trkpt>
      <trkpt lat="45.90232" lon="4.6486">
        <ele>253.44</ele>
        <time>2014-01-11T15:06:15Z</time>
      </trkpt>
      <trkpt lat="45.90214" lon="4.64849">
        <ele>252.96</ele>
        <time>2014-01-11T15:06:19Z</time>
      </trkpt>
      <trkpt lat="45.90209" lon="4.64845">
        <ele>252</ele>
        <time>2014-01-11T15:06:20Z</time>
      </trkpt>
      <trkpt lat="45.90204" lon="4.64841">
        <ele>252</ele>
        <time>2014-01-11T15:06:21Z</time>
      </trkpt>
      <trkpt lat="45.902" lon="4.64834">
        <ele>252</ele>
        <time>2014-01-11T15:06:22Z</time>
      </trkpt>
      <trkpt lat="45.90196" lon="4.64826">
        <ele>251.52</ele>
        <time>2014-01-11T15:06:23Z</time>
      </trkpt>
      <trkpt lat="45.90192" lon="4.64818">
        <ele>251.52</ele>
        <time>2014-01-11T15:06:24Z</time>
      </trkpt>
      <trkpt lat="45.90189" lon="4.64808">
        <ele>251.04</ele>
        <time>2014-01-11T15:06:25Z</time>
      </trkpt>
      <trkpt lat="45.90188" lon="4.64798">
        <ele>250.56</ele>
        <time>2014-01-11T15:06:26Z</time>
      </trkpt>
      <trkpt lat="45.90187" lon="4.64787">
        <ele>250.56</ele>
        <time>2014-01-11T15:06:27Z</time>
      </trkpt>
      <trkpt lat="45.90187" lon="4.64776">
        <ele>251.04</ele>
        <time>2014-01-11T15:06:28Z</time>
      </trkpt>
      <trkpt lat="45.90188" lon="4.64766">
        <ele>250.08</ele>
        <time>2014-01-11T15:06:29Z</time>
      </trkpt>
      <trkpt lat="45.9019" lon="4.64756">
        <ele>249.6</ele>
        <time>2014-01-11T15:06:30Z</time>
      </trkpt>
      <trkpt lat="45.902" lon="4.64704">
        <ele>249.12</ele>
        <time>2014-01-11T15:06:36Z</time>
      </trkpt>
      <trkpt lat="45.90204" lon="4.64697">
        <ele>249.12</ele>
        <time>2014-01-11T15:06:37Z</time>
      </trkpt>
      <trkpt lat="45.90221" lon="4.64659">
        <ele>250.56</ele>
        <time>2014-01-11T15:06:45Z</time>
      </trkpt>
      <trkpt lat="45.9023" lon="4.64635">
        <ele>252</ele>
        <time>2014-01-11T15:06:52Z</time>
      </trkpt>
      <trkpt lat="45.90238" lon="4.64618">
        <ele>253.93</ele>
        <time>2014-01-11T15:06:59Z</time>
      </trkpt>
      <trkpt lat="45.90245" lon="4.64594">
        <ele>255.85</ele>
        <time>2014-01-11T15:07:08Z</time>
      </trkpt>
      <trkpt lat="45.90258" lon="4.64561">
        <ele>257.29</ele>
        <time>2014-01-11T15:07:20Z</time>
      </trkpt>
      <trkpt lat="45.90265" lon="4.64541">
        <ele>258.73</ele>
        <time>2014-01-11T15:07:29Z</time>
      </trkpt>
      <trkpt lat="45.90266" lon="4.64538">
        <ele>258.25</ele>
        <time>2014-01-11T15:07:30Z</time>
      </trkpt>
      <trkpt lat="45.90274" lon="4.64511">
        <ele>260.17</ele>
        <time>2014-01-11T15:07:41Z</time>
      </trkpt>
      <trkpt lat="45.90274" lon="4.64498">
        <ele>261.62</ele>
        <time>2014-01-11T15:07:47Z</time>
      </trkpt>
      <trkpt lat="45.90273" lon="4.64496">
        <ele>261.14</ele>
        <time>2014-01-11T15:07:48Z</time>
      </trkpt>
      <trkpt lat="45.90273" lon="4.64494">
        <ele>261.14</ele>
        <time>2014-01-11T15:07:49Z</time>
      </trkpt>
      <trkpt lat="45.90269" lon="4.64484">
        <ele>262.58</ele>
        <time>2014-01-11T15:07:54Z</time>
      </trkpt>
      <trkpt lat="45.90265" lon="4.64473">
        <ele>263.54</ele>
        <time>2014-01-11T15:08:01Z</time>
      </trkpt>
      <trkpt lat="45.90254" lon="4.64462">
        <ele>264.98</ele>
        <time>2014-01-11T15:08:11Z</time>
      </trkpt>
      <trkpt lat="45.90244" lon="4.64449">
        <ele>265.94</ele>
        <time>2014-01-11T15:08:21Z</time>
      </trkpt>
      <trkpt lat="45.90236" lon="4.64435">
        <ele>266.42</ele>
        <time>2014-01-11T15:08:30Z</time>
      </trkpt>
      <trkpt lat="45.9022" lon="4.64424">
        <ele>268.83</ele>
        <time>2014-01-11T15:08:42Z</time>
      </trkpt>
      <trkpt lat="45.90212" lon="4.64409">
        <ele>269.79</ele>
        <time>2014-01-11T15:08:52Z</time>
      </trkpt>
      <trkpt lat="45.90203" lon="4.64392">
        <ele>271.71</ele>
        <time>2014-01-11T15:09:04Z</time>
      </trkpt>
      <trkpt lat="45.90201" lon="4.6439">
        <ele>272.19</ele>
        <time>2014-01-11T15:09:06Z</time>
      </trkpt>
      <trkpt lat="45.90199" lon="4.64387">
        <ele>272.19</ele>
        <time>2014-01-11T15:09:08Z</time>
      </trkpt>
      <trkpt lat="45.90186" lon="4.64379">
        <ele>273.15</ele>
        <time>2014-01-11T15:09:16Z</time>
      </trkpt>
      <trkpt lat="45.90174" lon="4.64368">
        <ele>275.56</ele>
        <time>2014-01-11T15:09:26Z</time>
      </trkpt>
      <trkpt lat="45.90168" lon="4.6436">
        <ele>276.04</ele>
        <time>2014-01-11T15:09:34Z</time>
      </trkpt>
      <trkpt lat="45.90165" lon="4.64353">
        <ele>276.52</ele>
        <time>2014-01-11T15:09:37Z</time>
      </trkpt>
      <trkpt lat="45.90164" lon="4.64352">
        <ele>277.48</ele>
        <time>2014-01-11T15:09:38Z</time>
      </trkpt>
      <trkpt lat="45.90163" lon="4.6435">
        <ele>277.48</ele>
        <time>2014-01-11T15:09:39Z</time>
      </trkpt>
      <trkpt lat="45.90161" lon="4.64349">
        <ele>277.96</ele>
        <time>2014-01-11T15:09:40Z</time>
      </trkpt>
      <trkpt lat="45.90159" lon="4.64348">
        <ele>277.48</ele>
        <time>2014-01-11T15:09:41Z</time>
      </trkpt>
      <trkpt lat="45.90158" lon="4.64348">
        <ele>277.48</ele>
        <time>2014-01-11T15:09:42Z</time>
      </trkpt>
      <trkpt lat="45.90147" lon="4.6434">
        <ele>279.4</ele>
        <time>2014-01-11T15:09:53Z</time>
      </trkpt>
      <trkpt lat="45.90135" lon="4.64324">
        <ele>280.84</ele>
        <time>2014-01-11T15:10:06Z</time>
      </trkpt>
      <trkpt lat="45.90133" lon="4.64324">
        <ele>281.32</ele>
        <time>2014-01-11T15:10:09Z</time>
      </trkpt>
      <trkpt lat="45.90129" lon="4.6432">
        <ele>281.8</ele>
        <time>2014-01-11T15:10:14Z</time>
      </trkpt>
      <trkpt lat="45.90126" lon="4.64312">
        <ele>282.77</ele>
        <time>2014-01-11T15:10:22Z</time>
      </trkpt>
      <trkpt lat="45.9012" lon="4.64301">
        <ele>284.21</ele>
        <time>2014-01-11T15:10:32Z</time>
      </trkpt>
      <trkpt lat="45.90105" lon="4.64289">
        <ele>286.61</ele>
        <time>2014-01-11T15:10:44Z</time>
      </trkpt>
      <trkpt lat="45.90099" lon="4.6428">
        <ele>286.61</ele>
        <time>2014-01-11T15:10:49Z</time>
      </trkpt>
      <trkpt lat="45.90097" lon="4.6428">
        <ele>287.09</ele>
        <time>2014-01-11T15:10:50Z</time>
      </trkpt>
      <trkpt lat="45.90094" lon="4.64278">
        <ele>287.57</ele>
        <time>2014-01-11T15:10:51Z</time>
      </trkpt>
      <trkpt lat="45.90092" lon="4.64276">
        <ele>287.09</ele>
        <time>2014-01-11T15:10:52Z</time>
      </trkpt>
      <trkpt lat="45.90091" lon="4.64274">
        <ele>287.57</ele>
        <time>2014-01-11T15:10:53Z</time>
      </trkpt>
      <trkpt lat="45.90076" lon="4.64254">
        <ele>288.53</ele>
        <time>2014-01-11T15:11:06Z</time>
      </trkpt>
      <trkpt lat="45.90065" lon="4.64233">
        <ele>290.46</ele>
        <time>2014-01-11T15:11:19Z</time>
      </trkpt>
      <trkpt lat="45.90053" lon="4.64213">
        <ele>292.38</ele>
        <time>2014-01-11T15:11:32Z</time>
      </trkpt>
      <trkpt lat="45.9004" lon="4.64194">
        <ele>293.34</ele>
        <time>2014-01-11T15:11:44Z</time>
      </trkpt>
      <trkpt lat="45.90026" lon="4.6418">
        <ele>293.82</ele>
        <time>2014-01-11T15:11:56Z</time>
      </trkpt>
      <trkpt lat="45.90014" lon="4.64161">
        <ele>294.3</ele>
        <time>2014-01-11T15:12:06Z</time>
      </trkpt>
      <trkpt lat="45.9" lon="4.64141">
        <ele>295.26</ele>
        <time>2014-01-11T15:12:17Z</time>
      </trkpt>
      <trkpt lat="45.8999" lon="4.64126">
        <ele>295.74</ele>
        <time>2014-01-11T15:12:24Z</time>
      </trkpt>
      <trkpt lat="45.89989" lon="4.64124">
        <ele>295.74</ele>
        <time>2014-01-11T15:12:25Z</time>
      </trkpt>
      <trkpt lat="45.89988" lon="4.64123">
        <ele>295.74</ele>
        <time>2014-01-11T15:12:26Z</time>
      </trkpt>
      <trkpt lat="45.89986" lon="4.64121">
        <ele>295.74</ele>
        <time>2014-01-11T15:12:27Z</time>
      </trkpt>
      <trkpt lat="45.89986" lon="4.64119">
        <ele>296.22</ele>
        <time>2014-01-11T15:12:28Z</time>
      </trkpt>
      <trkpt lat="45.89985" lon="4.64117">
        <ele>295.74</ele>
        <time>2014-01-11T15:12:29Z</time>
      </trkpt>
      <trkpt lat="45.89971" lon="4.64093">
        <ele>296.22</ele>
        <time>2014-01-11T15:12:40Z</time>
      </trkpt>
      <trkpt lat="45.89955" lon="4.64081">
        <ele>296.7</ele>
        <time>2014-01-11T15:12:48Z</time>
      </trkpt>
      <trkpt lat="45.89954" lon="4.6408">
        <ele>296.7</ele>
        <time>2014-01-11T15:12:49Z</time>
      </trkpt>
      <trkpt lat="45.89953" lon="4.64078">
        <ele>296.22</ele>
        <time>2014-01-11T15:12:50Z</time>
      </trkpt>
      <trkpt lat="45.89939" lon="4.64035">
        <ele>297.67</ele>
        <time>2014-01-11T15:13:03Z</time>
      </trkpt>
      <trkpt lat="45.89933" lon="4.6399">
        <ele>298.15</ele>
        <time>2014-01-11T15:13:16Z</time>
      </trkpt>
      <trkpt lat="45.89928" lon="4.63952">
        <ele>299.11</ele>
        <time>2014-01-11T15:13:29Z</time>
      </trkpt>
      <trkpt lat="45.89923" lon="4.63911">
        <ele>299.59</ele>
        <time>2014-01-11T15:13:41Z</time>
      </trkpt>
      <trkpt lat="45.89918" lon="4.63868">
        <ele>301.51</ele>
        <time>2014-01-11T15:13:54Z</time>
      </trkpt>
      <trkpt lat="45.89912" lon="4.63828">
        <ele>302.47</ele>
        <time>2014-01-11T15:14:06Z</time>
      </trkpt>
      <trkpt lat="45.89908" lon="4.63798">
        <ele>303.43</ele>
        <time>2014-01-11T15:14:17Z</time>
      </trkpt>
      <trkpt lat="45.89905" lon="4.63762">
        <ele>304.39</ele>
        <time>2014-01-11T15:14:28Z</time>
      </trkpt>
      <trkpt lat="45.89897" lon="4.63722">
        <ele>306.32</ele>
        <time>2014-01-11T15:14:37Z</time>
      </trkpt>
      <trkpt lat="45.89889" lon="4.63679">
        <ele>306.32</ele>
        <time>2014-01-11T15:14:47Z</time>
      </trkpt>
      <trkpt lat="45.89885" lon="4.63629">
        <ele>306.8</ele>
        <time>2014-01-11T15:14:57Z</time>
      </trkpt>
      <trkpt lat="45.89872" lon="4.63577">
        <ele>306.32</ele>
        <time>2014-01-11T15:15:07Z</time>
      </trkpt>
      <trkpt lat="45.89844" lon="4.63511">
        <ele>305.36</ele>
        <time>2014-01-11T15:15:20Z</time>
      </trkpt>
      <trkpt lat="45.89811" lon="4.6346">
        <ele>304.88</ele>
        <time>2014-01-11T15:15:32Z</time>
      </trkpt>
      <trkpt lat="45.89777" lon="4.63423">
        <ele>304.39</ele>
        <time>2014-01-11T15:15:44Z</time>
      </trkpt>
      <trkpt lat="45.8976" lon="4.63398">
        <ele>303.43</ele>
        <time>2014-01-11T15:15:54Z</time>
      </trkpt>
      <trkpt lat="45.89732" lon="4.63372">
        <ele>303.43</ele>
        <time>2014-01-11T15:16:05Z</time>
      </trkpt>
      <trkpt lat="45.89718" lon="4.63351">
        <ele>303.91</ele>
        <time>2014-01-11T15:16:13Z</time>
      </trkpt>
      <trkpt lat="45.89711" lon="4.63341">
        <ele>304.39</ele>
        <time>2014-01-11T15:16:17Z</time>
      </trkpt>
      <trkpt lat="45.89698" lon="4.6332">
        <ele>305.36</ele>
        <time>2014-01-11T15:16:26Z</time>
      </trkpt>
      <trkpt lat="45.89677" lon="4.63305">
        <ele>307.28</ele>
        <time>2014-01-11T15:16:37Z</time>
      </trkpt>
      <trkpt lat="45.89662" lon="4.63296">
        <ele>308.72</ele>
        <time>2014-01-11T15:16:44Z</time>
      </trkpt>
      <trkpt lat="45.89661" lon="4.63295">
        <ele>308.72</ele>
        <time>2014-01-11T15:16:45Z</time>
      </trkpt>
      <trkpt lat="45.8966" lon="4.63293">
        <ele>309.2</ele>
        <time>2014-01-11T15:16:46Z</time>
      </trkpt>
      <trkpt lat="45.89645" lon="4.63274">
        <ele>310.16</ele>
        <time>2014-01-11T15:16:56Z</time>
      </trkpt>
      <trkpt lat="45.89624" lon="4.63253">
        <ele>311.6</ele>
        <time>2014-01-11T15:17:08Z</time>
      </trkpt>
      <trkpt lat="45.89598" lon="4.63231">
        <ele>312.57</ele>
        <time>2014-01-11T15:17:22Z</time>
      </trkpt>
      <trkpt lat="45.89582" lon="4.63213">
        <ele>314.01</ele>
        <time>2014-01-11T15:17:34Z</time>
      </trkpt>
      <trkpt lat="45.89569" lon="4.63198">
        <ele>314.97</ele>
        <time>2014-01-11T15:17:45Z</time>
      </trkpt>
      <trkpt lat="45.89567" lon="4.63196">
        <ele>314.97</ele>
        <time>2014-01-11T15:17:46Z</time>
      </trkpt>
      <trkpt lat="45.89565" lon="4.63195">
        <ele>314.97</ele>
        <time>2014-01-11T15:17:47Z</time>
      </trkpt>
      <trkpt lat="45.89564" lon="4.63194">
        <ele>315.45</ele>
        <time>2014-01-11T15:17:48Z</time>
      </trkpt>
      <trkpt lat="45.89562" lon="4.63191">
        <ele>315.45</ele>
        <time>2014-01-11T15:17:49Z</time>
      </trkpt>
      <trkpt lat="45.89561" lon="4.63189">
        <ele>315.93</ele>
        <time>2014-01-11T15:17:50Z</time>
      </trkpt>
      <trkpt lat="45.89543" lon="4.63166">
        <ele>316.89</ele>
        <time>2014-01-11T15:18:03Z</time>
      </trkpt>
      <trkpt lat="45.89526" lon="4.63145">
        <ele>318.33</ele>
        <time>2014-01-11T15:18:16Z</time>
      </trkpt>
      <trkpt lat="45.89507" lon="4.63122">
        <ele>319.3</ele>
        <time>2014-01-11T15:18:29Z</time>
      </trkpt>
      <trkpt lat="45.89503" lon="4.63116">
        <ele>319.3</ele>
        <time>2014-01-11T15:18:32Z</time>
      </trkpt>
      <trkpt lat="45.89501" lon="4.63114">
        <ele>319.3</ele>
        <time>2014-01-11T15:18:33Z</time>
      </trkpt>
      <trkpt lat="45.89486" lon="4.63084">
        <ele>320.26</ele>
        <time>2014-01-11T15:18:45Z</time>
      </trkpt>
      <trkpt lat="45.89468" lon="4.63044">
        <ele>320.26</ele>
        <time>2014-01-11T15:18:58Z</time>
      </trkpt>
      <trkpt lat="45.89448" lon="4.62995">
        <ele>319.78</ele>
        <time>2014-01-11T15:19:11Z</time>
      </trkpt>
      <trkpt lat="45.89421" lon="4.62945">
        <ele>318.81</ele>
        <time>2014-01-11T15:19:22Z</time>
      </trkpt>
      <trkpt lat="45.89394" lon="4.62877">
        <ele>315.93</ele>
        <time>2014-01-11T15:19:32Z</time>
      </trkpt>
      <trkpt lat="45.89386" lon="4.62854">
        <ele>314.49</ele>
        <time>2014-01-11T15:19:35Z</time>
      </trkpt>
      <trkpt lat="45.89383" lon="4.62846">
        <ele>314.01</ele>
        <time>2014-01-11T15:19:36Z</time>
      </trkpt>
      <trkpt lat="45.89379" lon="4.62828">
        <ele>313.53</ele>
        <time>2014-01-11T15:19:38Z</time>
      </trkpt>
      <trkpt lat="45.89364" lon="4.62786">
        <ele>310.16</ele>
        <time>2014-01-11T15:19:43Z</time>
      </trkpt>
      <trkpt lat="45.89361" lon="4.62779">
        <ele>310.16</ele>
        <time>2014-01-11T15:19:44Z</time>
      </trkpt>
      <trkpt lat="45.89345" lon="4.62743">
        <ele>308.24</ele>
        <time>2014-01-11T15:19:49Z</time>
      </trkpt>
      <trkpt lat="45.8934" lon="4.62737">
        <ele>308.24</ele>
        <time>2014-01-11T15:19:50Z</time>
      </trkpt>
      <trkpt lat="45.89334" lon="4.62731">
        <ele>308.24</ele>
        <time>2014-01-11T15:19:51Z</time>
      </trkpt>
      <trkpt lat="45.8928" lon="4.62694">
        <ele>304.39</ele>
        <time>2014-01-11T15:19:59Z</time>
      </trkpt>
      <trkpt lat="45.89223" lon="4.62645">
        <ele>301.03</ele>
        <time>2014-01-11T15:20:08Z</time>
      </trkpt>
      <trkpt lat="45.89188" lon="4.62618">
        <ele>298.15</ele>
        <time>2014-01-11T15:20:14Z</time>
      </trkpt>
      <trkpt lat="45.89178" lon="4.62612">
        <ele>297.18</ele>
        <time>2014-01-11T15:20:16Z</time>
      </trkpt>
      <trkpt lat="45.89172" lon="4.6261">
        <ele>296.7</ele>
        <time>2014-01-11T15:20:17Z</time>
      </trkpt>
      <trkpt lat="45.89167" lon="4.6261">
        <ele>295.74</ele>
        <time>2014-01-11T15:20:18Z</time>
      </trkpt>
      <trkpt lat="45.89161" lon="4.62612">
        <ele>295.74</ele>
        <time>2014-01-11T15:20:19Z</time>
      </trkpt>
      <trkpt lat="45.89157" lon="4.62615">
        <ele>296.22</ele>
        <time>2014-01-11T15:20:20Z</time>
      </trkpt>
      <trkpt lat="45.89154" lon="4.62619">
        <ele>296.22</ele>
        <time>2014-01-11T15:20:21Z</time>
      </trkpt>
      <trkpt lat="45.89153" lon="4.62622">
        <ele>296.22</ele>
        <time>2014-01-11T15:20:22Z</time>
      </trkpt>
      <trkpt lat="45.89151" lon="4.62625">
        <ele>296.7</ele>
        <time>2014-01-11T15:20:23Z</time>
      </trkpt>
      <trkpt lat="45.8915" lon="4.62627">
        <ele>297.67</ele>
        <time>2014-01-11T15:20:24Z</time>
      </trkpt>
      <trkpt lat="45.89149" lon="4.62629">
        <ele>297.67</ele>
        <time>2014-01-11T15:20:25Z</time>
      </trkpt>
      <trkpt lat="45.89147" lon="4.62629">
        <ele>297.67</ele>
        <time>2014-01-11T15:20:26Z</time>
      </trkpt>
      <trkpt lat="45.89145" lon="4.62629">
        <ele>298.63</ele>
        <time>2014-01-11T15:20:27Z</time>
      </trkpt>
      <trkpt lat="45.89142" lon="4.62629">
        <ele>298.63</ele>
        <time>2014-01-11T15:20:28Z</time>
      </trkpt>
      <trkpt lat="45.8914" lon="4.62628">
        <ele>298.63</ele>
        <time>2014-01-11T15:20:29Z</time>
      </trkpt>
      <trkpt lat="45.89139" lon="4.62626">
        <ele>299.11</ele>
        <time>2014-01-11T15:20:30Z</time>
      </trkpt>
      <trkpt lat="45.89137" lon="4.62623">
        <ele>299.11</ele>
        <time>2014-01-11T15:20:31Z</time>
      </trkpt>
      <trkpt lat="45.89107" lon="4.62586">
        <ele>299.59</ele>
        <time>2014-01-11T15:20:44Z</time>
      </trkpt>
      <trkpt lat="45.8908" lon="4.62574">
        <ele>300.55</ele>
        <time>2014-01-11T15:20:54Z</time>
      </trkpt>
      <trkpt lat="45.89052" lon="4.62587">
        <ele>301.03</ele>
        <time>2014-01-11T15:21:05Z</time>
      </trkpt>
      <trkpt lat="45.89021" lon="4.62608">
        <ele>302.47</ele>
        <time>2014-01-11T15:21:17Z</time>
      </trkpt>
      <trkpt lat="45.88991" lon="4.62603">
        <ele>301.99</ele>
        <time>2014-01-11T15:21:26Z</time>
      </trkpt>
      <trkpt lat="45.88956" lon="4.62606">
        <ele>302.95</ele>
        <time>2014-01-11T15:21:37Z</time>
      </trkpt>
      <trkpt lat="45.88925" lon="4.62636">
        <ele>302.95</ele>
        <time>2014-01-11T15:21:48Z</time>
      </trkpt>
      <trkpt lat="45.88916" lon="4.62681">
        <ele>305.84</ele>
        <time>2014-01-11T15:22:00Z</time>
      </trkpt>
      <trkpt lat="45.8891" lon="4.62727">
        <ele>307.28</ele>
        <time>2014-01-11T15:22:14Z</time>
      </trkpt>
      <trkpt lat="45.88898" lon="4.62782">
        <ele>305.84</ele>
        <time>2014-01-11T15:22:26Z</time>
      </trkpt>
      <trkpt lat="45.88892" lon="4.62797">
        <ele>305.36</ele>
        <time>2014-01-11T15:22:29Z</time>
      </trkpt>
      <trkpt lat="45.88891" lon="4.62803">
        <ele>305.36</ele>
        <time>2014-01-11T15:22:30Z</time>
      </trkpt>
      <trkpt lat="45.88891" lon="4.62808">
        <ele>304.88</ele>
        <time>2014-01-11T15:22:31Z</time>
      </trkpt>
      <trkpt lat="45.88891" lon="4.62814">
        <ele>305.36</ele>
        <time>2014-01-11T15:22:32Z</time>
      </trkpt>
      <trkpt lat="45.88892" lon="4.62818">
        <ele>304.39</ele>
        <time>2014-01-11T15:22:33Z</time>
      </trkpt>
      <trkpt lat="45.88892" lon="4.62823">
        <ele>304.88</ele>
        <time>2014-01-11T15:22:34Z</time>
      </trkpt>
      <trkpt lat="45.88894" lon="4.62833">
        <ele>303.91</ele>
        <time>2014-01-11T15:22:41Z</time>
      </trkpt>
      <trkpt lat="45.88894" lon="4.62833">
        <ele>303.43</ele>
        <time>2014-01-11T15:23:01Z</time>
      </trkpt>
      <trkpt lat="45.88894" lon="4.62833">
        <ele>303.43</ele>
        <time>2014-01-11T15:23:20Z</time>
      </trkpt>
      <trkpt lat="45.88894" lon="4.62833">
        <ele>303.43</ele>
        <time>2014-01-11T15:23:45Z</time>
      </trkpt>
      <trkpt lat="45.88894" lon="4.62833">
        <ele>303.43</ele>
        <time>2014-01-11T15:24:06Z</time>
      </trkpt>
      <trkpt lat="45.88894" lon="4.62833">
        <ele>303.91</ele>
        <time>2014-01-11T15:24:31Z</time>
      </trkpt>
      <trkpt lat="45.88893" lon="4.62833">
        <ele>303.43</ele>
        <time>2014-01-11T15:24:53Z</time>
      </trkpt>
      <trkpt lat="45.88893" lon="4.62833">
        <ele>303.43</ele>
        <time>2014-01-11T15:24:54Z</time>
      </trkpt>
      <trkpt lat="45.88894" lon="4.62834">
        <ele>303.43</ele>
        <time>2014-01-11T15:24:55Z</time>
      </trkpt>
      <trkpt lat="45.88895" lon="4.62839">
        <ele>303.43</ele>
        <time>2014-01-11T15:24:57Z</time>
      </trkpt>
      <trkpt lat="45.88896" lon="4.62842">
        <ele>303.91</ele>
        <time>2014-01-11T15:24:58Z</time>
      </trkpt>
      <trkpt lat="45.88896" lon="4.62845">
        <ele>303.91</ele>
        <time>2014-01-11T15:24:59Z</time>
      </trkpt>
      <trkpt lat="45.889" lon="4.62875">
        <ele>305.36</ele>
        <time>2014-01-11T15:25:11Z</time>
      </trkpt>
      <trkpt lat="45.88907" lon="4.62909">
        <ele>307.76</ele>
        <time>2014-01-11T15:25:25Z</time>
      </trkpt>
      <trkpt lat="45.88914" lon="4.62941">
        <ele>310.16</ele>
        <time>2014-01-11T15:25:38Z</time>
      </trkpt>
      <trkpt lat="45.88922" lon="4.62973">
        <ele>311.6</ele>
        <time>2014-01-11T15:25:53Z</time>
      </trkpt>
      <trkpt lat="45.8893" lon="4.63001">
        <ele>313.05</ele>
        <time>2014-01-11T15:26:05Z</time>
      </trkpt>
      <trkpt lat="45.88941" lon="4.63033">
        <ele>312.57</ele>
        <time>2014-01-11T15:26:16Z</time>
      </trkpt>
      <trkpt lat="45.88957" lon="4.63051">
        <ele>313.53</ele>
        <time>2014-01-11T15:26:25Z</time>
      </trkpt>
      <trkpt lat="45.88974" lon="4.63087">
        <ele>314.49</ele>
        <time>2014-01-11T15:26:40Z</time>
      </trkpt>
      <trkpt lat="45.88975" lon="4.63116">
        <ele>314.49</ele>
        <time>2014-01-11T15:26:51Z</time>
      </trkpt>
      <trkpt lat="45.88984" lon="4.63131">
        <ele>315.93</ele>
        <time>2014-01-11T15:27:00Z</time>
      </trkpt>
      <trkpt lat="45.89" lon="4.63137">
        <ele>316.89</ele>
        <time>2014-01-11T15:27:10Z</time>
      </trkpt>
      <trkpt lat="45.8902" lon="4.63131">
        <ele>316.89</ele>
        <time>2014-01-11T15:27:21Z</time>
      </trkpt>
      <trkpt lat="45.89034" lon="4.63119">
        <ele>314.01</ele>
        <time>2014-01-11T15:27:28Z</time>
      </trkpt>
      <trkpt lat="45.89038" lon="4.63118">
        <ele>312.57</ele>
        <time>2014-01-11T15:27:30Z</time>
      </trkpt>
      <trkpt lat="45.89054" lon="4.63134">
        <ele>313.53</ele>
        <time>2014-01-11T15:27:38Z</time>
      </trkpt>
      <trkpt lat="45.89075" lon="4.6316">
        <ele>313.05</ele>
        <time>2014-01-11T15:27:49Z</time>
      </trkpt>
      <trkpt lat="45.89091" lon="4.63184">
        <ele>313.53</ele>
        <time>2014-01-11T15:27:57Z</time>
      </trkpt>
      <trkpt lat="45.89109" lon="4.63209">
        <ele>313.53</ele>
        <time>2014-01-11T15:28:07Z</time>
      </trkpt>
      <trkpt lat="45.89122" lon="4.63236">
        <ele>313.05</ele>
        <time>2014-01-11T15:28:16Z</time>
      </trkpt>
      <trkpt lat="45.89123" lon="4.63277">
        <ele>314.01</ele>
        <time>2014-01-11T15:28:26Z</time>
      </trkpt>
      <trkpt lat="45.89118" lon="4.63306">
        <ele>314.01</ele>
        <time>2014-01-11T15:28:34Z</time>
      </trkpt>
      <trkpt lat="45.89125" lon="4.63336">
        <ele>314.01</ele>
        <time>2014-01-11T15:28:42Z</time>
      </trkpt>
      <trkpt lat="45.89137" lon="4.63353">
        <ele>313.53</ele>
        <time>2014-01-11T15:28:47Z</time>
      </trkpt>
      <trkpt lat="45.89141" lon="4.63355">
        <ele>313.53</ele>
        <time>2014-01-11T15:28:48Z</time>
      </trkpt>
      <trkpt lat="45.89145" lon="4.63356">
        <ele>313.05</ele>
        <time>2014-01-11T15:28:49Z</time>
      </trkpt>
      <trkpt lat="45.89154" lon="4.63358">
        <ele>313.05</ele>
        <time>2014-01-11T15:28:51Z</time>
      </trkpt>
      <trkpt lat="45.89194" lon="4.63365">
        <ele>311.6</ele>
        <time>2014-01-11T15:29:02Z</time>
      </trkpt>
      <trkpt lat="45.8921" lon="4.63378">
        <ele>312.09</ele>
        <time>2014-01-11T15:29:09Z</time>
      </trkpt>
      <trkpt lat="45.89211" lon="4.63381">
        <ele>310.64</ele>
        <time>2014-01-11T15:29:10Z</time>
      </trkpt>
      <trkpt lat="45.89211" lon="4.63386">
        <ele>311.12</ele>
        <time>2014-01-11T15:29:11Z</time>
      </trkpt>
      <trkpt lat="45.8921" lon="4.6339">
        <ele>311.12</ele>
        <time>2014-01-11T15:29:12Z</time>
      </trkpt>
      <trkpt lat="45.89209" lon="4.63395">
        <ele>311.12</ele>
        <time>2014-01-11T15:29:13Z</time>
      </trkpt>
      <trkpt lat="45.89208" lon="4.63401">
        <ele>311.12</ele>
        <time>2014-01-11T15:29:14Z</time>
      </trkpt>
      <trkpt lat="45.89198" lon="4.63473">
        <ele>309.2</ele>
        <time>2014-01-11T15:29:26Z</time>
      </trkpt>
      <trkpt lat="45.89199" lon="4.63501">
        <ele>309.2</ele>
        <time>2014-01-11T15:29:30Z</time>
      </trkpt>
      <trkpt lat="45.892" lon="4.63507">
        <ele>308.24</ele>
        <time>2014-01-11T15:29:31Z</time>
      </trkpt>
      <trkpt lat="45.89201" lon="4.63513">
        <ele>308.24</ele>
        <time>2014-01-11T15:29:32Z</time>
      </trkpt>
      <trkpt lat="45.89206" lon="4.63548">
        <ele>307.28</ele>
        <time>2014-01-11T15:29:40Z</time>
      </trkpt>
      <trkpt lat="45.89192" lon="4.63577">
        <ele>305.84</ele>
        <time>2014-01-11T15:29:46Z</time>
      </trkpt>
      <trkpt lat="45.89191" lon="4.63583">
        <ele>305.84</ele>
        <time>2014-01-11T15:29:47Z</time>
      </trkpt>
      <trkpt lat="45.89181" lon="4.63631">
        <ele>307.28</ele>
        <time>2014-01-11T15:29:57Z</time>
      </trkpt>
      <trkpt lat="45.89172" lon="4.6368">
        <ele>307.76</ele>
        <time>2014-01-11T15:30:07Z</time>
      </trkpt>
      <trkpt lat="45.8915" lon="4.6372">
        <ele>308.24</ele>
        <time>2014-01-11T15:30:17Z</time>
      </trkpt>
      <trkpt lat="45.89114" lon="4.63754">
        <ele>309.68</ele>
        <time>2014-01-11T15:30:29Z</time>
      </trkpt>
      <trkpt lat="45.89065" lon="4.63794">
        <ele>310.16</ele>
        <time>2014-01-11T15:30:44Z</time>
      </trkpt>
      <trkpt lat="45.89026" lon="4.6384">
        <ele>309.2</ele>
        <time>2014-01-11T15:30:56Z</time>
      </trkpt>
      <trkpt lat="45.89014" lon="4.63862">
        <ele>308.72</ele>
        <time>2014-01-11T15:31:00Z</time>
      </trkpt>
      <trkpt lat="45.89006" lon="4.63871">
        <ele>307.28</ele>
        <time>2014-01-11T15:31:02Z</time>
      </trkpt>
      <trkpt lat="45.88955" lon="4.63927">
        <ele>306.32</ele>
        <time>2014-01-11T15:31:14Z</time>
      </trkpt>
      <trkpt lat="45.88915" lon="4.63976">
        <ele>306.8</ele>
        <time>2014-01-11T15:31:25Z</time>
      </trkpt>
      <trkpt lat="45.88888" lon="4.64003">
        <ele>308.72</ele>
        <time>2014-01-11T15:31:35Z</time>
      </trkpt>
      <trkpt lat="45.88851" lon="4.64021">
        <ele>310.16</ele>
        <time>2014-01-11T15:31:48Z</time>
      </trkpt>
      <trkpt lat="45.88806" lon="4.64025">
        <ele>311.12</ele>
        <time>2014-01-11T15:32:02Z</time>
      </trkpt>
      <trkpt lat="45.88765" lon="4.64026">
        <ele>309.68</ele>
        <time>2014-01-11T15:32:13Z</time>
      </trkpt>
      <trkpt lat="45.88699" lon="4.6403">
        <ele>307.76</ele>
        <time>2014-01-11T15:32:27Z</time>
      </trkpt>
      <trkpt lat="45.88693" lon="4.6403">
        <ele>307.76</ele>
        <time>2014-01-11T15:32:28Z</time>
      </trkpt>
      <trkpt lat="45.88688" lon="4.6403">
        <ele>306.8</ele>
        <time>2014-01-11T15:32:29Z</time>
      </trkpt>
      <trkpt lat="45.88682" lon="4.64031">
        <ele>306.8</ele>
        <time>2014-01-11T15:32:30Z</time>
      </trkpt>
      <trkpt lat="45.88677" lon="4.64032">
        <ele>306.8</ele>
        <time>2014-01-11T15:32:31Z</time>
      </trkpt>
      <trkpt lat="45.88671" lon="4.64032">
        <ele>306.32</ele>
        <time>2014-01-11T15:32:32Z</time>
      </trkpt>
      <trkpt lat="45.88601" lon="4.6403">
        <ele>305.84</ele>
        <time>2014-01-11T15:32:45Z</time>
      </trkpt>
      <trkpt lat="45.8858" lon="4.64032">
        <ele>304.88</ele>
        <time>2014-01-11T15:32:49Z</time>
      </trkpt>
      <trkpt lat="45.88571" lon="4.64035">
        <ele>304.88</ele>
        <time>2014-01-11T15:32:51Z</time>
      </trkpt>
      <trkpt lat="45.88514" lon="4.64047">
        <ele>303.91</ele>
        <time>2014-01-11T15:33:03Z</time>
      </trkpt>
      <trkpt lat="45.88469" lon="4.64072">
        <ele>301.03</ele>
        <time>2014-01-11T15:33:12Z</time>
      </trkpt>
      <trkpt lat="45.88423" lon="4.64112">
        <ele>297.18</ele>
        <time>2014-01-11T15:33:21Z</time>
      </trkpt>
      <trkpt lat="45.88413" lon="4.64124">
        <ele>296.22</ele>
        <time>2014-01-11T15:33:23Z</time>
      </trkpt>
      <trkpt lat="45.88392" lon="4.64153">
        <ele>293.34</ele>
        <time>2014-01-11T15:33:27Z</time>
      </trkpt>
      <trkpt lat="45.88374" lon="4.64177">
        <ele>291.42</ele>
        <time>2014-01-11T15:33:30Z</time>
      </trkpt>
      <trkpt lat="45.88356" lon="4.64202">
        <ele>288.05</ele>
        <time>2014-01-11T15:33:33Z</time>
      </trkpt>
      <trkpt lat="45.88324" lon="4.64237">
        <ele>285.17</ele>
        <time>2014-01-11T15:33:38Z</time>
      </trkpt>
      <trkpt lat="45.88257" lon="4.64289">
        <ele>282.77</ele>
        <time>2014-01-11T15:33:48Z</time>
      </trkpt>
      <trkpt lat="45.88184" lon="4.64345">
        <ele>279.4</ele>
        <time>2014-01-11T15:33:59Z</time>
      </trkpt>
      <trkpt lat="45.88131" lon="4.64405">
        <ele>277</ele>
        <time>2014-01-11T15:34:08Z</time>
      </trkpt>
      <trkpt lat="45.88113" lon="4.64426">
        <ele>275.56</ele>
        <time>2014-01-11T15:34:11Z</time>
      </trkpt>
      <trkpt lat="45.88077" lon="4.64464">
        <ele>271.71</ele>
        <time>2014-01-11T15:34:17Z</time>
      </trkpt>
      <trkpt lat="45.88067" lon="4.64476">
        <ele>271.23</ele>
        <time>2014-01-11T15:34:19Z</time>
      </trkpt>
      <trkpt lat="45.88027" lon="4.64508">
        <ele>268.35</ele>
        <time>2014-01-11T15:34:26Z</time>
      </trkpt>
      <trkpt lat="45.87999" lon="4.64532">
        <ele>264.98</ele>
        <time>2014-01-11T15:34:31Z</time>
      </trkpt>
      <trkpt lat="45.87993" lon="4.64536">
        <ele>264.5</ele>
        <time>2014-01-11T15:34:32Z</time>
      </trkpt>
      <trkpt lat="45.87986" lon="4.6454">
        <ele>263.54</ele>
        <time>2014-01-11T15:34:33Z</time>
      </trkpt>
      <trkpt lat="45.8798" lon="4.64544">
        <ele>262.58</ele>
        <time>2014-01-11T15:34:34Z</time>
      </trkpt>
      <trkpt lat="45.87966" lon="4.64552">
        <ele>261.62</ele>
        <time>2014-01-11T15:34:36Z</time>
      </trkpt>
      <trkpt lat="45.87932" lon="4.64568">
        <ele>258.73</ele>
        <time>2014-01-11T15:34:41Z</time>
      </trkpt>
      <trkpt lat="45.87914" lon="4.64577">
        <ele>255.85</ele>
        <time>2014-01-11T15:34:46Z</time>
      </trkpt>
      <trkpt lat="45.87914" lon="4.64578">
        <ele>256.33</ele>
        <time>2014-01-11T15:34:48Z</time>
      </trkpt>
      <trkpt lat="45.87915" lon="4.64577">
        <ele>256.81</ele>
        <time>2014-01-11T15:34:49Z</time>
      </trkpt>
      <trkpt lat="45.87917" lon="4.64577">
        <ele>256.33</ele>
        <time>2014-01-11T15:34:50Z</time>
      </trkpt>
      <trkpt lat="45.87918" lon="4.64576">
        <ele>256.33</ele>
        <time>2014-01-11T15:34:51Z</time>
      </trkpt>
      <trkpt lat="45.87927" lon="4.64571">
        <ele>256.33</ele>
        <time>2014-01-11T15:34:58Z</time>
      </trkpt>
      <trkpt lat="45.8792" lon="4.64576">
        <ele>256.81</ele>
        <time>2014-01-11T15:35:04Z</time>
      </trkpt>
      <trkpt lat="45.87906" lon="4.64586">
        <ele>256.33</ele>
        <time>2014-01-11T15:35:12Z</time>
      </trkpt>
      <trkpt lat="45.87906" lon="4.64586">
        <ele>256.81</ele>
        <time>2014-01-11T15:35:23Z</time>
      </trkpt>
      <trkpt lat="45.87906" lon="4.64586">
        <ele>256.81</ele>
        <time>2014-01-11T15:35:36Z</time>
      </trkpt>
      <trkpt lat="45.87906" lon="4.64586">
        <ele>257.29</ele>
        <time>2014-01-11T15:35:49Z</time>
      </trkpt>
      <trkpt lat="45.87896" lon="4.64591">
        <ele>257.29</ele>
        <time>2014-01-11T15:35:55Z</time>
      </trkpt>
      <trkpt lat="45.87892" lon="4.64591">
        <ele>257.29</ele>
        <time>2014-01-11T15:36:05Z</time>
      </trkpt>
      <trkpt lat="45.87889" lon="4.64576">
        <ele>259.21</ele>
        <time>2014-01-11T15:36:12Z</time>
      </trkpt>
      <trkpt lat="45.87873" lon="4.64571">
        <ele>261.14</ele>
        <time>2014-01-11T15:36:22Z</time>
      </trkpt>
      <trkpt lat="45.87871" lon="4.64566">
        <ele>260.65</ele>
        <time>2014-01-11T15:36:25Z</time>
      </trkpt>
      <trkpt lat="45.87866" lon="4.64553">
        <ele>261.14</ele>
        <time>2014-01-11T15:36:30Z</time>
      </trkpt>
      <trkpt lat="45.87857" lon="4.64542">
        <ele>260.17</ele>
        <time>2014-01-11T15:36:37Z</time>
      </trkpt>
      <trkpt lat="45.87857" lon="4.64542">
        <ele>260.17</ele>
        <time>2014-01-11T15:36:51Z</time>
      </trkpt>
      <trkpt lat="45.87858" lon="4.64543">
        <ele>260.17</ele>
        <time>2014-01-11T15:37:01Z</time>
      </trkpt>
      <trkpt lat="45.87863" lon="4.64545">
        <ele>261.14</ele>
        <time>2014-01-11T15:37:06Z</time>
      </trkpt>
      <trkpt lat="45.87867" lon="4.64551">
        <ele>261.62</ele>
        <time>2014-01-11T15:37:11Z</time>
      </trkpt>
      <trkpt lat="45.87878" lon="4.64575">
        <ele>258.73</ele>
        <time>2014-01-11T15:37:21Z</time>
      </trkpt>
      <trkpt lat="45.87896" lon="4.6458">
        <ele>257.77</ele>
        <time>2014-01-11T15:37:27Z</time>
      </trkpt>
      <trkpt lat="45.87899" lon="4.64578">
        <ele>258.25</ele>
        <time>2014-01-11T15:37:28Z</time>
      </trkpt>
      <trkpt lat="45.87927" lon="4.64569">
        <ele>256.33</ele>
        <time>2014-01-11T15:37:37Z</time>
      </trkpt>
      <trkpt lat="45.8793" lon="4.6457">
        <ele>255.85</ele>
        <time>2014-01-11T15:37:39Z</time>
      </trkpt>
      <trkpt lat="45.87922" lon="4.64576">
        <ele>255.37</ele>
        <time>2014-01-11T15:37:42Z</time>
      </trkpt>
      <trkpt lat="45.87914" lon="4.64581">
        <ele>254.41</ele>
        <time>2014-01-11T15:37:44Z</time>
      </trkpt>
      <trkpt lat="45.87909" lon="4.64584">
        <ele>253.93</ele>
        <time>2014-01-11T15:37:45Z</time>
      </trkpt>
      <trkpt lat="45.87896" lon="4.64594">
        <ele>252</ele>
        <time>2014-01-11T15:37:48Z</time>
      </trkpt>
      <trkpt lat="45.87892" lon="4.64596">
        <ele>252</ele>
        <time>2014-01-11T15:37:49Z</time>
      </trkpt>
      <trkpt lat="45.87887" lon="4.64597">
        <ele>251.04</ele>
        <time>2014-01-11T15:37:50Z</time>
      </trkpt>
      <trkpt lat="45.87878" lon="4.64598">
        <ele>250.56</ele>
        <time>2014-01-11T15:37:52Z</time>
      </trkpt>
      <trkpt lat="45.87863" lon="4.64605">
        <ele>248.16</ele>
        <time>2014-01-11T15:37:56Z</time>
      </trkpt>
      <trkpt lat="45.87853" lon="4.64609">
        <ele>246.23</ele>
        <time>2014-01-11T15:37:59Z</time>
      </trkpt>
      <trkpt lat="45.87848" lon="4.64609">
        <ele>246.72</ele>
        <time>2014-01-11T15:38:00Z</time>
      </trkpt>
      <trkpt lat="45.87844" lon="4.64608">
        <ele>245.27</ele>
        <time>2014-01-11T15:38:01Z</time>
      </trkpt>
      <trkpt lat="45.87813" lon="4.64591">
        <ele>242.39</ele>
        <time>2014-01-11T15:38:10Z</time>
      </trkpt>
      <trkpt lat="45.87804" lon="4.64583">
        <ele>240.95</ele>
        <time>2014-01-11T15:38:13Z</time>
      </trkpt>
      <trkpt lat="45.87799" lon="4.64575">
        <ele>239.99</ele>
        <time>2014-01-11T15:38:16Z</time>
      </trkpt>
      <trkpt lat="45.87799" lon="4.64571">
        <ele>239.99</ele>
        <time>2014-01-11T15:38:17Z</time>
      </trkpt>
      <trkpt lat="45.87799" lon="4.64565">
        <ele>239.99</ele>
        <time>2014-01-11T15:38:18Z</time>
      </trkpt>
      <trkpt lat="45.87801" lon="4.64557">
        <ele>239.99</ele>
        <time>2014-01-11T15:38:19Z</time>
      </trkpt>
      <trkpt lat="45.87803" lon="4.6455">
        <ele>239.99</ele>
        <time>2014-01-11T15:38:20Z</time>
      </trkpt>
      <trkpt lat="45.87806" lon="4.64543">
        <ele>239.51</ele>
        <time>2014-01-11T15:38:21Z</time>
      </trkpt>
      <trkpt lat="45.87808" lon="4.64536">
        <ele>239.99</ele>
        <time>2014-01-11T15:38:22Z</time>
      </trkpt>
      <trkpt lat="45.87837" lon="4.64482">
        <ele>238.54</ele>
        <time>2014-01-11T15:38:31Z</time>
      </trkpt>
      <trkpt lat="45.87841" lon="4.64477">
        <ele>238.54</ele>
        <time>2014-01-11T15:38:32Z</time>
      </trkpt>
      <trkpt lat="45.87872" lon="4.64436">
        <ele>237.58</ele>
        <time>2014-01-11T15:38:41Z</time>
      </trkpt>
      <trkpt lat="45.87875" lon="4.64429">
        <ele>237.1</ele>
        <time>2014-01-11T15:38:42Z</time>
      </trkpt>
      <trkpt lat="45.87878" lon="4.64422">
        <ele>236.62</ele>
        <time>2014-01-11T15:38:43Z</time>
      </trkpt>
      <trkpt lat="45.87884" lon="4.64409">
        <ele>234.7</ele>
        <time>2014-01-11T15:38:45Z</time>
      </trkpt>
      <trkpt lat="45.87892" lon="4.64391">
        <ele>231.33</ele>
        <time>2014-01-11T15:38:48Z</time>
      </trkpt>
      <trkpt lat="45.87894" lon="4.64386">
        <ele>231.33</ele>
        <time>2014-01-11T15:38:49Z</time>
      </trkpt>
      <trkpt lat="45.87899" lon="4.64376">
        <ele>228.93</ele>
        <time>2014-01-11T15:38:52Z</time>
      </trkpt>
      <trkpt lat="45.87899" lon="4.64371">
        <ele>227.97</ele>
        <time>2014-01-11T15:38:55Z</time>
      </trkpt>
      <trkpt lat="45.87897" lon="4.64371">
        <ele>228.45</ele>
        <time>2014-01-11T15:38:56Z</time>
      </trkpt>
      <trkpt lat="45.87896" lon="4.64371">
        <ele>228.45</ele>
        <time>2014-01-11T15:38:57Z</time>
      </trkpt>
      <trkpt lat="45.87895" lon="4.64373">
        <ele>227.97</ele>
        <time>2014-01-11T15:38:58Z</time>
      </trkpt>
      <trkpt lat="45.87893" lon="4.64375">
        <ele>228.45</ele>
        <time>2014-01-11T15:38:59Z</time>
      </trkpt>
      <trkpt lat="45.87891" lon="4.64376">
        <ele>227.97</ele>
        <time>2014-01-11T15:39:00Z</time>
      </trkpt>
      <trkpt lat="45.87868" lon="4.64401">
        <ele>227.01</ele>
        <time>2014-01-11T15:39:08Z</time>
      </trkpt>
      <trkpt lat="45.87866" lon="4.64406">
        <ele>226.53</ele>
        <time>2014-01-11T15:39:09Z</time>
      </trkpt>
      <trkpt lat="45.87848" lon="4.64425">
        <ele>224.12</ele>
        <time>2014-01-11T15:39:15Z</time>
      </trkpt>
      <trkpt lat="45.87833" lon="4.64432">
        <ele>221.72</ele>
        <time>2014-01-11T15:39:18Z</time>
      </trkpt>
      <trkpt lat="45.87817" lon="4.6444">
        <ele>219.8</ele>
        <time>2014-01-11T15:39:23Z</time>
      </trkpt>
      <trkpt lat="45.87815" lon="4.64443">
        <ele>219.8</ele>
        <time>2014-01-11T15:39:24Z</time>
      </trkpt>
      <trkpt lat="45.87813" lon="4.64446">
        <ele>219.32</ele>
        <time>2014-01-11T15:39:25Z</time>
      </trkpt>
      <trkpt lat="45.8781" lon="4.64447">
        <ele>219.32</ele>
        <time>2014-01-11T15:39:26Z</time>
      </trkpt>
      <trkpt lat="45.87807" lon="4.64448">
        <ele>219.32</ele>
        <time>2014-01-11T15:39:27Z</time>
      </trkpt>
      <trkpt lat="45.87804" lon="4.64448">
        <ele>219.32</ele>
        <time>2014-01-11T15:39:28Z</time>
      </trkpt>
      <trkpt lat="45.87801" lon="4.64447">
        <ele>219.8</ele>
        <time>2014-01-11T15:39:29Z</time>
      </trkpt>
      <trkpt lat="45.878" lon="4.64445">
        <ele>219.32</ele>
        <time>2014-01-11T15:39:30Z</time>
      </trkpt>
      <trkpt lat="45.87799" lon="4.64442">
        <ele>219.32</ele>
        <time>2014-01-11T15:39:31Z</time>
      </trkpt>
      <trkpt lat="45.878" lon="4.64434">
        <ele>219.32</ele>
        <time>2014-01-11T15:39:33Z</time>
      </trkpt>
      <trkpt lat="45.87832" lon="4.64387">
        <ele>219.32</ele>
        <time>2014-01-11T15:39:42Z</time>
      </trkpt>
      <trkpt lat="45.87834" lon="4.64383">
        <ele>219.32</ele>
        <time>2014-01-11T15:39:43Z</time>
      </trkpt>
      <trkpt lat="45.87834" lon="4.64379">
        <ele>219.8</ele>
        <time>2014-01-11T15:39:44Z</time>
      </trkpt>
      <trkpt lat="45.87833" lon="4.64375">
        <ele>219.32</ele>
        <time>2014-01-11T15:39:45Z</time>
      </trkpt>
      <trkpt lat="45.87822" lon="4.64341">
        <ele>220.28</ele>
        <time>2014-01-11T15:39:54Z</time>
      </trkpt>
      <trkpt lat="45.87813" lon="4.64324">
        <ele>219.8</ele>
        <time>2014-01-11T15:40:03Z</time>
      </trkpt>
      <trkpt lat="45.87812" lon="4.64323">
        <ele>219.8</ele>
        <time>2014-01-11T15:40:06Z</time>
      </trkpt>
      <trkpt lat="45.8781" lon="4.64324">
        <ele>220.28</ele>
        <time>2014-01-11T15:40:07Z</time>
      </trkpt>
      <trkpt lat="45.87808" lon="4.64326">
        <ele>220.28</ele>
        <time>2014-01-11T15:40:08Z</time>
      </trkpt>
      <trkpt lat="45.87806" lon="4.64328">
        <ele>220.76</ele>
        <time>2014-01-11T15:40:09Z</time>
      </trkpt>
      <trkpt lat="45.87804" lon="4.6433">
        <ele>219.8</ele>
        <time>2014-01-11T15:40:10Z</time>
      </trkpt>
      <trkpt lat="45.87802" lon="4.64333">
        <ele>219.8</ele>
        <time>2014-01-11T15:40:11Z</time>
      </trkpt>
      <trkpt lat="45.87784" lon="4.64362">
        <ele>220.28</ele>
        <time>2014-01-11T15:40:19Z</time>
      </trkpt>
      <trkpt lat="45.87781" lon="4.64367">
        <ele>221.24</ele>
        <time>2014-01-11T15:40:20Z</time>
      </trkpt>
      <trkpt lat="45.87777" lon="4.64373">
        <ele>220.76</ele>
        <time>2014-01-11T15:40:21Z</time>
      </trkpt>
      <trkpt lat="45.87734" lon="4.64431">
        <ele>220.28</ele>
        <time>2014-01-11T15:40:33Z</time>
      </trkpt>
      <trkpt lat="45.87729" lon="4.64433">
        <ele>219.8</ele>
        <time>2014-01-11T15:40:34Z</time>
      </trkpt>
      <trkpt lat="45.87723" lon="4.64433">
        <ele>219.32</ele>
        <time>2014-01-11T15:40:35Z</time>
      </trkpt>
      <trkpt lat="45.87717" lon="4.64431">
        <ele>219.8</ele>
        <time>2014-01-11T15:40:36Z</time>
      </trkpt>
      <trkpt lat="45.8771" lon="4.64429">
        <ele>218.84</ele>
        <time>2014-01-11T15:40:37Z</time>
      </trkpt>
      <trkpt lat="45.87662" lon="4.64417">
        <ele>218.84</ele>
        <time>2014-01-11T15:40:45Z</time>
      </trkpt>
      <trkpt lat="45.87657" lon="4.64417">
        <ele>219.32</ele>
        <time>2014-01-11T15:40:46Z</time>
      </trkpt>
      <trkpt lat="45.87652" lon="4.64419">
        <ele>218.84</ele>
        <time>2014-01-11T15:40:47Z</time>
      </trkpt>
      <trkpt lat="45.87647" lon="4.64422">
        <ele>219.32</ele>
        <time>2014-01-11T15:40:48Z</time>
      </trkpt>
      <trkpt lat="45.87644" lon="4.64424">
        <ele>219.32</ele>
        <time>2014-01-11T15:40:49Z</time>
      </trkpt>
      <trkpt lat="45.87641" lon="4.64425">
        <ele>218.84</ele>
        <time>2014-01-11T15:40:50Z</time>
      </trkpt>
      <trkpt lat="45.87639" lon="4.64426">
        <ele>218.84</ele>
        <time>2014-01-11T15:40:51Z</time>
      </trkpt>
      <trkpt lat="45.87636" lon="4.64427">
        <ele>219.8</ele>
        <time>2014-01-11T15:40:52Z</time>
      </trkpt>
      <trkpt lat="45.8762" lon="4.64442">
        <ele>218.36</ele>
        <time>2014-01-11T15:40:59Z</time>
      </trkpt>
      <trkpt lat="45.87617" lon="4.64445">
        <ele>218.36</ele>
        <time>2014-01-11T15:41:00Z</time>
      </trkpt>
      <trkpt lat="45.87604" lon="4.64447">
        <ele>217.4</ele>
        <time>2014-01-11T15:41:05Z</time>
      </trkpt>
      <trkpt lat="45.87603" lon="4.64446">
        <ele>217.88</ele>
        <time>2014-01-11T15:41:06Z</time>
      </trkpt>
      <trkpt lat="45.87599" lon="4.64435">
        <ele>216.91</ele>
        <time>2014-01-11T15:41:11Z</time>
      </trkpt>
      <trkpt lat="45.87596" lon="4.64432">
        <ele>216.91</ele>
        <time>2014-01-11T15:41:12Z</time>
      </trkpt>
      <trkpt lat="45.87576" lon="4.644">
        <ele>217.88</ele>
        <time>2014-01-11T15:41:23Z</time>
      </trkpt>
      <trkpt lat="45.87573" lon="4.64405">
        <ele>218.36</ele>
        <time>2014-01-11T15:41:33Z</time>
      </trkpt>
      <trkpt lat="45.87573" lon="4.64406">
        <ele>218.36</ele>
        <time>2014-01-11T15:41:48Z</time>
      </trkpt>
      <trkpt lat="45.87572" lon="4.64406">
        <ele>220.28</ele>
        <time>2014-01-11T15:42:00Z</time>
      </trkpt>
      <trkpt lat="45.87572" lon="4.64398">
        <ele>220.28</ele>
        <time>2014-01-11T15:42:11Z</time>
      </trkpt>
      <trkpt lat="45.87571" lon="4.64397">
        <ele>220.76</ele>
        <time>2014-01-11T15:42:23Z</time>
      </trkpt>
      <trkpt lat="45.87569" lon="4.64396">
        <ele>221.24</ele>
        <time>2014-01-11T15:42:24Z</time>
      </trkpt>
      <trkpt lat="45.87568" lon="4.64395">
        <ele>220.76</ele>
        <time>2014-01-11T15:42:25Z</time>
      </trkpt>
      <trkpt lat="45.87566" lon="4.64394">
        <ele>221.24</ele>
        <time>2014-01-11T15:42:26Z</time>
      </trkpt>
      <trkpt lat="45.87564" lon="4.64392">
        <ele>220.76</ele>
        <time>2014-01-11T15:42:27Z</time>
      </trkpt>
      <trkpt lat="45.87538" lon="4.64379">
        <ele>220.28</ele>
        <time>2014-01-11T15:42:37Z</time>
      </trkpt>
      <trkpt lat="45.87536" lon="4.64376">
        <ele>219.8</ele>
        <time>2014-01-11T15:42:38Z</time>
      </trkpt>
      <trkpt lat="45.87533" lon="4.64374">
        <ele>219.8</ele>
        <time>2014-01-11T15:42:39Z</time>
      </trkpt>
      <trkpt lat="45.87529" lon="4.64372">
        <ele>219.8</ele>
        <time>2014-01-11T15:42:40Z</time>
      </trkpt>
      <trkpt lat="45.87524" lon="4.6437">
        <ele>219.8</ele>
        <time>2014-01-11T15:42:41Z</time>
      </trkpt>
      <trkpt lat="45.87477" lon="4.64354">
        <ele>220.76</ele>
        <time>2014-01-11T15:42:52Z</time>
      </trkpt>
      <trkpt lat="45.87458" lon="4.64349">
        <ele>221.72</ele>
        <time>2014-01-11T15:43:01Z</time>
      </trkpt>
      <trkpt lat="45.87439" lon="4.64343">
        <ele>222.68</ele>
        <time>2014-01-11T15:43:10Z</time>
      </trkpt>
      <trkpt lat="45.87404" lon="4.6434">
        <ele>221.24</ele>
        <time>2014-01-11T15:43:20Z</time>
      </trkpt>
      <trkpt lat="45.8739" lon="4.6434">
        <ele>220.76</ele>
        <time>2014-01-11T15:43:23Z</time>
      </trkpt>
      <trkpt lat="45.87372" lon="4.64344">
        <ele>219.32</ele>
        <time>2014-01-11T15:43:27Z</time>
      </trkpt>
      <trkpt lat="45.87367" lon="4.64346">
        <ele>219.32</ele>
        <time>2014-01-11T15:43:28Z</time>
      </trkpt>
      <trkpt lat="45.87363" lon="4.6435">
        <ele>219.8</ele>
        <time>2014-01-11T15:43:29Z</time>
      </trkpt>
      <trkpt lat="45.87345" lon="4.64373">
        <ele>219.32</ele>
        <time>2014-01-11T15:43:34Z</time>
      </trkpt>
      <trkpt lat="45.87283" lon="4.64425">
        <ele>218.84</ele>
        <time>2014-01-11T15:43:48Z</time>
      </trkpt>
      <trkpt lat="45.87239" lon="4.64461">
        <ele>220.28</ele>
        <time>2014-01-11T15:44:00Z</time>
      </trkpt>
      <trkpt lat="45.87205" lon="4.64489">
        <ele>222.68</ele>
        <time>2014-01-11T15:44:13Z</time>
      </trkpt>
      <trkpt lat="45.8719" lon="4.64501">
        <ele>225.09</ele>
        <time>2014-01-11T15:44:23Z</time>
      </trkpt>
      <trkpt lat="45.87171" lon="4.64515">
        <ele>227.49</ele>
        <time>2014-01-11T15:44:38Z</time>
      </trkpt>
      <trkpt lat="45.87151" lon="4.64526">
        <ele>229.89</ele>
        <time>2014-01-11T15:44:52Z</time>
      </trkpt>
      <trkpt lat="45.87129" lon="4.64534">
        <ele>230.85</ele>
        <time>2014-01-11T15:45:06Z</time>
      </trkpt>
      <trkpt lat="45.87107" lon="4.6454">
        <ele>232.3</ele>
        <time>2014-01-11T15:45:20Z</time>
      </trkpt>
      <trkpt lat="45.87087" lon="4.64545">
        <ele>233.26</ele>
        <time>2014-01-11T15:45:33Z</time>
      </trkpt>
      <trkpt lat="45.87067" lon="4.64553">
        <ele>235.18</ele>
        <time>2014-01-11T15:45:46Z</time>
      </trkpt>
      <trkpt lat="45.87049" lon="4.64565">
        <ele>237.1</ele>
        <time>2014-01-11T15:45:59Z</time>
      </trkpt>
      <trkpt lat="45.87035" lon="4.64574">
        <ele>239.02</ele>
        <time>2014-01-11T15:46:11Z</time>
      </trkpt>
      <trkpt lat="45.87031" lon="4.64576">
        <ele>239.51</ele>
        <time>2014-01-11T15:46:14Z</time>
      </trkpt>
      <trkpt lat="45.8703" lon="4.64576">
        <ele>239.99</ele>
        <time>2014-01-11T15:46:15Z</time>
      </trkpt>
      <trkpt lat="45.87029" lon="4.64577">
        <ele>239.99</ele>
        <time>2014-01-11T15:46:16Z</time>
      </trkpt>
      <trkpt lat="45.87016" lon="4.64587">
        <ele>242.87</ele>
        <time>2014-01-11T15:46:28Z</time>
      </trkpt>
      <trkpt lat="45.87002" lon="4.64597">
        <ele>245.27</ele>
        <time>2014-01-11T15:46:41Z</time>
      </trkpt>
      <trkpt lat="45.86996" lon="4.64602">
        <ele>246.23</ele>
        <time>2014-01-11T15:46:47Z</time>
      </trkpt>
      <trkpt lat="45.86994" lon="4.64603">
        <ele>247.2</ele>
        <time>2014-01-11T15:46:48Z</time>
      </trkpt>
      <trkpt lat="45.86981" lon="4.64614">
        <ele>250.08</ele>
        <time>2014-01-11T15:47:02Z</time>
      </trkpt>
      <trkpt lat="45.86968" lon="4.64629">
        <ele>252.48</ele>
        <time>2014-01-11T15:47:16Z</time>
      </trkpt>
      <trkpt lat="45.86954" lon="4.64642">
        <ele>254.89</ele>
        <time>2014-01-11T15:47:30Z</time>
      </trkpt>
      <trkpt lat="45.86943" lon="4.64651">
        <ele>257.29</ele>
        <time>2014-01-11T15:47:44Z</time>
      </trkpt>
      <trkpt lat="45.86931" lon="4.6466">
        <ele>258.73</ele>
        <time>2014-01-11T15:47:53Z</time>
      </trkpt>
      <trkpt lat="45.86918" lon="4.6467">
        <ele>259.69</ele>
        <time>2014-01-11T15:48:05Z</time>
      </trkpt>
      <trkpt lat="45.86905" lon="4.6468">
        <ele>261.62</ele>
        <time>2014-01-11T15:48:17Z</time>
      </trkpt>
      <trkpt lat="45.86883" lon="4.64683">
        <ele>262.1</ele>
        <time>2014-01-11T15:48:31Z</time>
      </trkpt>
      <trkpt lat="45.86861" lon="4.64691">
        <ele>262.58</ele>
        <time>2014-01-11T15:48:43Z</time>
      </trkpt>
      <trkpt lat="45.86836" lon="4.64707">
        <ele>264.02</ele>
        <time>2014-01-11T15:48:56Z</time>
      </trkpt>
      <trkpt lat="45.86811" lon="4.64728">
        <ele>264.5</ele>
        <time>2014-01-11T15:49:10Z</time>
      </trkpt>
      <trkpt lat="45.86784" lon="4.64748">
        <ele>264.98</ele>
        <time>2014-01-11T15:49:23Z</time>
      </trkpt>
      <trkpt lat="45.86752" lon="4.6477">
        <ele>265.46</ele>
        <time>2014-01-11T15:49:36Z</time>
      </trkpt>
      <trkpt lat="45.86719" lon="4.64792">
        <ele>266.42</ele>
        <time>2014-01-11T15:49:48Z</time>
      </trkpt>
      <trkpt lat="45.86685" lon="4.6481">
        <ele>266.9</ele>
        <time>2014-01-11T15:50:01Z</time>
      </trkpt>
      <trkpt lat="45.86657" lon="4.64827">
        <ele>268.35</ele>
        <time>2014-01-11T15:50:12Z</time>
      </trkpt>
      <trkpt lat="45.86629" lon="4.64843">
        <ele>268.83</ele>
        <time>2014-01-11T15:50:24Z</time>
      </trkpt>
      <trkpt lat="45.866" lon="4.64858">
        <ele>270.27</ele>
        <time>2014-01-11T15:50:38Z</time>
      </trkpt>
      <trkpt lat="45.86574" lon="4.64872">
        <ele>271.71</ele>
        <time>2014-01-11T15:50:51Z</time>
      </trkpt>
      <trkpt lat="45.86545" lon="4.64889">
        <ele>273.15</ele>
        <time>2014-01-11T15:51:05Z</time>
      </trkpt>
      <trkpt lat="45.86524" lon="4.64908">
        <ele>275.56</ele>
        <time>2014-01-11T15:51:17Z</time>
      </trkpt>
      <trkpt lat="45.86507" lon="4.64935">
        <ele>276.04</ele>
        <time>2014-01-11T15:51:28Z</time>
      </trkpt>
      <trkpt lat="45.86487" lon="4.64969">
        <ele>277.96</ele>
        <time>2014-01-11T15:51:42Z</time>
      </trkpt>
      <trkpt lat="45.86468" lon="4.64993">
        <ele>278.44</ele>
        <time>2014-01-11T15:51:53Z</time>
      </trkpt>
      <trkpt lat="45.86441" lon="4.65036">
        <ele>279.4</ele>
        <time>2014-01-11T15:52:08Z</time>
      </trkpt>
      <trkpt lat="45.8642" lon="4.65079">
        <ele>279.88</ele>
        <time>2014-01-11T15:52:20Z</time>
      </trkpt>
      <trkpt lat="45.86397" lon="4.65136">
        <ele>277.96</ele>
        <time>2014-01-11T15:52:29Z</time>
      </trkpt>
      <trkpt lat="45.86361" lon="4.65238">
        <ele>275.56</ele>
        <time>2014-01-11T15:52:41Z</time>
      </trkpt>
      <trkpt lat="45.86334" lon="4.65348">
        <ele>273.63</ele>
        <time>2014-01-11T15:52:54Z</time>
      </trkpt>
      <trkpt lat="45.86313" lon="4.65441">
        <ele>273.63</ele>
        <time>2014-01-11T15:53:06Z</time>
      </trkpt>
      <trkpt lat="45.86288" lon="4.65521">
        <ele>273.63</ele>
        <time>2014-01-11T15:53:18Z</time>
      </trkpt>
      <trkpt lat="45.86259" lon="4.6561">
        <ele>272.67</ele>
        <time>2014-01-11T15:53:31Z</time>
      </trkpt>
      <trkpt lat="45.86223" lon="4.65695">
        <ele>270.27</ele>
        <time>2014-01-11T15:53:42Z</time>
      </trkpt>
      <trkpt lat="45.86175" lon="4.65802">
        <ele>268.35</ele>
        <time>2014-01-11T15:53:56Z</time>
      </trkpt>
      <trkpt lat="45.86118" lon="4.65933">
        <ele>267.38</ele>
        <time>2014-01-11T15:54:13Z</time>
      </trkpt>
      <trkpt lat="45.86077" lon="4.6603">
        <ele>266.9</ele>
        <time>2014-01-11T15:54:26Z</time>
      </trkpt>
      <trkpt lat="45.86059" lon="4.66072">
        <ele>267.86</ele>
        <time>2014-01-11T15:54:34Z</time>
      </trkpt>
      <trkpt lat="45.86056" lon="4.66077">
        <ele>267.86</ele>
        <time>2014-01-11T15:54:35Z</time>
      </trkpt>
      <trkpt lat="45.86017" lon="4.66111">
        <ele>268.35</ele>
        <time>2014-01-11T15:54:45Z</time>
      </trkpt>
      <trkpt lat="45.86011" lon="4.66118">
        <ele>268.83</ele>
        <time>2014-01-11T15:54:47Z</time>
      </trkpt>
      <trkpt lat="45.85968" lon="4.66183">
        <ele>270.27</ele>
        <time>2014-01-11T15:55:02Z</time>
      </trkpt>
      <trkpt lat="45.85931" lon="4.66255">
        <ele>270.27</ele>
        <time>2014-01-11T15:55:16Z</time>
      </trkpt>
      <trkpt lat="45.85895" lon="4.66328">
        <ele>269.31</ele>
        <time>2014-01-11T15:55:29Z</time>
      </trkpt>
      <trkpt lat="45.85872" lon="4.66395">
        <ele>265.94</ele>
        <time>2014-01-11T15:55:38Z</time>
      </trkpt>
      <trkpt lat="45.85867" lon="4.66417">
        <ele>264.5</ele>
        <time>2014-01-11T15:55:41Z</time>
      </trkpt>
      <trkpt lat="45.85861" lon="4.66444">
        <ele>262.58</ele>
        <time>2014-01-11T15:55:45Z</time>
      </trkpt>
      <trkpt lat="45.85852" lon="4.66493">
        <ele>259.21</ele>
        <time>2014-01-11T15:55:51Z</time>
      </trkpt>
      <trkpt lat="45.85844" lon="4.6653">
        <ele>256.81</ele>
        <time>2014-01-11T15:55:56Z</time>
      </trkpt>
      <trkpt lat="45.8584" lon="4.66542">
        <ele>256.33</ele>
        <time>2014-01-11T15:55:58Z</time>
      </trkpt>
      <trkpt lat="45.85837" lon="4.66547">
        <ele>256.33</ele>
        <time>2014-01-11T15:55:59Z</time>
      </trkpt>
      <trkpt lat="45.85833" lon="4.66551">
        <ele>256.33</ele>
        <time>2014-01-11T15:56:00Z</time>
      </trkpt>
      <trkpt lat="45.85829" lon="4.66555">
        <ele>255.85</ele>
        <time>2014-01-11T15:56:01Z</time>
      </trkpt>
      <trkpt lat="45.85824" lon="4.66557">
        <ele>255.37</ele>
        <time>2014-01-11T15:56:02Z</time>
      </trkpt>
      <trkpt lat="45.85821" lon="4.66561">
        <ele>254.89</ele>
        <time>2014-01-11T15:56:03Z</time>
      </trkpt>
      <trkpt lat="45.85817" lon="4.66566">
        <ele>254.41</ele>
        <time>2014-01-11T15:56:04Z</time>
      </trkpt>
      <trkpt lat="45.85815" lon="4.66572">
        <ele>253.44</ele>
        <time>2014-01-11T15:56:05Z</time>
      </trkpt>
      <trkpt lat="45.85814" lon="4.66579">
        <ele>252.48</ele>
        <time>2014-01-11T15:56:06Z</time>
      </trkpt>
      <trkpt lat="45.85815" lon="4.66587">
        <ele>252</ele>
        <time>2014-01-11T15:56:07Z</time>
      </trkpt>
      <trkpt lat="45.85816" lon="4.66595">
        <ele>252</ele>
        <time>2014-01-11T15:56:08Z</time>
      </trkpt>
      <trkpt lat="45.8582" lon="4.66604">
        <ele>251.52</ele>
        <time>2014-01-11T15:56:09Z</time>
      </trkpt>
      <trkpt lat="45.85823" lon="4.66611">
        <ele>250.08</ele>
        <time>2014-01-11T15:56:10Z</time>
      </trkpt>
      <trkpt lat="45.85827" lon="4.66619">
        <ele>249.6</ele>
        <time>2014-01-11T15:56:11Z</time>
      </trkpt>
      <trkpt lat="45.85846" lon="4.66646">
        <ele>245.75</ele>
        <time>2014-01-11T15:56:15Z</time>
      </trkpt>
      <trkpt lat="45.8585" lon="4.66652">
        <ele>245.27</ele>
        <time>2014-01-11T15:56:16Z</time>
      </trkpt>
      <trkpt lat="45.85856" lon="4.66657">
        <ele>245.27</ele>
        <time>2014-01-11T15:56:17Z</time>
      </trkpt>
      <trkpt lat="45.85866" lon="4.66664">
        <ele>241.91</ele>
        <time>2014-01-11T15:56:19Z</time>
      </trkpt>
      <trkpt lat="45.8587" lon="4.66668">
        <ele>241.91</ele>
        <time>2014-01-11T15:56:20Z</time>
      </trkpt>
      <trkpt lat="45.85872" lon="4.66673">
        <ele>240.95</ele>
        <time>2014-01-11T15:56:21Z</time>
      </trkpt>
      <trkpt lat="45.85873" lon="4.66678">
        <ele>240.47</ele>
        <time>2014-01-11T15:56:22Z</time>
      </trkpt>
      <trkpt lat="45.85872" lon="4.66683">
        <ele>239.99</ele>
        <time>2014-01-11T15:56:23Z</time>
      </trkpt>
      <trkpt lat="45.85868" lon="4.66688">
        <ele>239.51</ele>
        <time>2014-01-11T15:56:24Z</time>
      </trkpt>
      <trkpt lat="45.85863" lon="4.66693">
        <ele>239.51</ele>
        <time>2014-01-11T15:56:25Z</time>
      </trkpt>
      <trkpt lat="45.85856" lon="4.66696">
        <ele>238.54</ele>
        <time>2014-01-11T15:56:26Z</time>
      </trkpt>
      <trkpt lat="45.85848" lon="4.66699">
        <ele>237.58</ele>
        <time>2014-01-11T15:56:27Z</time>
      </trkpt>
      <trkpt lat="45.85823" lon="4.66708">
        <ele>234.22</ele>
        <time>2014-01-11T15:56:30Z</time>
      </trkpt>
      <trkpt lat="45.85816" lon="4.66713">
        <ele>233.74</ele>
        <time>2014-01-11T15:56:31Z</time>
      </trkpt>
      <trkpt lat="45.85809" lon="4.6672">
        <ele>232.78</ele>
        <time>2014-01-11T15:56:32Z</time>
      </trkpt>
      <trkpt lat="45.85803" lon="4.66729">
        <ele>232.78</ele>
        <time>2014-01-11T15:56:33Z</time>
      </trkpt>
      <trkpt lat="45.85798" lon="4.6674">
        <ele>232.3</ele>
        <time>2014-01-11T15:56:34Z</time>
      </trkpt>
      <trkpt lat="45.85795" lon="4.66751">
        <ele>232.3</ele>
        <time>2014-01-11T15:56:35Z</time>
      </trkpt>
      <trkpt lat="45.85791" lon="4.66763">
        <ele>231.33</ele>
        <time>2014-01-11T15:56:36Z</time>
      </trkpt>
      <trkpt lat="45.85767" lon="4.6683">
        <ele>227.01</ele>
        <time>2014-01-11T15:56:42Z</time>
      </trkpt>
      <trkpt lat="45.85763" lon="4.6684">
        <ele>227.01</ele>
        <time>2014-01-11T15:56:43Z</time>
      </trkpt>
      <trkpt lat="45.85746" lon="4.66878">
        <ele>223.16</ele>
        <time>2014-01-11T15:56:47Z</time>
      </trkpt>
      <trkpt lat="45.85737" lon="4.66894">
        <ele>221.72</ele>
        <time>2014-01-11T15:56:49Z</time>
      </trkpt>
      <trkpt lat="45.85732" lon="4.66901">
        <ele>220.76</ele>
        <time>2014-01-11T15:56:50Z</time>
      </trkpt>
      <trkpt lat="45.85726" lon="4.66906">
        <ele>219.32</ele>
        <time>2014-01-11T15:56:51Z</time>
      </trkpt>
      <trkpt lat="45.85721" lon="4.66909">
        <ele>217.88</ele>
        <time>2014-01-11T15:56:52Z</time>
      </trkpt>
      <trkpt lat="45.85715" lon="4.66912">
        <ele>216.91</ele>
        <time>2014-01-11T15:56:53Z</time>
      </trkpt>
      <trkpt lat="45.8571" lon="4.66912">
        <ele>215.47</ele>
        <time>2014-01-11T15:56:54Z</time>
      </trkpt>
      <trkpt lat="45.85705" lon="4.66912">
        <ele>215.47</ele>
        <time>2014-01-11T15:56:55Z</time>
      </trkpt>
      <trkpt lat="45.85701" lon="4.66911">
        <ele>214.51</ele>
        <time>2014-01-11T15:56:56Z</time>
      </trkpt>
      <trkpt lat="45.85694" lon="4.66912">
        <ele>213.07</ele>
        <time>2014-01-11T15:57:01Z</time>
      </trkpt>
      <trkpt lat="45.85694" lon="4.66912">
        <ele>214.03</ele>
        <time>2014-01-11T15:57:16Z</time>
      </trkpt>
      <trkpt lat="45.85694" lon="4.66912">
        <ele>213.07</ele>
        <time>2014-01-11T15:57:31Z</time>
      </trkpt>
      <trkpt lat="45.85694" lon="4.66912">
        <ele>213.55</ele>
        <time>2014-01-11T15:57:54Z</time>
      </trkpt>
      <trkpt lat="45.85694" lon="4.66912">
        <ele>213.07</ele>
        <time>2014-01-11T15:58:13Z</time>
      </trkpt>
      <trkpt lat="45.85694" lon="4.66912">
        <ele>213.07</ele>
        <time>2014-01-11T15:58:31Z</time>
      </trkpt>
      <trkpt lat="45.85694" lon="4.66912">
        <ele>213.07</ele>
        <time>2014-01-11T15:58:57Z</time>
      </trkpt>
      <trkpt lat="45.85694" lon="4.66911">
        <ele>213.55</ele>
        <time>2014-01-11T15:59:14Z</time>
      </trkpt>
      <trkpt lat="45.85694" lon="4.66911">
        <ele>213.55</ele>
        <time>2014-01-11T15:59:36Z</time>
      </trkpt>
      <trkpt lat="45.85694" lon="4.66911">
        <ele>213.07</ele>
        <time>2014-01-11T16:00:03Z</time>
      </trkpt>
      <trkpt lat="45.85693" lon="4.66913">
        <ele>213.55</ele>
        <time>2014-01-11T16:00:20Z</time>
      </trkpt>
      <trkpt lat="45.85692" lon="4.66914">
        <ele>213.55</ele>
        <time>2014-01-11T16:00:27Z</time>
      </trkpt>
      <trkpt lat="45.8569" lon="4.66915">
        <ele>213.55</ele>
        <time>2014-01-11T16:00:28Z</time>
      </trkpt>
      <trkpt lat="45.85689" lon="4.66916">
        <ele>213.55</ele>
        <time>2014-01-11T16:00:29Z</time>
      </trkpt>
      <trkpt lat="45.85686" lon="4.66917">
        <ele>213.55</ele>
        <time>2014-01-11T16:00:30Z</time>
      </trkpt>
      <trkpt lat="45.85684" lon="4.66917">
        <ele>213.55</ele>
        <time>2014-01-11T16:00:31Z</time>
      </trkpt>
      <trkpt lat="45.85682" lon="4.66917">
        <ele>214.03</ele>
        <time>2014-01-11T16:00:32Z</time>
      </trkpt>
      <trkpt lat="45.85648" lon="4.66922">
        <ele>213.55</ele>
        <time>2014-01-11T16:00:41Z</time>
      </trkpt>
      <trkpt lat="45.85583" lon="4.66936">
        <ele>212.11</ele>
        <time>2014-01-11T16:00:50Z</time>
      </trkpt>
      <trkpt lat="45.85545" lon="4.66946">
        <ele>212.11</ele>
        <time>2014-01-11T16:00:57Z</time>
      </trkpt>
      <trkpt lat="45.85537" lon="4.66954">
        <ele>212.11</ele>
        <time>2014-01-11T16:01:00Z</time>
      </trkpt>
      <trkpt lat="45.85536" lon="4.66959">
        <ele>212.59</ele>
        <time>2014-01-11T16:01:01Z</time>
      </trkpt>
      <trkpt lat="45.85536" lon="4.66964">
        <ele>211.63</ele>
        <time>2014-01-11T16:01:02Z</time>
      </trkpt>
      <trkpt lat="45.85537" lon="4.66968">
        <ele>212.11</ele>
        <time>2014-01-11T16:01:03Z</time>
      </trkpt>
      <trkpt lat="45.85537" lon="4.66973">
        <ele>211.63</ele>
        <time>2014-01-11T16:01:04Z</time>
      </trkpt>
      <trkpt lat="45.85553" lon="4.67026">
        <ele>211.63</ele>
        <time>2014-01-11T16:01:14Z</time>
      </trkpt>
      <trkpt lat="45.85578" lon="4.67104">
        <ele>210.19</ele>
        <time>2014-01-11T16:01:26Z</time>
      </trkpt>
      <trkpt lat="45.85589" lon="4.67133">
        <ele>209.22</ele>
        <time>2014-01-11T16:01:30Z</time>
      </trkpt>
      <trkpt lat="45.85611" lon="4.67184">
        <ele>210.19</ele>
        <time>2014-01-11T16:01:40Z</time>
      </trkpt>
      <trkpt lat="45.85614" lon="4.67195">
        <ele>209.22</ele>
        <time>2014-01-11T16:01:50Z</time>
      </trkpt>
      <trkpt lat="45.85614" lon="4.67195">
        <ele>208.74</ele>
        <time>2014-01-11T16:02:05Z</time>
      </trkpt>
      <trkpt lat="45.85614" lon="4.67195">
        <ele>209.22</ele>
        <time>2014-01-11T16:02:07Z</time>
      </trkpt>
      <trkpt lat="45.85616" lon="4.67197">
        <ele>209.22</ele>
        <time>2014-01-11T16:02:09Z</time>
      </trkpt>
      <trkpt lat="45.85617" lon="4.67198">
        <ele>208.74</ele>
        <time>2014-01-11T16:02:21Z</time>
      </trkpt>
      <trkpt lat="45.85617" lon="4.67198">
        <ele>208.74</ele>
        <time>2014-01-11T16:02:45Z</time>
      </trkpt>
      <trkpt lat="45.85617" lon="4.67198">
        <ele>209.22</ele>
        <time>2014-01-11T16:03:01Z</time>
      </trkpt>
      <trkpt lat="45.85617" lon="4.67198">
        <ele>208.74</ele>
        <time>2014-01-11T16:03:19Z</time>
      </trkpt>
      <trkpt lat="45.85617" lon="4.67198">
        <ele>208.74</ele>
        <time>2014-01-11T16:03:38Z</time>
      </trkpt>
      <trkpt lat="45.85625" lon="4.6721">
        <ele>208.74</ele>
        <time>2014-01-11T16:03:44Z</time>
      </trkpt>
      <trkpt lat="45.85652" lon="4.67237">
        <ele>208.26</ele>
        <time>2014-01-11T16:03:54Z</time>
      </trkpt>
      <trkpt lat="45.8566" lon="4.67244">
        <ele>207.3</ele>
        <time>2014-01-11T16:03:56Z</time>
      </trkpt>
      <trkpt lat="45.85665" lon="4.67247">
        <ele>207.78</ele>
        <time>2014-01-11T16:03:57Z</time>
      </trkpt>
      <trkpt lat="45.8567" lon="4.6725">
        <ele>207.3</ele>
        <time>2014-01-11T16:03:58Z</time>
      </trkpt>
      <trkpt lat="45.85711" lon="4.67272">
        <ele>206.34</ele>
        <time>2014-01-11T16:04:06Z</time>
      </trkpt>
      <trkpt lat="45.85764" lon="4.67323">
        <ele>205.38</ele>
        <time>2014-01-11T16:04:17Z</time>
      </trkpt>
      <trkpt lat="45.85767" lon="4.67328">
        <ele>205.38</ele>
        <time>2014-01-11T16:04:18Z</time>
      </trkpt>
      <trkpt lat="45.85769" lon="4.67333">
        <ele>204.9</ele>
        <time>2014-01-11T16:04:19Z</time>
      </trkpt>
      <trkpt lat="45.85771" lon="4.67338">
        <ele>205.38</ele>
        <time>2014-01-11T16:04:20Z</time>
      </trkpt>
      <trkpt lat="45.85771" lon="4.67342">
        <ele>205.38</ele>
        <time>2014-01-11T16:04:21Z</time>
      </trkpt>
      <trkpt lat="45.85772" lon="4.67347">
        <ele>205.38</ele>
        <time>2014-01-11T16:04:22Z</time>
      </trkpt>
      <trkpt lat="45.85772" lon="4.67359">
        <ele>206.34</ele>
        <time>2014-01-11T16:04:25Z</time>
      </trkpt>
      <trkpt lat="45.8577" lon="4.67362">
        <ele>206.82</ele>
        <time>2014-01-11T16:04:26Z</time>
      </trkpt>
      <trkpt lat="45.85749" lon="4.6741">
        <ele>207.3</ele>
        <time>2014-01-11T16:04:38Z</time>
      </trkpt>
      <trkpt lat="45.85728" lon="4.67454">
        <ele>209.22</ele>
        <time>2014-01-11T16:04:50Z</time>
      </trkpt>
      <trkpt lat="45.85702" lon="4.67495">
        <ele>209.22</ele>
        <time>2014-01-11T16:05:01Z</time>
      </trkpt>
      <trkpt lat="45.85663" lon="4.67541">
        <ele>209.22</ele>
        <time>2014-01-11T16:05:13Z</time>
      </trkpt>
      <trkpt lat="45.85609" lon="4.6759">
        <ele>207.78</ele>
        <time>2014-01-11T16:05:26Z</time>
      </trkpt>
      <trkpt lat="45.85569" lon="4.67638">
        <ele>207.3</ele>
        <time>2014-01-11T16:05:36Z</time>
      </trkpt>
      <trkpt lat="45.85527" lon="4.67688">
        <ele>206.34</ele>
        <time>2014-01-11T16:05:46Z</time>
      </trkpt>
      <trkpt lat="45.8549" lon="4.67772">
        <ele>205.86</ele>
        <time>2014-01-11T16:05:58Z</time>
      </trkpt>
      <trkpt lat="45.85489" lon="4.67779">
        <ele>205.86</ele>
        <time>2014-01-11T16:05:59Z</time>
      </trkpt>
      <trkpt lat="45.85489" lon="4.67787">
        <ele>205.38</ele>
        <time>2014-01-11T16:06:00Z</time>
      </trkpt>
      <trkpt lat="45.8549" lon="4.67795">
        <ele>205.38</ele>
        <time>2014-01-11T16:06:01Z</time>
      </trkpt>
      <trkpt lat="45.85491" lon="4.67803">
        <ele>205.38</ele>
        <time>2014-01-11T16:06:02Z</time>
      </trkpt>
      <trkpt lat="45.85493" lon="4.6781">
        <ele>205.86</ele>
        <time>2014-01-11T16:06:03Z</time>
      </trkpt>
      <trkpt lat="45.85495" lon="4.67818">
        <ele>205.86</ele>
        <time>2014-01-11T16:06:04Z</time>
      </trkpt>
      <trkpt lat="45.85497" lon="4.67825">
        <ele>205.38</ele>
        <time>2014-01-11T16:06:05Z</time>
      </trkpt>
      <trkpt lat="45.85499" lon="4.67832">
        <ele>204.9</ele>
        <time>2014-01-11T16:06:06Z</time>
      </trkpt>
      <trkpt lat="45.85501" lon="4.67839">
        <ele>205.86</ele>
        <time>2014-01-11T16:06:07Z</time>
      </trkpt>
      <trkpt lat="45.85502" lon="4.67847">
        <ele>205.38</ele>
        <time>2014-01-11T16:06:08Z</time>
      </trkpt>
      <trkpt lat="45.8552" lon="4.67917">
        <ele>205.38</ele>
        <time>2014-01-11T16:06:19Z</time>
      </trkpt>
      <trkpt lat="45.85531" lon="4.6795">
        <ele>205.38</ele>
        <time>2014-01-11T16:06:28Z</time>
      </trkpt>
      <trkpt lat="45.85532" lon="4.67953">
        <ele>205.38</ele>
        <time>2014-01-11T16:06:35Z</time>
      </trkpt>
      <trkpt lat="45.85532" lon="4.67953">
        <ele>205.86</ele>
        <time>2014-01-11T16:06:40Z</time>
      </trkpt>
      <trkpt lat="45.85531" lon="4.67954">
        <ele>205.86</ele>
        <time>2014-01-11T16:06:42Z</time>
      </trkpt>
      <trkpt lat="45.8553" lon="4.67955">
        <ele>205.38</ele>
        <time>2014-01-11T16:06:43Z</time>
      </trkpt>
      <trkpt lat="45.85529" lon="4.67957">
        <ele>205.38</ele>
        <time>2014-01-11T16:06:44Z</time>
      </trkpt>
      <trkpt lat="45.8553" lon="4.67959">
        <ele>205.38</ele>
        <time>2014-01-11T16:06:52Z</time>
      </trkpt>
      <trkpt lat="45.85531" lon="4.67961">
        <ele>205.38</ele>
        <time>2014-01-11T16:06:53Z</time>
      </trkpt>
      <trkpt lat="45.85532" lon="4.67966">
        <ele>205.38</ele>
        <time>2014-01-11T16:06:54Z</time>
      </trkpt>
      <trkpt lat="45.8554" lon="4.68">
        <ele>203.94</ele>
        <time>2014-01-11T16:06:59Z</time>
      </trkpt>
      <trkpt lat="45.85542" lon="4.68007">
        <ele>203.94</ele>
        <time>2014-01-11T16:07:00Z</time>
      </trkpt>
      <trkpt lat="45.85544" lon="4.68014">
        <ele>203.94</ele>
        <time>2014-01-11T16:07:01Z</time>
      </trkpt>
      <trkpt lat="45.85546" lon="4.6802">
        <ele>203.94</ele>
        <time>2014-01-11T16:07:02Z</time>
      </trkpt>
      <trkpt lat="45.85548" lon="4.68026">
        <ele>203.46</ele>
        <time>2014-01-11T16:07:03Z</time>
      </trkpt>
      <trkpt lat="45.85562" lon="4.68062">
        <ele>203.46</ele>
        <time>2014-01-11T16:07:11Z</time>
      </trkpt>
      <trkpt lat="45.8559" lon="4.68127">
        <ele>203.46</ele>
        <time>2014-01-11T16:07:25Z</time>
      </trkpt>
      <trkpt lat="45.85625" lon="4.68191">
        <ele>202.98</ele>
        <time>2014-01-11T16:07:38Z</time>
      </trkpt>
      <trkpt lat="45.85637" lon="4.6821">
        <ele>202.98</ele>
        <time>2014-01-11T16:07:42Z</time>
      </trkpt>
      <trkpt lat="45.85682" lon="4.68267">
        <ele>203.94</ele>
        <time>2014-01-11T16:07:55Z</time>
      </trkpt>
      <trkpt lat="45.85685" lon="4.68273">
        <ele>203.46</ele>
        <time>2014-01-11T16:07:56Z</time>
      </trkpt>
      <trkpt lat="45.85688" lon="4.68278">
        <ele>203.46</ele>
        <time>2014-01-11T16:07:57Z</time>
      </trkpt>
      <trkpt lat="45.85692" lon="4.68282">
        <ele>203.46</ele>
        <time>2014-01-11T16:07:58Z</time>
      </trkpt>
      <trkpt lat="45.85722" lon="4.68319">
        <ele>203.46</ele>
        <time>2014-01-11T16:08:06Z</time>
      </trkpt>
      <trkpt lat="45.85725" lon="4.68324">
        <ele>203.46</ele>
        <time>2014-01-11T16:08:07Z</time>
      </trkpt>
      <trkpt lat="45.85727" lon="4.6833">
        <ele>203.94</ele>
        <time>2014-01-11T16:08:08Z</time>
      </trkpt>
      <trkpt lat="45.85739" lon="4.68353">
        <ele>202.98</ele>
        <time>2014-01-11T16:08:13Z</time>
      </trkpt>
      <trkpt lat="45.85741" lon="4.68358">
        <ele>203.46</ele>
        <time>2014-01-11T16:08:14Z</time>
      </trkpt>
      <trkpt lat="45.85743" lon="4.68363">
        <ele>203.94</ele>
        <time>2014-01-11T16:08:15Z</time>
      </trkpt>
      <trkpt lat="45.8576" lon="4.68414">
        <ele>202.98</ele>
        <time>2014-01-11T16:08:23Z</time>
      </trkpt>
      <trkpt lat="45.85763" lon="4.6842">
        <ele>202.98</ele>
        <time>2014-01-11T16:08:24Z</time>
      </trkpt>
      <trkpt lat="45.85766" lon="4.68427">
        <ele>202.98</ele>
        <time>2014-01-11T16:08:25Z</time>
      </trkpt>
      <trkpt lat="45.85773" lon="4.68454">
        <ele>202.49</ele>
        <time>2014-01-11T16:08:29Z</time>
      </trkpt>
      <trkpt lat="45.85775" lon="4.6846">
        <ele>202.01</ele>
        <time>2014-01-11T16:08:30Z</time>
      </trkpt>
      <trkpt lat="45.85792" lon="4.6854">
        <ele>202.49</ele>
        <time>2014-01-11T16:08:42Z</time>
      </trkpt>
      <trkpt lat="45.85813" lon="4.68623">
        <ele>202.49</ele>
        <time>2014-01-11T16:08:54Z</time>
      </trkpt>
      <trkpt lat="45.85816" lon="4.68658">
        <ele>202.49</ele>
        <time>2014-01-11T16:08:59Z</time>
      </trkpt>
      <trkpt lat="45.8581" lon="4.68731">
        <ele>202.01</ele>
        <time>2014-01-11T16:09:10Z</time>
      </trkpt>
      <trkpt lat="45.8581" lon="4.68737">
        <ele>202.01</ele>
        <time>2014-01-11T16:09:11Z</time>
      </trkpt>
      <trkpt lat="45.85809" lon="4.68744">
        <ele>201.53</ele>
        <time>2014-01-11T16:09:12Z</time>
      </trkpt>
      <trkpt lat="45.85809" lon="4.6875">
        <ele>202.49</ele>
        <time>2014-01-11T16:09:13Z</time>
      </trkpt>
      <trkpt lat="45.85808" lon="4.68757">
        <ele>201.53</ele>
        <time>2014-01-11T16:09:14Z</time>
      </trkpt>
      <trkpt lat="45.85808" lon="4.68763">
        <ele>201.53</ele>
        <time>2014-01-11T16:09:15Z</time>
      </trkpt>
      <trkpt lat="45.85808" lon="4.68782">
        <ele>202.01</ele>
        <time>2014-01-11T16:09:18Z</time>
      </trkpt>
      <trkpt lat="45.85813" lon="4.68827">
        <ele>200.57</ele>
        <time>2014-01-11T16:09:27Z</time>
      </trkpt>
      <trkpt lat="45.85813" lon="4.68829">
        <ele>200.57</ele>
        <time>2014-01-11T16:09:33Z</time>
      </trkpt>
      <trkpt lat="45.85813" lon="4.68831">
        <ele>200.57</ele>
        <time>2014-01-11T16:09:50Z</time>
      </trkpt>
      <trkpt lat="45.85814" lon="4.68834">
        <ele>200.09</ele>
        <time>2014-01-11T16:10:00Z</time>
      </trkpt>
      <trkpt lat="45.85812" lon="4.68838">
        <ele>200.09</ele>
        <time>2014-01-11T16:10:10Z</time>
      </trkpt>
      <trkpt lat="45.85811" lon="4.68839">
        <ele>200.57</ele>
        <time>2014-01-11T16:10:22Z</time>
      </trkpt>
      <trkpt lat="45.85811" lon="4.6884">
        <ele>199.61</ele>
        <time>2014-01-11T16:10:34Z</time>
      </trkpt>
      <trkpt lat="45.85811" lon="4.6884">
        <ele>200.09</ele>
        <time>2014-01-11T16:10:54Z</time>
      </trkpt>
      <trkpt lat="45.85811" lon="4.6884">
        <ele>200.09</ele>
        <time>2014-01-11T16:11:11Z</time>
      </trkpt>
      <trkpt lat="45.85811" lon="4.68842">
        <ele>200.09</ele>
        <time>2014-01-11T16:11:21Z</time>
      </trkpt>
      <trkpt lat="45.85811" lon="4.68844">
        <ele>200.09</ele>
        <time>2014-01-11T16:11:22Z</time>
      </trkpt>
      <trkpt lat="45.85811" lon="4.68846">
        <ele>199.61</ele>
        <time>2014-01-11T16:11:23Z</time>
      </trkpt>
      <trkpt lat="45.8581" lon="4.68866">
        <ele>200.09</ele>
        <time>2014-01-11T16:11:28Z</time>
      </trkpt>
      <trkpt lat="45.85804" lon="4.68926">
        <ele>200.57</ele>
        <time>2014-01-11T16:11:39Z</time>
      </trkpt>
      <trkpt lat="45.85796" lon="4.69002">
        <ele>200.57</ele>
        <time>2014-01-11T16:11:50Z</time>
      </trkpt>
      <trkpt lat="45.85784" lon="4.69092">
        <ele>200.09</ele>
        <time>2014-01-11T16:12:03Z</time>
      </trkpt>
      <trkpt lat="45.85773" lon="4.69159">
        <ele>200.09</ele>
        <time>2014-01-11T16:12:13Z</time>
      </trkpt>
      <trkpt lat="45.85768" lon="4.69189">
        <ele>199.61</ele>
        <time>2014-01-11T16:12:18Z</time>
      </trkpt>
      <trkpt lat="45.85763" lon="4.69222">
        <ele>199.13</ele>
        <time>2014-01-11T16:12:27Z</time>
      </trkpt>
      <trkpt lat="45.85761" lon="4.69225">
        <ele>198.65</ele>
        <time>2014-01-11T16:12:38Z</time>
      </trkpt>
      <trkpt lat="45.85762" lon="4.69227">
        <ele>199.13</ele>
        <time>2014-01-11T16:12:50Z</time>
      </trkpt>
      <trkpt lat="45.85762" lon="4.69236">
        <ele>198.65</ele>
        <time>2014-01-11T16:13:04Z</time>
      </trkpt>
      <trkpt lat="45.85762" lon="4.69272">
        <ele>199.61</ele>
        <time>2014-01-11T16:13:14Z</time>
      </trkpt>
      <trkpt lat="45.85759" lon="4.69336">
        <ele>199.61</ele>
        <time>2014-01-11T16:13:25Z</time>
      </trkpt>
      <trkpt lat="45.8576" lon="4.69408">
        <ele>200.09</ele>
        <time>2014-01-11T16:13:36Z</time>
      </trkpt>
      <trkpt lat="45.85769" lon="4.69481">
        <ele>200.57</ele>
        <time>2014-01-11T16:13:47Z</time>
      </trkpt>
      <trkpt lat="45.85783" lon="4.69572">
        <ele>200.09</ele>
        <time>2014-01-11T16:14:01Z</time>
      </trkpt>
      <trkpt lat="45.85791" lon="4.69611">
        <ele>200.09</ele>
        <time>2014-01-11T16:14:07Z</time>
      </trkpt>
      <trkpt lat="45.85804" lon="4.69653">
        <ele>200.09</ele>
        <time>2014-01-11T16:14:14Z</time>
      </trkpt>
      <trkpt lat="45.85818" lon="4.69709">
        <ele>200.09</ele>
        <time>2014-01-11T16:14:23Z</time>
      </trkpt>
      <trkpt lat="45.85821" lon="4.69754">
        <ele>200.09</ele>
        <time>2014-01-11T16:14:30Z</time>
      </trkpt>
      <trkpt lat="45.85822" lon="4.69761">
        <ele>200.09</ele>
        <time>2014-01-11T16:14:31Z</time>
      </trkpt>
      <trkpt lat="45.85825" lon="4.69788">
        <ele>199.61</ele>
        <time>2014-01-11T16:14:35Z</time>
      </trkpt>
      <trkpt lat="45.8583" lon="4.69863">
        <ele>199.13</ele>
        <time>2014-01-11T16:14:46Z</time>
      </trkpt>
      <trkpt lat="45.85831" lon="4.69918">
        <ele>199.13</ele>
        <time>2014-01-11T16:14:54Z</time>
      </trkpt>
      <trkpt lat="45.85831" lon="4.69925">
        <ele>199.13</ele>
        <time>2014-01-11T16:14:55Z</time>
      </trkpt>
      <trkpt lat="45.85832" lon="4.70021">
        <ele>198.65</ele>
        <time>2014-01-11T16:15:09Z</time>
      </trkpt>
      <trkpt lat="45.85836" lon="4.70106">
        <ele>198.65</ele>
        <time>2014-01-11T16:15:21Z</time>
      </trkpt>
      <trkpt lat="45.85837" lon="4.70127">
        <ele>198.65</ele>
        <time>2014-01-11T16:15:24Z</time>
      </trkpt>
      <trkpt lat="45.85838" lon="4.70183">
        <ele>198.65</ele>
        <time>2014-01-11T16:15:32Z</time>
      </trkpt>
      <trkpt lat="45.85841" lon="4.70197">
        <ele>198.17</ele>
        <time>2014-01-11T16:15:34Z</time>
      </trkpt>
      <trkpt lat="45.85843" lon="4.70203">
        <ele>198.17</ele>
        <time>2014-01-11T16:15:35Z</time>
      </trkpt>
      <trkpt lat="45.85849" lon="4.70222">
        <ele>198.17</ele>
        <time>2014-01-11T16:15:38Z</time>
      </trkpt>
      <trkpt lat="45.8588" lon="4.70306">
        <ele>198.65</ele>
        <time>2014-01-11T16:15:51Z</time>
      </trkpt>
      <trkpt lat="45.85891" lon="4.70339">
        <ele>198.17</ele>
        <time>2014-01-11T16:15:56Z</time>
      </trkpt>
      <trkpt lat="45.85892" lon="4.70346">
        <ele>198.17</ele>
        <time>2014-01-11T16:15:57Z</time>
      </trkpt>
      <trkpt lat="45.85897" lon="4.70427">
        <ele>197.69</ele>
        <time>2014-01-11T16:16:08Z</time>
      </trkpt>
      <trkpt lat="45.85898" lon="4.70434">
        <ele>198.17</ele>
        <time>2014-01-11T16:16:09Z</time>
      </trkpt>
      <trkpt lat="45.85927" lon="4.70535">
        <ele>198.17</ele>
        <time>2014-01-11T16:16:24Z</time>
      </trkpt>
      <trkpt lat="45.85959" lon="4.70626">
        <ele>197.69</ele>
        <time>2014-01-11T16:16:38Z</time>
      </trkpt>
      <trkpt lat="45.85993" lon="4.70685">
        <ele>197.69</ele>
        <time>2014-01-11T16:16:49Z</time>
      </trkpt>
      <trkpt lat="45.8603" lon="4.70735">
        <ele>197.69</ele>
        <time>2014-01-11T16:16:59Z</time>
      </trkpt>
      <trkpt lat="45.86085" lon="4.70811">
        <ele>197.69</ele>
        <time>2014-01-11T16:17:14Z</time>
      </trkpt>
      <trkpt lat="45.86146" lon="4.70899">
        <ele>196.73</ele>
        <time>2014-01-11T16:17:32Z</time>
      </trkpt>
      <trkpt lat="45.8617" lon="4.70927">
        <ele>197.21</ele>
        <time>2014-01-11T16:17:38Z</time>
      </trkpt>
      <trkpt lat="45.86175" lon="4.7093">
        <ele>197.21</ele>
        <time>2014-01-11T16:17:39Z</time>
      </trkpt>
      <trkpt lat="45.86179" lon="4.70933">
        <ele>197.69</ele>
        <time>2014-01-11T16:17:40Z</time>
      </trkpt>
      <trkpt lat="45.86194" lon="4.7094">
        <ele>197.21</ele>
        <time>2014-01-11T16:17:43Z</time>
      </trkpt>
      <trkpt lat="45.86198" lon="4.70944">
        <ele>197.69</ele>
        <time>2014-01-11T16:17:44Z</time>
      </trkpt>
      <trkpt lat="45.86203" lon="4.70949">
        <ele>196.73</ele>
        <time>2014-01-11T16:17:45Z</time>
      </trkpt>
      <trkpt lat="45.86215" lon="4.70965">
        <ele>196.73</ele>
        <time>2014-01-11T16:17:48Z</time>
      </trkpt>
      <trkpt lat="45.86221" lon="4.70976">
        <ele>196.73</ele>
        <time>2014-01-11T16:17:50Z</time>
      </trkpt>
      <trkpt lat="45.86223" lon="4.70982">
        <ele>196.73</ele>
        <time>2014-01-11T16:17:51Z</time>
      </trkpt>
      <trkpt lat="45.86224" lon="4.70987">
        <ele>196.73</ele>
        <time>2014-01-11T16:17:52Z</time>
      </trkpt>
      <trkpt lat="45.86224" lon="4.70993">
        <ele>196.73</ele>
        <time>2014-01-11T16:17:53Z</time>
      </trkpt>
      <trkpt lat="45.86222" lon="4.70998">
        <ele>196.73</ele>
        <time>2014-01-11T16:17:54Z</time>
      </trkpt>
      <trkpt lat="45.8622" lon="4.71002">
        <ele>196.73</ele>
        <time>2014-01-11T16:17:55Z</time>
      </trkpt>
      <trkpt lat="45.86217" lon="4.71006">
        <ele>197.21</ele>
        <time>2014-01-11T16:17:56Z</time>
      </trkpt>
      <trkpt lat="45.86214" lon="4.7101">
        <ele>196.73</ele>
        <time>2014-01-11T16:17:57Z</time>
      </trkpt>
      <trkpt lat="45.86211" lon="4.71014">
        <ele>197.21</ele>
        <time>2014-01-11T16:17:58Z</time>
      </trkpt>
      <trkpt lat="45.86205" lon="4.71021">
        <ele>197.21</ele>
        <time>2014-01-11T16:18:00Z</time>
      </trkpt>
      <trkpt lat="45.86178" lon="4.71044">
        <ele>196.73</ele>
        <time>2014-01-11T16:18:06Z</time>
      </trkpt>
      <trkpt lat="45.86173" lon="4.71046">
        <ele>196.73</ele>
        <time>2014-01-11T16:18:07Z</time>
      </trkpt>
      <trkpt lat="45.86149" lon="4.71053">
        <ele>197.21</ele>
        <time>2014-01-11T16:18:12Z</time>
      </trkpt>
      <trkpt lat="45.86144" lon="4.71055">
        <ele>197.69</ele>
        <time>2014-01-11T16:18:13Z</time>
      </trkpt>
      <trkpt lat="45.8614" lon="4.71059">
        <ele>197.21</ele>
        <time>2014-01-11T16:18:14Z</time>
      </trkpt>
      <trkpt lat="45.86136" lon="4.71063">
        <ele>197.21</ele>
        <time>2014-01-11T16:18:15Z</time>
      </trkpt>
      <trkpt lat="45.86133" lon="4.71068">
        <ele>197.21</ele>
        <time>2014-01-11T16:18:16Z</time>
      </trkpt>
      <trkpt lat="45.86131" lon="4.71074">
        <ele>197.21</ele>
        <time>2014-01-11T16:18:17Z</time>
      </trkpt>
      <trkpt lat="45.86129" lon="4.71079">
        <ele>196.73</ele>
        <time>2014-01-11T16:18:18Z</time>
      </trkpt>
      <trkpt lat="45.86127" lon="4.71085">
        <ele>197.21</ele>
        <time>2014-01-11T16:18:19Z</time>
      </trkpt>
      <trkpt lat="45.86108" lon="4.7113">
        <ele>197.21</ele>
        <time>2014-01-11T16:18:28Z</time>
      </trkpt>
      <trkpt lat="45.86105" lon="4.71135">
        <ele>197.69</ele>
        <time>2014-01-11T16:18:29Z</time>
      </trkpt>
      <trkpt lat="45.86101" lon="4.7114">
        <ele>197.69</ele>
        <time>2014-01-11T16:18:30Z</time>
      </trkpt>
      <trkpt lat="45.86091" lon="4.71153">
        <ele>197.69</ele>
        <time>2014-01-11T16:18:33Z</time>
      </trkpt>
      <trkpt lat="45.86089" lon="4.71159">
        <ele>197.21</ele>
        <time>2014-01-11T16:18:34Z</time>
      </trkpt>
      <trkpt lat="45.86088" lon="4.71165">
        <ele>197.69</ele>
        <time>2014-01-11T16:18:35Z</time>
      </trkpt>
      <trkpt lat="45.86083" lon="4.7121">
        <ele>197.69</ele>
        <time>2014-01-11T16:18:42Z</time>
      </trkpt>
      <trkpt lat="45.86082" lon="4.71216">
        <ele>197.69</ele>
        <time>2014-01-11T16:18:43Z</time>
      </trkpt>
      <trkpt lat="45.86081" lon="4.71223">
        <ele>197.69</ele>
        <time>2014-01-11T16:18:44Z</time>
      </trkpt>
      <trkpt lat="45.86081" lon="4.7123">
        <ele>197.69</ele>
        <time>2014-01-11T16:18:45Z</time>
      </trkpt>
      <trkpt lat="45.86081" lon="4.71237">
        <ele>197.69</ele>
        <time>2014-01-11T16:18:46Z</time>
      </trkpt>
      <trkpt lat="45.86081" lon="4.71243">
        <ele>197.21</ele>
        <time>2014-01-11T16:18:47Z</time>
      </trkpt>
      <trkpt lat="45.86081" lon="4.71249">
        <ele>197.21</ele>
        <time>2014-01-11T16:18:48Z</time>
      </trkpt>
      <trkpt lat="45.86083" lon="4.71255">
        <ele>197.69</ele>
        <time>2014-01-11T16:18:49Z</time>
      </trkpt>
      <trkpt lat="45.86085" lon="4.71259">
        <ele>198.17</ele>
        <time>2014-01-11T16:18:50Z</time>
      </trkpt>
      <trkpt lat="45.86088" lon="4.71263">
        <ele>198.17</ele>
        <time>2014-01-11T16:18:51Z</time>
      </trkpt>
      <trkpt lat="45.86097" lon="4.71283">
        <ele>198.17</ele>
        <time>2014-01-11T16:18:55Z</time>
      </trkpt>
      <trkpt lat="45.86098" lon="4.71289">
        <ele>198.17</ele>
        <time>2014-01-11T16:18:56Z</time>
      </trkpt>
      <trkpt lat="45.861" lon="4.71296">
        <ele>198.17</ele>
        <time>2014-01-11T16:18:57Z</time>
      </trkpt>
      <trkpt lat="45.86113" lon="4.71383">
        <ele>198.65</ele>
        <time>2014-01-11T16:19:10Z</time>
      </trkpt>
      <trkpt lat="45.86114" lon="4.71405">
        <ele>198.17</ele>
        <time>2014-01-11T16:19:13Z</time>
      </trkpt>
      <trkpt lat="45.86116" lon="4.71449">
        <ele>197.21</ele>
        <time>2014-01-11T16:19:20Z</time>
      </trkpt>
      <trkpt lat="45.86114" lon="4.71454">
        <ele>197.69</ele>
        <time>2014-01-11T16:19:21Z</time>
      </trkpt>
      <trkpt lat="45.86111" lon="4.71459">
        <ele>197.69</ele>
        <time>2014-01-11T16:19:22Z</time>
      </trkpt>
      <trkpt lat="45.86108" lon="4.71465">
        <ele>197.69</ele>
        <time>2014-01-11T16:19:23Z</time>
      </trkpt>
      <trkpt lat="45.86106" lon="4.71471">
        <ele>197.21</ele>
        <time>2014-01-11T16:19:24Z</time>
      </trkpt>
      <trkpt lat="45.86081" lon="4.71532">
        <ele>197.21</ele>
        <time>2014-01-11T16:19:36Z</time>
      </trkpt>
      <trkpt lat="45.86081" lon="4.71534">
        <ele>196.73</ele>
        <time>2014-01-11T16:19:40Z</time>
      </trkpt>
      <trkpt lat="45.86081" lon="4.71536">
        <ele>197.21</ele>
        <time>2014-01-11T16:19:41Z</time>
      </trkpt>
      <trkpt lat="45.8608" lon="4.71538">
        <ele>196.73</ele>
        <time>2014-01-11T16:19:42Z</time>
      </trkpt>
      <trkpt lat="45.8608" lon="4.71542">
        <ele>197.69</ele>
        <time>2014-01-11T16:19:43Z</time>
      </trkpt>
      <trkpt lat="45.86079" lon="4.71546">
        <ele>197.21</ele>
        <time>2014-01-11T16:19:44Z</time>
      </trkpt>
      <trkpt lat="45.86078" lon="4.7155">
        <ele>197.69</ele>
        <time>2014-01-11T16:19:45Z</time>
      </trkpt>
      <trkpt lat="45.86076" lon="4.71555">
        <ele>197.21</ele>
        <time>2014-01-11T16:19:46Z</time>
      </trkpt>
      <trkpt lat="45.86074" lon="4.71559">
        <ele>197.21</ele>
        <time>2014-01-11T16:19:47Z</time>
      </trkpt>
      <trkpt lat="45.86043" lon="4.71632">
        <ele>197.21</ele>
        <time>2014-01-11T16:20:03Z</time>
      </trkpt>
      <trkpt lat="45.86041" lon="4.71636">
        <ele>197.69</ele>
        <time>2014-01-11T16:20:05Z</time>
      </trkpt>
      <trkpt lat="45.86039" lon="4.71637">
        <ele>197.21</ele>
        <time>2014-01-11T16:20:06Z</time>
      </trkpt>
      <trkpt lat="45.86037" lon="4.71637">
        <ele>197.69</ele>
        <time>2014-01-11T16:20:07Z</time>
      </trkpt>
      <trkpt lat="45.86034" lon="4.71636">
        <ele>198.17</ele>
        <time>2014-01-11T16:20:08Z</time>
      </trkpt>
      <trkpt lat="45.86032" lon="4.71634">
        <ele>197.69</ele>
        <time>2014-01-11T16:20:09Z</time>
      </trkpt>
      <trkpt lat="45.8601" lon="4.71616">
        <ele>198.65</ele>
        <time>2014-01-11T16:20:19Z</time>
      </trkpt>
      <trkpt lat="45.85994" lon="4.7162">
        <ele>199.61</ele>
        <time>2014-01-11T16:20:26Z</time>
      </trkpt>
      <trkpt lat="45.8598" lon="4.71642">
        <ele>201.53</ele>
        <time>2014-01-11T16:20:38Z</time>
      </trkpt>
      <trkpt lat="45.85962" lon="4.7165">
        <ele>204.42</ele>
        <time>2014-01-11T16:20:51Z</time>
      </trkpt>
      <trkpt lat="45.85944" lon="4.71638">
        <ele>206.82</ele>
        <time>2014-01-11T16:21:05Z</time>
      </trkpt>
      <trkpt lat="45.85925" lon="4.71626">
        <ele>209.7</ele>
        <time>2014-01-11T16:21:19Z</time>
      </trkpt>
      <trkpt lat="45.85908" lon="4.71618">
        <ele>212.59</ele>
        <time>2014-01-11T16:21:32Z</time>
      </trkpt>
      <trkpt lat="45.85892" lon="4.71608">
        <ele>215.95</ele>
        <time>2014-01-11T16:21:44Z</time>
      </trkpt>
      <trkpt lat="45.8589" lon="4.71607">
        <ele>215.95</ele>
        <time>2014-01-11T16:21:45Z</time>
      </trkpt>
      <trkpt lat="45.85876" lon="4.71591">
        <ele>219.32</ele>
        <time>2014-01-11T16:21:58Z</time>
      </trkpt>
      <trkpt lat="45.85871" lon="4.71573">
        <ele>220.28</ele>
        <time>2014-01-11T16:22:10Z</time>
      </trkpt>
      <trkpt lat="45.85869" lon="4.71569">
        <ele>220.28</ele>
        <time>2014-01-11T16:22:19Z</time>
      </trkpt>
      <trkpt lat="45.8587" lon="4.71566">
        <ele>220.28</ele>
        <time>2014-01-11T16:22:32Z</time>
      </trkpt>
      <trkpt lat="45.85871" lon="4.71568">
        <ele>220.76</ele>
        <time>2014-01-11T16:22:33Z</time>
      </trkpt>
      <trkpt lat="45.85871" lon="4.7157">
        <ele>220.28</ele>
        <time>2014-01-11T16:22:34Z</time>
      </trkpt>
      <trkpt lat="45.85871" lon="4.71571">
        <ele>220.76</ele>
        <time>2014-01-11T16:22:35Z</time>
      </trkpt>
      <trkpt lat="45.85871" lon="4.71573">
        <ele>220.28</ele>
        <time>2014-01-11T16:22:36Z</time>
      </trkpt>
      <trkpt lat="45.85871" lon="4.71574">
        <ele>220.76</ele>
        <time>2014-01-11T16:22:37Z</time>
      </trkpt>
      <trkpt lat="45.85871" lon="4.71576">
        <ele>220.76</ele>
        <time>2014-01-11T16:22:38Z</time>
      </trkpt>
      <trkpt lat="45.85871" lon="4.71578">
        <ele>220.28</ele>
        <time>2014-01-11T16:22:39Z</time>
      </trkpt>
      <trkpt lat="45.8587" lon="4.71579">
        <ele>220.76</ele>
        <time>2014-01-11T16:22:40Z</time>
      </trkpt>
      <trkpt lat="45.85869" lon="4.7158">
        <ele>220.76</ele>
        <time>2014-01-11T16:22:41Z</time>
      </trkpt>
      <trkpt lat="45.85868" lon="4.71581">
        <ele>221.24</ele>
        <time>2014-01-11T16:22:42Z</time>
      </trkpt>
      <trkpt lat="45.85868" lon="4.71583">
        <ele>220.76</ele>
        <time>2014-01-11T16:22:43Z</time>
      </trkpt>
      <trkpt lat="45.85867" lon="4.71584">
        <ele>220.76</ele>
        <time>2014-01-11T16:22:44Z</time>
      </trkpt>
      <trkpt lat="45.85866" lon="4.71586">
        <ele>221.24</ele>
        <time>2014-01-11T16:22:45Z</time>
      </trkpt>
      <trkpt lat="45.85866" lon="4.71588">
        <ele>220.76</ele>
        <time>2014-01-11T16:22:46Z</time>
      </trkpt>
      <trkpt lat="45.85866" lon="4.7159">
        <ele>220.76</ele>
        <time>2014-01-11T16:22:47Z</time>
      </trkpt>
      <trkpt lat="45.85869" lon="4.71605">
        <ele>222.2</ele>
        <time>2014-01-11T16:22:56Z</time>
      </trkpt>
      <trkpt lat="45.8587" lon="4.71606">
        <ele>222.68</ele>
        <time>2014-01-11T16:22:57Z</time>
      </trkpt>
      <trkpt lat="45.8587" lon="4.71608">
        <ele>223.16</ele>
        <time>2014-01-11T16:22:58Z</time>
      </trkpt>
      <trkpt lat="45.8587" lon="4.7161">
        <ele>223.16</ele>
        <time>2014-01-11T16:22:59Z</time>
      </trkpt>
      <trkpt lat="45.85871" lon="4.71611">
        <ele>223.64</ele>
        <time>2014-01-11T16:23:00Z</time>
      </trkpt>
      <trkpt lat="45.85871" lon="4.71612">
        <ele>223.64</ele>
        <time>2014-01-11T16:23:01Z</time>
      </trkpt>
      <trkpt lat="45.85878" lon="4.71634">
        <ele>225.09</ele>
        <time>2014-01-11T16:23:13Z</time>
      </trkpt>
      <trkpt lat="45.85885" lon="4.71659">
        <ele>227.49</ele>
        <time>2014-01-11T16:23:27Z</time>
      </trkpt>
      <trkpt lat="45.85894" lon="4.71685">
        <ele>229.89</ele>
        <time>2014-01-11T16:23:42Z</time>
      </trkpt>
      <trkpt lat="45.85897" lon="4.71709">
        <ele>231.81</ele>
        <time>2014-01-11T16:23:55Z</time>
      </trkpt>
      <trkpt lat="45.85891" lon="4.71733">
        <ele>233.74</ele>
        <time>2014-01-11T16:24:07Z</time>
      </trkpt>
      <trkpt lat="45.8588" lon="4.71757">
        <ele>235.18</ele>
        <time>2014-01-11T16:24:22Z</time>
      </trkpt>
      <trkpt lat="45.8588" lon="4.7178">
        <ele>237.1</ele>
        <time>2014-01-11T16:24:34Z</time>
      </trkpt>
      <trkpt lat="45.85887" lon="4.7179">
        <ele>237.58</ele>
        <time>2014-01-11T16:24:43Z</time>
      </trkpt>
      <trkpt lat="45.85888" lon="4.71791">
        <ele>238.54</ele>
        <time>2014-01-11T16:24:44Z</time>
      </trkpt>
      <trkpt lat="45.85889" lon="4.71792">
        <ele>238.54</ele>
        <time>2014-01-11T16:24:45Z</time>
      </trkpt>
      <trkpt lat="45.8589" lon="4.71793">
        <ele>238.06</ele>
        <time>2014-01-11T16:24:46Z</time>
      </trkpt>
      <trkpt lat="45.85891" lon="4.71795">
        <ele>238.54</ele>
        <time>2014-01-11T16:24:47Z</time>
      </trkpt>
      <trkpt lat="45.85892" lon="4.71796">
        <ele>238.54</ele>
        <time>2014-01-11T16:24:48Z</time>
      </trkpt>
      <trkpt lat="45.85893" lon="4.71797">
        <ele>238.54</ele>
        <time>2014-01-11T16:24:49Z</time>
      </trkpt>
      <trkpt lat="45.85902" lon="4.71812">
        <ele>240.47</ele>
        <time>2014-01-11T16:24:58Z</time>
      </trkpt>
      <trkpt lat="45.85903" lon="4.71814">
        <ele>240.47</ele>
        <time>2014-01-11T16:24:59Z</time>
      </trkpt>
      <trkpt lat="45.85904" lon="4.71816">
        <ele>240.47</ele>
        <time>2014-01-11T16:25:00Z</time>
      </trkpt>
      <trkpt lat="45.85904" lon="4.71818">
        <ele>240.47</ele>
        <time>2014-01-11T16:25:01Z</time>
      </trkpt>
      <trkpt lat="45.85904" lon="4.71821">
        <ele>240.95</ele>
        <time>2014-01-11T16:25:02Z</time>
      </trkpt>
      <trkpt lat="45.85904" lon="4.71823">
        <ele>240.95</ele>
        <time>2014-01-11T16:25:03Z</time>
      </trkpt>
      <trkpt lat="45.85904" lon="4.71825">
        <ele>240.95</ele>
        <time>2014-01-11T16:25:04Z</time>
      </trkpt>
      <trkpt lat="45.85904" lon="4.71828">
        <ele>240.95</ele>
        <time>2014-01-11T16:25:05Z</time>
      </trkpt>
      <trkpt lat="45.85895" lon="4.71856">
        <ele>241.43</ele>
        <time>2014-01-11T16:25:16Z</time>
      </trkpt>
      <trkpt lat="45.8588" lon="4.71857">
        <ele>243.35</ele>
        <time>2014-01-11T16:25:25Z</time>
      </trkpt>
      <trkpt lat="45.85865" lon="4.71856">
        <ele>244.79</ele>
        <time>2014-01-11T16:25:37Z</time>
      </trkpt>
      <trkpt lat="45.85855" lon="4.71866">
        <ele>246.23</ele>
        <time>2014-01-11T16:25:46Z</time>
      </trkpt>
      <trkpt lat="45.85854" lon="4.71867">
        <ele>246.72</ele>
        <time>2014-01-11T16:25:47Z</time>
      </trkpt>
      <trkpt lat="45.85849" lon="4.7188">
        <ele>248.16</ele>
        <time>2014-01-11T16:25:56Z</time>
      </trkpt>
      <trkpt lat="45.85849" lon="4.71882">
        <ele>247.68</ele>
        <time>2014-01-11T16:25:57Z</time>
      </trkpt>
      <trkpt lat="45.85848" lon="4.71883">
        <ele>248.64</ele>
        <time>2014-01-11T16:25:58Z</time>
      </trkpt>
      <trkpt lat="45.85849" lon="4.71902">
        <ele>251.04</ele>
        <time>2014-01-11T16:26:09Z</time>
      </trkpt>
      <trkpt lat="45.85851" lon="4.71922">
        <ele>253.44</ele>
        <time>2014-01-11T16:26:19Z</time>
      </trkpt>
      <trkpt lat="45.85851" lon="4.71936">
        <ele>255.85</ele>
        <time>2014-01-11T16:26:30Z</time>
      </trkpt>
      <trkpt lat="45.85851" lon="4.71937">
        <ele>256.33</ele>
        <time>2014-01-11T16:26:41Z</time>
      </trkpt>
      <trkpt lat="45.85851" lon="4.71938">
        <ele>256.33</ele>
        <time>2014-01-11T16:26:53Z</time>
      </trkpt>
      <trkpt lat="45.8585" lon="4.71946">
        <ele>256.81</ele>
        <time>2014-01-11T16:27:04Z</time>
      </trkpt>
      <trkpt lat="45.85847" lon="4.71956">
        <ele>258.73</ele>
        <time>2014-01-11T16:27:16Z</time>
      </trkpt>
      <trkpt lat="45.85844" lon="4.71965">
        <ele>259.69</ele>
        <time>2014-01-11T16:27:26Z</time>
      </trkpt>
      <trkpt lat="45.85841" lon="4.71972">
        <ele>260.65</ele>
        <time>2014-01-11T16:27:35Z</time>
      </trkpt>
      <trkpt lat="45.85841" lon="4.71978">
        <ele>261.62</ele>
        <time>2014-01-11T16:27:44Z</time>
      </trkpt>
      <trkpt lat="45.85836" lon="4.7199">
        <ele>263.06</ele>
        <time>2014-01-11T16:27:55Z</time>
      </trkpt>
      <trkpt lat="45.85835" lon="4.72002">
        <ele>264.5</ele>
        <time>2014-01-11T16:28:05Z</time>
      </trkpt>
      <trkpt lat="45.85833" lon="4.72014">
        <ele>265.94</ele>
        <time>2014-01-11T16:28:15Z</time>
      </trkpt>
      <trkpt lat="45.8583" lon="4.72024">
        <ele>266.9</ele>
        <time>2014-01-11T16:28:23Z</time>
      </trkpt>
      <trkpt lat="45.85827" lon="4.72037">
        <ele>268.35</ele>
        <time>2014-01-11T16:28:34Z</time>
      </trkpt>
      <trkpt lat="45.85826" lon="4.72039">
        <ele>268.35</ele>
        <time>2014-01-11T16:28:44Z</time>
      </trkpt>
      <trkpt lat="45.85826" lon="4.72039">
        <ele>268.35</ele>
        <time>2014-01-11T16:29:09Z</time>
      </trkpt>
      <trkpt lat="45.85826" lon="4.72039">
        <ele>268.83</ele>
        <time>2014-01-11T16:29:26Z</time>
      </trkpt>
      <trkpt lat="45.85826" lon="4.72041">
        <ele>268.83</ele>
        <time>2014-01-11T16:29:42Z</time>
      </trkpt>
      <trkpt lat="45.85824" lon="4.72045">
        <ele>268.83</ele>
        <time>2014-01-11T16:29:45Z</time>
      </trkpt>
      <trkpt lat="45.85824" lon="4.72047">
        <ele>269.31</ele>
        <time>2014-01-11T16:29:46Z</time>
      </trkpt>
      <trkpt lat="45.8582" lon="4.72076">
        <ele>271.23</ele>
        <time>2014-01-11T16:30:01Z</time>
      </trkpt>
      <trkpt lat="45.85816" lon="4.72097">
        <ele>271.71</ele>
        <time>2014-01-11T16:30:13Z</time>
      </trkpt>
      <trkpt lat="45.8581" lon="4.72122">
        <ele>274.11</ele>
        <time>2014-01-11T16:30:27Z</time>
      </trkpt>
      <trkpt lat="45.85806" lon="4.72145">
        <ele>275.56</ele>
        <time>2014-01-11T16:30:40Z</time>
      </trkpt>
      <trkpt lat="45.858" lon="4.72159">
        <ele>277</ele>
        <time>2014-01-11T16:30:48Z</time>
      </trkpt>
      <trkpt lat="45.85796" lon="4.72163">
        <ele>277.48</ele>
        <time>2014-01-11T16:30:52Z</time>
      </trkpt>
      <trkpt lat="45.85794" lon="4.72163">
        <ele>277.48</ele>
        <time>2014-01-11T16:30:53Z</time>
      </trkpt>
      <trkpt lat="45.85792" lon="4.72163">
        <ele>277.96</ele>
        <time>2014-01-11T16:30:54Z</time>
      </trkpt>
      <trkpt lat="45.8576" lon="4.72159">
        <ele>276.52</ele>
        <time>2014-01-11T16:31:04Z</time>
      </trkpt>
      <trkpt lat="45.857" lon="4.72173">
        <ele>276.52</ele>
        <time>2014-01-11T16:31:18Z</time>
      </trkpt>
      <trkpt lat="45.85657" lon="4.72198">
        <ele>276.52</ele>
        <time>2014-01-11T16:31:29Z</time>
      </trkpt>
      <trkpt lat="45.85598" lon="4.72233">
        <ele>275.07</ele>
        <time>2014-01-11T16:31:42Z</time>
      </trkpt>
      <trkpt lat="45.85548" lon="4.7225">
        <ele>274.11</ele>
        <time>2014-01-11T16:31:52Z</time>
      </trkpt>
      <trkpt lat="45.8549" lon="4.72256">
        <ele>272.67</ele>
        <time>2014-01-11T16:32:03Z</time>
      </trkpt>
      <trkpt lat="45.85433" lon="4.72259">
        <ele>270.75</ele>
        <time>2014-01-11T16:32:12Z</time>
      </trkpt>
      <trkpt lat="45.85422" lon="4.72256">
        <ele>270.75</ele>
        <time>2014-01-11T16:32:14Z</time>
      </trkpt>
      <trkpt lat="45.85364" lon="4.72239">
        <ele>271.71</ele>
        <time>2014-01-11T16:32:26Z</time>
      </trkpt>
      <trkpt lat="45.85325" lon="4.72236">
        <ele>273.63</ele>
        <time>2014-01-11T16:32:37Z</time>
      </trkpt>
      <trkpt lat="45.85298" lon="4.7225">
        <ele>275.07</ele>
        <time>2014-01-11T16:32:48Z</time>
      </trkpt>
      <trkpt lat="45.85288" lon="4.72272">
        <ele>277</ele>
        <time>2014-01-11T16:32:57Z</time>
      </trkpt>
      <trkpt lat="45.85274" lon="4.72296">
        <ele>278.44</ele>
        <time>2014-01-11T16:33:08Z</time>
      </trkpt>
      <trkpt lat="45.85248" lon="4.72301">
        <ele>278.92</ele>
        <time>2014-01-11T16:33:19Z</time>
      </trkpt>
      <trkpt lat="45.85218" lon="4.72295">
        <ele>279.88</ele>
        <time>2014-01-11T16:33:30Z</time>
      </trkpt>
      <trkpt lat="45.85187" lon="4.72281">
        <ele>280.36</ele>
        <time>2014-01-11T16:33:42Z</time>
      </trkpt>
      <trkpt lat="45.85163" lon="4.72252">
        <ele>278.44</ele>
        <time>2014-01-11T16:33:50Z</time>
      </trkpt>
      <trkpt lat="45.85159" lon="4.72246">
        <ele>278.44</ele>
        <time>2014-01-11T16:33:51Z</time>
      </trkpt>
      <trkpt lat="45.85155" lon="4.72242">
        <ele>277.96</ele>
        <time>2014-01-11T16:33:52Z</time>
      </trkpt>
      <trkpt lat="45.85145" lon="4.72236">
        <ele>277.96</ele>
        <time>2014-01-11T16:33:54Z</time>
      </trkpt>
      <trkpt lat="45.85139" lon="4.72234">
        <ele>277.96</ele>
        <time>2014-01-11T16:33:55Z</time>
      </trkpt>
      <trkpt lat="45.85133" lon="4.72233">
        <ele>277.96</ele>
        <time>2014-01-11T16:33:56Z</time>
      </trkpt>
      <trkpt lat="45.85065" lon="4.72227">
        <ele>277.48</ele>
        <time>2014-01-11T16:34:08Z</time>
      </trkpt>
      <trkpt lat="45.85011" lon="4.72222">
        <ele>277.48</ele>
        <time>2014-01-11T16:34:19Z</time>
      </trkpt>
      <trkpt lat="45.84956" lon="4.72214">
        <ele>277.96</ele>
        <time>2014-01-11T16:34:30Z</time>
      </trkpt>
      <trkpt lat="45.8492" lon="4.72205">
        <ele>277.96</ele>
        <time>2014-01-11T16:34:38Z</time>
      </trkpt>
      <trkpt lat="45.84915" lon="4.72204">
        <ele>278.44</ele>
        <time>2014-01-11T16:34:39Z</time>
      </trkpt>
      <trkpt lat="45.84903" lon="4.72205">
        <ele>278.44</ele>
        <time>2014-01-11T16:34:42Z</time>
      </trkpt>
      <trkpt lat="45.84899" lon="4.72205">
        <ele>278.44</ele>
        <time>2014-01-11T16:34:43Z</time>
      </trkpt>
      <trkpt lat="45.84863" lon="4.7223">
        <ele>279.88</ele>
        <time>2014-01-11T16:34:54Z</time>
      </trkpt>
      <trkpt lat="45.84826" lon="4.7225">
        <ele>279.4</ele>
        <time>2014-01-11T16:35:06Z</time>
      </trkpt>
      <trkpt lat="45.848" lon="4.72279">
        <ele>278.44</ele>
        <time>2014-01-11T16:35:15Z</time>
      </trkpt>
      <trkpt lat="45.84789" lon="4.72298">
        <ele>277.48</ele>
        <time>2014-01-11T16:35:19Z</time>
      </trkpt>
      <trkpt lat="45.84785" lon="4.72302">
        <ele>277</ele>
        <time>2014-01-11T16:35:20Z</time>
      </trkpt>
      <trkpt lat="45.84773" lon="4.7231">
        <ele>276.52</ele>
        <time>2014-01-11T16:35:23Z</time>
      </trkpt>
      <trkpt lat="45.84764" lon="4.72313">
        <ele>276.52</ele>
        <time>2014-01-11T16:35:25Z</time>
      </trkpt>
      <trkpt lat="45.84714" lon="4.72314">
        <ele>275.07</ele>
        <time>2014-01-11T16:35:35Z</time>
      </trkpt>
      <trkpt lat="45.84671" lon="4.72319">
        <ele>273.15</ele>
        <time>2014-01-11T16:35:43Z</time>
      </trkpt>
      <trkpt lat="45.84659" lon="4.72321">
        <ele>272.19</ele>
        <time>2014-01-11T16:35:45Z</time>
      </trkpt>
      <trkpt lat="45.84609" lon="4.72327">
        <ele>268.35</ele>
        <time>2014-01-11T16:35:53Z</time>
      </trkpt>
      <trkpt lat="45.84596" lon="4.72331">
        <ele>267.86</ele>
        <time>2014-01-11T16:35:55Z</time>
      </trkpt>
      <trkpt lat="45.8459" lon="4.72334">
        <ele>267.38</ele>
        <time>2014-01-11T16:35:56Z</time>
      </trkpt>
      <trkpt lat="45.84584" lon="4.72338">
        <ele>266.42</ele>
        <time>2014-01-11T16:35:57Z</time>
      </trkpt>
      <trkpt lat="45.84579" lon="4.72342">
        <ele>265.94</ele>
        <time>2014-01-11T16:35:58Z</time>
      </trkpt>
      <trkpt lat="45.84574" lon="4.72347">
        <ele>264.5</ele>
        <time>2014-01-11T16:35:59Z</time>
      </trkpt>
      <trkpt lat="45.84562" lon="4.72361">
        <ele>263.06</ele>
        <time>2014-01-11T16:36:02Z</time>
      </trkpt>
      <trkpt lat="45.84545" lon="4.7238">
        <ele>260.17</ele>
        <time>2014-01-11T16:36:06Z</time>
      </trkpt>
      <trkpt lat="45.84538" lon="4.72388">
        <ele>258.73</ele>
        <time>2014-01-11T16:36:08Z</time>
      </trkpt>
      <trkpt lat="45.84534" lon="4.72392">
        <ele>258.73</ele>
        <time>2014-01-11T16:36:09Z</time>
      </trkpt>
      <trkpt lat="45.84531" lon="4.72395">
        <ele>258.73</ele>
        <time>2014-01-11T16:36:10Z</time>
      </trkpt>
      <trkpt lat="45.84528" lon="4.72397">
        <ele>258.73</ele>
        <time>2014-01-11T16:36:11Z</time>
      </trkpt>
      <trkpt lat="45.84526" lon="4.72399">
        <ele>257.29</ele>
        <time>2014-01-11T16:36:12Z</time>
      </trkpt>
      <trkpt lat="45.84525" lon="4.72401">
        <ele>257.77</ele>
        <time>2014-01-11T16:36:13Z</time>
      </trkpt>
      <trkpt lat="45.84523" lon="4.72403">
        <ele>257.77</ele>
        <time>2014-01-11T16:36:14Z</time>
      </trkpt>
      <trkpt lat="45.84523" lon="4.72406">
        <ele>257.77</ele>
        <time>2014-01-11T16:36:15Z</time>
      </trkpt>
      <trkpt lat="45.84524" lon="4.72407">
        <ele>257.77</ele>
        <time>2014-01-11T16:36:16Z</time>
      </trkpt>
      <trkpt lat="45.84525" lon="4.72409">
        <ele>257.77</ele>
        <time>2014-01-11T16:36:17Z</time>
      </trkpt>
      <trkpt lat="45.84527" lon="4.7241">
        <ele>258.25</ele>
        <time>2014-01-11T16:36:18Z</time>
      </trkpt>
      <trkpt lat="45.84529" lon="4.72412">
        <ele>258.25</ele>
        <time>2014-01-11T16:36:19Z</time>
      </trkpt>
      <trkpt lat="45.8453" lon="4.72414">
        <ele>258.25</ele>
        <time>2014-01-11T16:36:20Z</time>
      </trkpt>
      <trkpt lat="45.84532" lon="4.72416">
        <ele>258.73</ele>
        <time>2014-01-11T16:36:21Z</time>
      </trkpt>
      <trkpt lat="45.84533" lon="4.72417">
        <ele>258.73</ele>
        <time>2014-01-11T16:36:22Z</time>
      </trkpt>
      <trkpt lat="45.84534" lon="4.72418">
        <ele>258.73</ele>
        <time>2014-01-11T16:36:23Z</time>
      </trkpt>
      <trkpt lat="45.84535" lon="4.72419">
        <ele>259.21</ele>
        <time>2014-01-11T16:36:24Z</time>
      </trkpt>
      <trkpt lat="45.8455" lon="4.72434">
        <ele>260.17</ele>
        <time>2014-01-11T16:36:34Z</time>
      </trkpt>
      <trkpt lat="45.84566" lon="4.72439">
        <ele>262.58</ele>
        <time>2014-01-11T16:36:46Z</time>
      </trkpt>
      <trkpt lat="45.84568" lon="4.7244">
        <ele>262.58</ele>
        <time>2014-01-11T16:36:48Z</time>
      </trkpt>
      <trkpt lat="45.8457" lon="4.72441">
        <ele>262.58</ele>
        <time>2014-01-11T16:36:49Z</time>
      </trkpt>
      <trkpt lat="45.84571" lon="4.72443">
        <ele>263.06</ele>
        <time>2014-01-11T16:36:50Z</time>
      </trkpt>
      <trkpt lat="45.84574" lon="4.72447">
        <ele>263.54</ele>
        <time>2014-01-11T16:36:53Z</time>
      </trkpt>
      <trkpt lat="45.84575" lon="4.72448">
        <ele>263.54</ele>
        <time>2014-01-11T16:36:54Z</time>
      </trkpt>
      <trkpt lat="45.84577" lon="4.72449">
        <ele>264.02</ele>
        <time>2014-01-11T16:36:55Z</time>
      </trkpt>
      <trkpt lat="45.84578" lon="4.7245">
        <ele>264.02</ele>
        <time>2014-01-11T16:36:56Z</time>
      </trkpt>
      <trkpt lat="45.84579" lon="4.72451">
        <ele>263.54</ele>
        <time>2014-01-11T16:36:57Z</time>
      </trkpt>
      <trkpt lat="45.84593" lon="4.72468">
        <ele>265.94</ele>
        <time>2014-01-11T16:37:10Z</time>
      </trkpt>
      <trkpt lat="45.84607" lon="4.72485">
        <ele>266.9</ele>
        <time>2014-01-11T16:37:22Z</time>
      </trkpt>
      <trkpt lat="45.84612" lon="4.72514">
        <ele>264.98</ele>
        <time>2014-01-11T16:37:32Z</time>
      </trkpt>
      <trkpt lat="45.84616" lon="4.72534">
        <ele>263.06</ele>
        <time>2014-01-11T16:37:37Z</time>
      </trkpt>
      <trkpt lat="45.84618" lon="4.72535">
        <ele>263.06</ele>
        <time>2014-01-11T16:37:38Z</time>
      </trkpt>
      <trkpt lat="45.84638" lon="4.72539">
        <ele>264.5</ele>
        <time>2014-01-11T16:37:49Z</time>
      </trkpt>
      <trkpt lat="45.84654" lon="4.72542">
        <ele>266.42</ele>
        <time>2014-01-11T16:38:00Z</time>
      </trkpt>
      <trkpt lat="45.84676" lon="4.72545">
        <ele>269.79</ele>
        <time>2014-01-11T16:38:15Z</time>
      </trkpt>
      <trkpt lat="45.84698" lon="4.72546">
        <ele>272.67</ele>
        <time>2014-01-11T16:38:29Z</time>
      </trkpt>
      <trkpt lat="45.84699" lon="4.72547">
        <ele>272.67</ele>
        <time>2014-01-11T16:38:30Z</time>
      </trkpt>
      <trkpt lat="45.847" lon="4.72548">
        <ele>272.67</ele>
        <time>2014-01-11T16:38:31Z</time>
      </trkpt>
      <trkpt lat="45.84701" lon="4.7255">
        <ele>272.67</ele>
        <time>2014-01-11T16:38:32Z</time>
      </trkpt>
      <trkpt lat="45.84702" lon="4.72552">
        <ele>273.15</ele>
        <time>2014-01-11T16:38:33Z</time>
      </trkpt>
      <trkpt lat="45.84702" lon="4.72554">
        <ele>273.15</ele>
        <time>2014-01-11T16:38:34Z</time>
      </trkpt>
      <trkpt lat="45.84703" lon="4.72556">
        <ele>273.15</ele>
        <time>2014-01-11T16:38:41Z</time>
      </trkpt>
      <trkpt lat="45.84705" lon="4.72559">
        <ele>273.63</ele>
        <time>2014-01-11T16:38:50Z</time>
      </trkpt>
      <trkpt lat="45.84708" lon="4.72568">
        <ele>274.59</ele>
        <time>2014-01-11T16:39:00Z</time>
      </trkpt>
      <trkpt lat="45.84712" lon="4.72577">
        <ele>275.56</ele>
        <time>2014-01-11T16:39:11Z</time>
      </trkpt>
      <trkpt lat="45.84714" lon="4.72582">
        <ele>276.52</ele>
        <time>2014-01-11T16:39:22Z</time>
      </trkpt>
      <trkpt lat="45.84715" lon="4.72583">
        <ele>278.44</ele>
        <time>2014-01-11T16:39:35Z</time>
      </trkpt>
      <trkpt lat="45.84718" lon="4.7259">
        <ele>279.4</ele>
        <time>2014-01-11T16:39:45Z</time>
      </trkpt>
      <trkpt lat="45.84723" lon="4.72598">
        <ele>281.32</ele>
        <time>2014-01-11T16:39:56Z</time>
      </trkpt>
      <trkpt lat="45.84723" lon="4.726">
        <ele>281.32</ele>
        <time>2014-01-11T16:40:08Z</time>
      </trkpt>
      <trkpt lat="45.84724" lon="4.72601">
        <ele>281.8</ele>
        <time>2014-01-11T16:40:21Z</time>
      </trkpt>
      <trkpt lat="45.84724" lon="4.72601">
        <ele>281.32</ele>
        <time>2014-01-11T16:40:36Z</time>
      </trkpt>
      <trkpt lat="45.84724" lon="4.72601">
        <ele>280.84</ele>
        <time>2014-01-11T16:40:56Z</time>
      </trkpt>
      <trkpt lat="45.84723" lon="4.72601">
        <ele>279.88</ele>
        <time>2014-01-11T16:41:06Z</time>
      </trkpt>
      <trkpt lat="45.84723" lon="4.72601">
        <ele>280.84</ele>
        <time>2014-01-11T16:41:17Z</time>
      </trkpt>
      <trkpt lat="45.84723" lon="4.72601">
        <ele>281.32</ele>
        <time>2014-01-11T16:41:37Z</time>
      </trkpt>
      <trkpt lat="45.84723" lon="4.726">
        <ele>281.32</ele>
        <time>2014-01-11T16:42:02Z</time>
      </trkpt>
      <trkpt lat="45.84724" lon="4.726">
        <ele>281.32</ele>
        <time>2014-01-11T16:42:29Z</time>
      </trkpt>
      <trkpt lat="45.84724" lon="4.726">
        <ele>280.84</ele>
        <time>2014-01-11T16:42:50Z</time>
      </trkpt>
      <trkpt lat="45.84724" lon="4.726">
        <ele>281.32</ele>
        <time>2014-01-11T16:43:13Z</time>
      </trkpt>
      <trkpt lat="45.84724" lon="4.726">
        <ele>281.32</ele>
        <time>2014-01-11T16:43:32Z</time>
      </trkpt>
      <trkpt lat="45.84724" lon="4.72601">
        <ele>281.32</ele>
        <time>2014-01-11T16:43:58Z</time>
      </trkpt>
      <trkpt lat="45.84724" lon="4.72601">
        <ele>281.32</ele>
        <time>2014-01-11T16:44:23Z</time>
      </trkpt>
      <trkpt lat="45.84724" lon="4.72601">
        <ele>281.32</ele>
        <time>2014-01-11T16:44:39Z</time>
      </trkpt>
      <trkpt lat="45.84724" lon="4.72601">
        <ele>277</ele>
        <time>2014-01-11T16:44:45Z</time>
      </trkpt>
      <trkpt lat="45.84724" lon="4.72601">
        <ele>282.77</ele>
        <time>2014-01-11T16:44:46Z</time>
      </trkpt>
      <trkpt lat="45.84724" lon="4.72601">
        <ele>278.92</ele>
        <time>2014-01-11T16:44:53Z</time>
      </trkpt>
      <trkpt lat="45.84724" lon="4.72601">
        <ele>278.92</ele>
        <time>2014-01-11T16:44:54Z</time>
      </trkpt>
      <trkpt lat="45.84724" lon="4.72601">
        <ele>282.28</ele>
        <time>2014-01-11T16:44:56Z</time>
      </trkpt>
      <trkpt lat="45.84724" lon="4.72601">
        <ele>277.96</ele>
        <time>2014-01-11T16:44:57Z</time>
      </trkpt>
      <trkpt lat="45.84724" lon="4.72601">
        <ele>282.28</ele>
        <time>2014-01-11T16:44:58Z</time>
      </trkpt>
      <trkpt lat="45.84724" lon="4.72601">
        <ele>277.96</ele>
        <time>2014-01-11T16:45:03Z</time>
      </trkpt>
      <trkpt lat="45.84724" lon="4.72601">
        <ele>282.28</ele>
        <time>2014-01-11T16:45:04Z</time>
      </trkpt>
      <trkpt lat="45.84724" lon="4.72601">
        <ele>277.96</ele>
        <time>2014-01-11T16:45:07Z</time>
      </trkpt>
      <trkpt lat="45.84724" lon="4.72601">
        <ele>282.28</ele>
        <time>2014-01-11T16:45:08Z</time>
      </trkpt>
      <trkpt lat="45.84724" lon="4.72601">
        <ele>263.54</ele>
        <time>2014-01-11T16:45:12Z</time>
      </trkpt>
      <trkpt lat="45.84724" lon="4.72601">
        <ele>283.73</ele>
        <time>2014-01-11T16:45:13Z</time>
      </trkpt>
    </trkseg>
  </trk>
</gpx>